<?xml version='1.0' encoding='UTF-8'?><gpx version="1.1" creator="JPX - https://github.com/jenetics/jpx" xmlns="http://www.topografix.com/GPX/1/1"><trk><trkseg><trkpt lat="38.7202968160775" lon="16.291945797976485"><ele>309.00000000000006</ele><time>2026-05-05T06:13:43Z</time></trkpt><trkpt lat="38.72033769211065" lon="16.291875310849242"><ele>309.0</ele><time>2026-05-05T06:13:49Z</time></trkpt><trkpt lat="38.720367468928174" lon="16.2918029170651"><ele>309.0</ele><time>2026-05-05T06:13:54Z</time></trkpt><trkpt lat="38.72043539857192" lon="16.291791693224482"><ele>309.0</ele><time>2026-05-05T06:13:59Z</time></trkpt><trkpt lat="38.72049289585732" lon="16.291740618454483"><ele>309.0</ele><time>2026-05-05T06:14:06Z</time></trkpt><trkpt lat="38.720554272450144" lon="16.291705652503403"><ele>309.00000000000006</ele><time>2026-05-05T06:14:11Z</time></trkpt><trkpt lat="38.72060312018435" lon="16.29165399142872"><ele>309.0</ele><time>2026-05-05T06:14:17Z</time></trkpt><trkpt lat="38.72064897192596" lon="16.291585662993313"><ele>309.00000000000006</ele><time>2026-05-05T06:14:23Z</time></trkpt><trkpt lat="38.72069356374669" lon="16.291514076601672"><ele>309.0</ele><time>2026-05-05T06:14:29Z</time></trkpt><trkpt lat="38.72074458211096" lon="16.291459924045903"><ele>309.0</ele><time>2026-05-05T06:14:35Z</time></trkpt><trkpt lat="38.72079355664871" lon="16.291389530340957"><ele>309.0</ele><time>2026-05-05T06:14:41Z</time></trkpt><trkpt lat="38.72083288338514" lon="16.291309595207583"><ele>309.0</ele><time>2026-05-05T06:14:46Z</time></trkpt><trkpt lat="38.720891088288774" lon="16.291250881588685"><ele>309.00000000000006</ele><time>2026-05-05T06:14:52Z</time></trkpt><trkpt lat="38.720941301238675" lon="16.29118477103725"><ele>309.0</ele><time>2026-05-05T06:14:58Z</time></trkpt><trkpt lat="38.72101608934758" lon="16.291142099478435"><ele>308.7142857142857</ele><time>2026-05-05T06:15:05Z</time></trkpt><trkpt lat="38.72105066753903" lon="16.29106302080812"><ele>308.42857142857144</ele><time>2026-05-05T06:15:11Z</time></trkpt><trkpt lat="38.721118118153285" lon="16.291021580409392"><ele>308.1428571428571</ele><time>2026-05-05T06:15:17Z</time></trkpt><trkpt lat="38.72117647787312" lon="16.29098472908793"><ele>307.8571428571429</ele><time>2026-05-05T06:15:21Z</time></trkpt><trkpt lat="38.7212097015162" lon="16.290911381048794"><ele>307.57142857142856</ele><time>2026-05-05T06:15:26Z</time></trkpt><trkpt lat="38.72123297363297" lon="16.290830864105963"><ele>307.2857142857143</ele><time>2026-05-05T06:15:31.999Z</time></trkpt><trkpt lat="38.721297640587714" lon="16.290786615865173"><ele>307.0</ele><time>2026-05-05T06:15:35.999Z</time></trkpt><trkpt lat="38.7213401431924" lon="16.290715307678788"><ele>306.57142857142856</ele><time>2026-05-05T06:15:40.999Z</time></trkpt><trkpt lat="38.72137375040025" lon="16.290636638976565"><ele>306.1428571428571</ele><time>2026-05-05T06:15:48Z</time></trkpt><trkpt lat="38.72142681472353" lon="16.290585491405498"><ele>305.71428571428567</ele><time>2026-05-05T06:15:53Z</time></trkpt><trkpt lat="38.721444085589425" lon="16.290506508077048"><ele>305.2857142857143</ele><time>2026-05-05T06:15:58Z</time></trkpt><trkpt lat="38.72150838187925" lon="16.290470503975893"><ele>304.8571428571429</ele><time>2026-05-05T06:16:04Z</time></trkpt><trkpt lat="38.72152629270104" lon="16.29038307839056"><ele>304.4285714285714</ele><time>2026-05-05T06:16:15Z</time></trkpt><trkpt lat="38.721595707096306" lon="16.290372175099915"><ele>304.0</ele><time>2026-05-05T06:16:41Z</time></trkpt><trkpt lat="38.72164718807109" lon="16.290315724876155"><ele>304.0</ele><time>2026-05-05T06:16:54Z</time></trkpt><trkpt lat="38.721691933468485" lon="16.2902328261227"><ele>304.0</ele><time>2026-05-05T06:17:02Z</time></trkpt><trkpt lat="38.721723237532615" lon="16.290158328458883"><ele>304.0</ele><time>2026-05-05T06:17:08Z</time></trkpt><trkpt lat="38.72166435821449" lon="16.290106958371815"><ele>304.0</ele><time>2026-05-05T06:17:14Z</time></trkpt><trkpt lat="38.72160369239494" lon="16.290082018348485"><ele>304.0</ele><time>2026-05-05T06:17:19Z</time></trkpt><trkpt lat="38.72154080501978" lon="16.290064180575957"><ele>304.0</ele><time>2026-05-05T06:17:24Z</time></trkpt><trkpt lat="38.72147379855739" lon="16.29001921931586"><ele>304.0</ele><time>2026-05-05T06:17:29Z</time></trkpt><trkpt lat="38.72141098289021" lon="16.289981589448406"><ele>304.0</ele><time>2026-05-05T06:17:35Z</time></trkpt><trkpt lat="38.721347826108385" lon="16.28996684137312"><ele>304.0</ele><time>2026-05-05T06:17:39.999Z</time></trkpt><trkpt lat="38.72128214248162" lon="16.28994230499617"><ele>304.0</ele><time>2026-05-05T06:17:43.999Z</time></trkpt><trkpt lat="38.721216428587496" lon="16.289927410065225"><ele>304.0</ele><time>2026-05-05T06:17:48.999Z</time></trkpt><trkpt lat="38.72114778794056" lon="16.28994637655478"><ele>304.0</ele><time>2026-05-05T06:17:54.999Z</time></trkpt><trkpt lat="38.72108786806179" lon="16.289973738645003"><ele>304.0</ele><time>2026-05-05T06:17:59.999Z</time></trkpt><trkpt lat="38.72102949613328" lon="16.290010201707506"><ele>304.0</ele><time>2026-05-05T06:18:03.999Z</time></trkpt><trkpt lat="38.72098446387316" lon="16.290083744056247"><ele>304.4285714285714</ele><time>2026-05-05T06:18:09.999Z</time></trkpt><trkpt lat="38.7209612466839" lon="16.290164345161724"><ele>304.8571428571429</ele><time>2026-05-05T06:18:15.999Z</time></trkpt><trkpt lat="38.72093622397559" lon="16.290255372158864"><ele>305.2857142857143</ele><time>2026-05-05T06:18:22Z</time></trkpt><trkpt lat="38.72088700723534" lon="16.290324977464728"><ele>305.71428571428567</ele><time>2026-05-05T06:18:28Z</time></trkpt><trkpt lat="38.72084777568013" lon="16.290401389669498"><ele>306.1428571428571</ele><time>2026-05-05T06:18:34Z</time></trkpt><trkpt lat="38.720821640079855" lon="16.290475917578114"><ele>306.57142857142856</ele><time>2026-05-05T06:18:39Z</time></trkpt><trkpt lat="38.720767889199784" lon="16.290546016779178"><ele>307.0</ele><time>2026-05-05T06:18:45Z</time></trkpt><trkpt lat="38.72073215673611" lon="16.29062221755844"><ele>306.99999999999994</ele><time>2026-05-05T06:18:51Z</time></trkpt><trkpt lat="38.720697721322004" lon="16.290700323274454"><ele>307.0</ele><time>2026-05-05T06:18:57Z</time></trkpt><trkpt lat="38.72065800820727" lon="16.290773866981603"><ele>307.0</ele><time>2026-05-05T06:19:02Z</time></trkpt><trkpt lat="38.72061905504697" lon="16.290844239499336"><ele>307.0</ele><time>2026-05-05T06:19:08Z</time></trkpt><trkpt lat="38.72055858690459" lon="16.29088451440112"><ele>307.0</ele><time>2026-05-05T06:19:13Z</time></trkpt><trkpt lat="38.72051915985325" lon="16.29095867890389"><ele>306.99999999999994</ele><time>2026-05-05T06:19:18Z</time></trkpt><trkpt lat="38.720455895629044" lon="16.29099935638068"><ele>307.0</ele><time>2026-05-05T06:19:24Z</time></trkpt><trkpt lat="38.72040373096974" lon="16.291071553552644"><ele>306.99999999999994</ele><time>2026-05-05T06:19:29Z</time></trkpt><trkpt lat="38.7203743600356" lon="16.291149924081196"><ele>307.0</ele><time>2026-05-05T06:19:34Z</time></trkpt><trkpt lat="38.720329666035646" lon="16.29122177501241"><ele>307.0</ele><time>2026-05-05T06:19:40Z</time></trkpt><trkpt lat="38.7202904143144" lon="16.29128768004266"><ele>307.0</ele><time>2026-05-05T06:19:44.997Z</time></trkpt><trkpt lat="38.72024193081041" lon="16.29134505620774"><ele>307.0</ele><time>2026-05-05T06:19:49.997Z</time></trkpt><trkpt lat="38.72018241276956" lon="16.291408423216065"><ele>306.99999999999994</ele><time>2026-05-05T06:19:55.998Z</time></trkpt><trkpt lat="38.7201289101842" lon="16.29147557091173"><ele>307.0</ele><time>2026-05-05T06:20:00.998Z</time></trkpt><trkpt lat="38.720061601029215" lon="16.291504517297852"><ele>307.99999999999994</ele><time>2026-05-05T06:20:06.999Z</time></trkpt><trkpt lat="38.719990975643825" lon="16.291525240826672"><ele>309.0</ele><time>2026-05-05T06:20:11.999Z</time></trkpt><trkpt lat="38.71992088931158" lon="16.291542729837705"><ele>310.0</ele><time>2026-05-05T06:20:16.999Z</time></trkpt><trkpt lat="38.71985055693106" lon="16.29155220660464"><ele>311.0</ele><time>2026-05-05T06:20:22.999Z</time></trkpt><trkpt lat="38.71978658551913" lon="16.29153008846495"><ele>312.0</ele><time>2026-05-05T06:20:32.999Z</time></trkpt><trkpt lat="38.71972249926553" lon="16.291530074332492"><ele>312.99999999999994</ele><time>2026-05-05T06:20:37.999Z</time></trkpt><trkpt lat="38.71964803230707" lon="16.291547123998555"><ele>314.0</ele><time>2026-05-05T06:20:43.999Z</time></trkpt><trkpt lat="38.71958033158634" lon="16.291557798205424"><ele>313.99999999999994</ele><time>2026-05-05T06:20:49.999Z</time></trkpt><trkpt lat="38.71951119874652" lon="16.291557720597645"><ele>314.0</ele><time>2026-05-05T06:20:55Z</time></trkpt><trkpt lat="38.719444194238726" lon="16.291572712612723"><ele>314.0</ele><time>2026-05-05T06:21:01Z</time></trkpt><trkpt lat="38.71937772359041" lon="16.291593344957686"><ele>314.0</ele><time>2026-05-05T06:21:06Z</time></trkpt><trkpt lat="38.71930887065188" lon="16.29161646361407"><ele>314.0</ele><time>2026-05-05T06:21:12Z</time></trkpt><trkpt lat="38.719249333536226" lon="16.2916554698822"><ele>313.99999999999994</ele><time>2026-05-05T06:21:17Z</time></trkpt><trkpt lat="38.71919197371865" lon="16.29169349863218"><ele>314.0</ele><time>2026-05-05T06:21:22Z</time></trkpt><trkpt lat="38.71912129366942" lon="16.291732179031783"><ele>311.99999999999994</ele><time>2026-05-05T06:21:28Z</time></trkpt><trkpt lat="38.71907306782063" lon="16.29180346817927"><ele>310.0</ele><time>2026-05-05T06:21:33Z</time></trkpt><trkpt lat="38.7190107888204" lon="16.291817203621992"><ele>308.0</ele><time>2026-05-05T06:21:38Z</time></trkpt><trkpt lat="38.71895226902317" lon="16.29185440492983"><ele>306.0</ele><time>2026-05-05T06:21:43Z</time></trkpt><trkpt lat="38.71889347774451" lon="16.29188605289595"><ele>304.0</ele><time>2026-05-05T06:21:47Z</time></trkpt><trkpt lat="38.71883406508676" lon="16.291914893470107"><ele>301.99999999999994</ele><time>2026-05-05T06:21:53.998Z</time></trkpt><trkpt lat="38.718779300948064" lon="16.291957560906127"><ele>300.0</ele><time>2026-05-05T06:21:58.998Z</time></trkpt><trkpt lat="38.71871288015312" lon="16.29196749571528"><ele>299.99999999999994</ele><time>2026-05-05T06:22:05.999Z</time></trkpt><trkpt lat="38.71865100591218" lon="16.291923659363103"><ele>300.0</ele><time>2026-05-05T06:22:15.999Z</time></trkpt><trkpt lat="38.718615195626775" lon="16.291846416087825"><ele>300.0</ele><time>2026-05-05T06:22:20.999Z</time></trkpt><trkpt lat="38.71856109214277" lon="16.291780134489578"><ele>300.0</ele><time>2026-05-05T06:22:26.999Z</time></trkpt><trkpt lat="38.71851160324186" lon="16.291722011168268"><ele>300.0</ele><time>2026-05-05T06:22:33Z</time></trkpt><trkpt lat="38.718468171413335" lon="16.291656922852514"><ele>299.99999999999994</ele><time>2026-05-05T06:22:38Z</time></trkpt><trkpt lat="38.718433463702866" lon="16.291575292313347"><ele>300.0</ele><time>2026-05-05T06:22:43Z</time></trkpt><trkpt lat="38.71840363752173" lon="16.29149584040202"><ele>299.57142857142856</ele><time>2026-05-05T06:22:49Z</time></trkpt><trkpt lat="38.71839609078382" lon="16.29141193819417"><ele>299.1428571428571</ele><time>2026-05-05T06:22:55Z</time></trkpt><trkpt lat="38.71838861525195" lon="16.29132374154895"><ele>298.7142857142857</ele><time>2026-05-05T06:23:00Z</time></trkpt><trkpt lat="38.71837861826303" lon="16.291233213688383"><ele>298.2857142857143</ele><time>2026-05-05T06:23:06Z</time></trkpt><trkpt lat="38.71838833388436" lon="16.291144604682863"><ele>297.8571428571429</ele><time>2026-05-05T06:23:11Z</time></trkpt><trkpt lat="38.71837300207554" lon="16.291057573312756"><ele>297.42857142857144</ele><time>2026-05-05T06:23:17Z</time></trkpt><trkpt lat="38.71835513048281" lon="16.29097364097889"><ele>297.0</ele><time>2026-05-05T06:23:22Z</time></trkpt><trkpt lat="38.718341856426036" lon="16.290890626974292"><ele>297.0</ele><time>2026-05-05T06:23:28Z</time></trkpt><trkpt lat="38.718315954977356" lon="16.29080618578512"><ele>297.0</ele><time>2026-05-05T06:23:33.001Z</time></trkpt><trkpt lat="38.71828401473482" lon="16.290721901433855"><ele>297.0</ele><time>2026-05-05T06:23:39.001Z</time></trkpt><trkpt lat="38.71826020074633" lon="16.290643050696037"><ele>297.0</ele><time>2026-05-05T06:23:44.001Z</time></trkpt><trkpt lat="38.71821310895098" lon="16.290575354288407"><ele>297.0</ele><time>2026-05-05T06:23:49.001Z</time></trkpt><trkpt lat="38.71815622368361" lon="16.290535999654544"><ele>297.0</ele><time>2026-05-05T06:23:54.001Z</time></trkpt><trkpt lat="38.718101594403485" lon="16.29047715248979"><ele>297.0</ele><time>2026-05-05T06:23:59.998Z</time></trkpt><trkpt lat="38.718101700889626" lon="16.290396210095665"><ele>295.57142857142856</ele><time>2026-05-05T06:24:03.999Z</time></trkpt><trkpt lat="38.71814498308064" lon="16.29032483902898"><ele>294.14285714285717</ele><time>2026-05-05T06:24:08.999Z</time></trkpt><trkpt lat="38.718162375583084" lon="16.290246337107405"><ele>292.7142857142857</ele><time>2026-05-05T06:24:12.999Z</time></trkpt><trkpt lat="38.718177793449236" lon="16.2901640984971"><ele>291.2857142857143</ele><time>2026-05-05T06:24:18.999Z</time></trkpt><trkpt lat="38.71819928051647" lon="16.290070759995675"><ele>289.8571428571429</ele><time>2026-05-05T06:24:23.999Z</time></trkpt><trkpt lat="38.71821999823857" lon="16.28998292844561"><ele>288.42857142857144</ele><time>2026-05-05T06:24:30Z</time></trkpt><trkpt lat="38.71819230520372" lon="16.289901461080973"><ele>287.0</ele><time>2026-05-05T06:24:36Z</time></trkpt><trkpt lat="38.71814484818115" lon="16.28982726694223"><ele>287.0</ele><time>2026-05-05T06:24:41Z</time></trkpt><trkpt lat="38.718101753665735" lon="16.28976659334819"><ele>287.0</ele><time>2026-05-05T06:24:46Z</time></trkpt><trkpt lat="38.71806638375172" lon="16.28969558892335"><ele>287.0</ele><time>2026-05-05T06:24:50Z</time></trkpt><trkpt lat="38.718124271617484" lon="16.289662387624166"><ele>287.0</ele><time>2026-05-05T06:24:54Z</time></trkpt><trkpt lat="38.71810763649859" lon="16.289561136584616"><ele>287.0</ele><time>2026-05-05T06:25:26.001Z</time></trkpt><trkpt lat="38.71816061020474" lon="16.289500963244283"><ele>287.0</ele><time>2026-05-05T06:25:31.001Z</time></trkpt><trkpt lat="38.7181781060125" lon="16.28941998474809"><ele>287.0</ele><time>2026-05-05T06:25:38.001Z</time></trkpt><trkpt lat="38.71818003174699" lon="16.28933016903052"><ele>287.7142857142857</ele><time>2026-05-05T06:25:43.001Z</time></trkpt><trkpt lat="38.71811944029487" lon="16.289307329386094"><ele>288.42857142857144</ele><time>2026-05-05T06:25:48.001Z</time></trkpt><trkpt lat="38.71801748466322" lon="16.289350409506014"><ele>289.1428571428571</ele><time>2026-05-05T06:26:05.998Z</time></trkpt><trkpt lat="38.71798736908395" lon="16.28927014506827"><ele>289.8571428571429</ele><time>2026-05-05T06:26:09.999Z</time></trkpt><trkpt lat="38.717956363474606" lon="16.289195198842357"><ele>290.57142857142856</ele><time>2026-05-05T06:26:17.999Z</time></trkpt><trkpt lat="38.7179625656623" lon="16.289114616410732"><ele>291.2857142857143</ele><time>2026-05-05T06:26:20.999Z</time></trkpt><trkpt lat="38.71795397520221" lon="16.28901906135624"><ele>292.0</ele><time>2026-05-05T06:26:24.999Z</time></trkpt><trkpt lat="38.71790656440576" lon="16.288934838746012"><ele>293.0</ele><time>2026-05-05T06:26:31Z</time></trkpt><trkpt lat="38.71786473286794" lon="16.28881127289582"><ele>294.0</ele><time>2026-05-05T06:26:35Z</time></trkpt><trkpt lat="38.71782450251664" lon="16.288736905254414"><ele>295.0</ele><time>2026-05-05T06:26:48Z</time></trkpt><trkpt lat="38.71780486302773" lon="16.288652170808714"><ele>296.0</ele><time>2026-05-05T06:26:54Z</time></trkpt><trkpt lat="38.717795486779345" lon="16.288567380947264"><ele>297.0</ele><time>2026-05-05T06:27:00Z</time></trkpt><trkpt lat="38.71776192756069" lon="16.288483346380097"><ele>298.0</ele><time>2026-05-05T06:27:05.001Z</time></trkpt><trkpt lat="38.717808614344946" lon="16.288395790232304"><ele>298.0</ele><time>2026-05-05T06:27:10.001Z</time></trkpt><trkpt lat="38.717858751666775" lon="16.28833307381232"><ele>298.0</ele><time>2026-05-05T06:27:16.001Z</time></trkpt><trkpt lat="38.71785249741116" lon="16.288234491861367"><ele>298.0</ele><time>2026-05-05T06:27:23.001Z</time></trkpt><trkpt lat="38.71786219371758" lon="16.288141254072475"><ele>298.0</ele><time>2026-05-05T06:27:46.002Z</time></trkpt><trkpt lat="38.71789845011991" lon="16.28806650200274"><ele>298.0</ele><time>2026-05-05T06:27:54.002Z</time></trkpt><trkpt lat="38.71788772551751" lon="16.287985176438422"><ele>298.0</ele><time>2026-05-05T06:28:01.002Z</time></trkpt><trkpt lat="38.71789615886507" lon="16.287903010397372"><ele>298.0</ele><time>2026-05-05T06:28:05.002Z</time></trkpt><trkpt lat="38.71787185468151" lon="16.287814612873607"><ele>297.2857142857143</ele><time>2026-05-05T06:28:14.001Z</time></trkpt><trkpt lat="38.71792955603456" lon="16.287767957532118"><ele>296.57142857142856</ele><time>2026-05-05T06:28:22.001Z</time></trkpt><trkpt lat="38.71795220311894" lon="16.28768500724348"><ele>295.85714285714283</ele><time>2026-05-05T06:28:27.001Z</time></trkpt><trkpt lat="38.71797069176612" lon="16.287594938142526"><ele>295.1428571428571</ele><time>2026-05-05T06:28:33.001Z</time></trkpt><trkpt lat="38.718022613295666" lon="16.287545540916422"><ele>294.42857142857144</ele><time>2026-05-05T06:28:46.001Z</time></trkpt><trkpt lat="38.71809363540759" lon="16.287520013594776"><ele>293.71428571428567</ele><time>2026-05-05T06:28:53.001Z</time></trkpt><trkpt lat="38.71819118269673" lon="16.287517632108365"><ele>293.0</ele><time>2026-05-05T06:29:01.002Z</time></trkpt><trkpt lat="38.718264619861735" lon="16.287488450794736"><ele>293.0</ele><time>2026-05-05T06:29:07.002Z</time></trkpt><trkpt lat="38.71832806447379" lon="16.287478345504464"><ele>293.0</ele><time>2026-05-05T06:29:17.002Z</time></trkpt><trkpt lat="38.718335686512" lon="16.287375074965407"><ele>293.0</ele><time>2026-05-05T06:29:21.002Z</time></trkpt><trkpt lat="38.71844581110549" lon="16.2873628772867"><ele>293.0</ele><time>2026-05-05T06:29:31.002Z</time></trkpt><trkpt lat="38.71842321638583" lon="16.287282820082112"><ele>293.0</ele><time>2026-05-05T06:29:36.002Z</time></trkpt><trkpt lat="38.71841714558716" lon="16.28719813801086"><ele>293.0</ele><time>2026-05-05T06:29:43.002Z</time></trkpt><trkpt lat="38.71845040486525" lon="16.28711181220343"><ele>291.57142857142856</ele><time>2026-05-05T06:29:49.002Z</time></trkpt><trkpt lat="38.71842839624755" lon="16.287033029043382"><ele>290.1428571428571</ele><time>2026-05-05T06:29:54.003Z</time></trkpt><trkpt lat="38.71841641660215" lon="16.286943459071864"><ele>288.7142857142857</ele><time>2026-05-05T06:29:59.003Z</time></trkpt><trkpt lat="38.71843689397962" lon="16.28686456207697"><ele>287.2857142857143</ele><time>2026-05-05T06:30:05.003Z</time></trkpt><trkpt lat="38.71843917407729" lon="16.286783276144433"><ele>285.8571428571429</ele><time>2026-05-05T06:30:10.003Z</time></trkpt><trkpt lat="38.71847199992433" lon="16.28671436320623"><ele>284.42857142857144</ele><time>2026-05-05T06:30:15.003Z</time></trkpt><trkpt lat="38.71854172217936" lon="16.286734164643573"><ele>283.0</ele><time>2026-05-05T06:30:32.002Z</time></trkpt><trkpt lat="38.71861765545295" lon="16.28676937399161"><ele>283.0</ele><time>2026-05-05T06:30:38.002Z</time></trkpt><trkpt lat="38.71868555451985" lon="16.286827588789517"><ele>283.0</ele><time>2026-05-05T06:34:16.004Z</time></trkpt><trkpt lat="38.71862245244164" lon="16.286832469752643"><ele>283.0</ele><time>2026-05-05T06:34:51.002Z</time></trkpt><trkpt lat="38.71867673563115" lon="16.28674268562966"><ele>283.0</ele><time>2026-05-05T06:36:03.001Z</time></trkpt><trkpt lat="38.71858687555022" lon="16.286718544335336"><ele>283.0</ele><time>2026-05-05T06:36:11.001Z</time></trkpt><trkpt lat="38.718516676994305" lon="16.28678193285027"><ele>283.0</ele><time>2026-05-05T06:36:16.001Z</time></trkpt><trkpt lat="38.71848409417804" lon="16.28671013212867"><ele>283.0</ele><time>2026-05-05T06:36:18.001Z</time></trkpt><trkpt lat="38.718465603002734" lon="16.286630808928674"><ele>283.0</ele><time>2026-05-05T06:36:22.001Z</time></trkpt><trkpt lat="38.71846584890129" lon="16.286547766038215"><ele>283.0</ele><time>2026-05-05T06:36:27.001Z</time></trkpt><trkpt lat="38.71844879338349" lon="16.28646913849303"><ele>283.0</ele><time>2026-05-05T06:36:33.001Z</time></trkpt><trkpt lat="38.718455176978146" lon="16.28637188829296"><ele>283.0</ele><time>2026-05-05T06:36:40.001Z</time></trkpt><trkpt lat="38.718474153593675" lon="16.286281853560816"><ele>283.0</ele><time>2026-05-05T06:36:45.001Z</time></trkpt><trkpt lat="38.71847262508222" lon="16.28619185050448"><ele>283.0</ele><time>2026-05-05T06:36:51.001Z</time></trkpt><trkpt lat="38.718481698780415" lon="16.2861042313112"><ele>280.7142857142857</ele><time>2026-05-05T06:36:58.001Z</time></trkpt><trkpt lat="38.71842274660684" lon="16.28603810872647"><ele>278.42857142857144</ele><time>2026-05-05T06:37:12.001Z</time></trkpt><trkpt lat="38.718353677325084" lon="16.28607719547408"><ele>276.14285714285717</ele><time>2026-05-05T06:37:17.001Z</time></trkpt><trkpt lat="38.718298116372644" lon="16.286135376764367"><ele>273.8571428571429</ele><time>2026-05-05T06:37:24Z</time></trkpt><trkpt lat="38.71823755141378" lon="16.28616344062232"><ele>271.57142857142856</ele><time>2026-05-05T06:37:29Z</time></trkpt><trkpt lat="38.718214946871804" lon="16.286240098972947"><ele>269.28571428571433</ele><time>2026-05-05T06:37:36Z</time></trkpt><trkpt lat="38.71818840281245" lon="16.286334640019668"><ele>267.0</ele><time>2026-05-05T06:37:42Z</time></trkpt><trkpt lat="38.71815376161648" lon="16.286418146774903"><ele>269.28571428571433</ele><time>2026-05-05T06:37:48Z</time></trkpt><trkpt lat="38.71812692307134" lon="16.286496167563946"><ele>271.57142857142856</ele><time>2026-05-05T06:37:52Z</time></trkpt><trkpt lat="38.71811209875531" lon="16.28658944146413"><ele>273.8571428571429</ele><time>2026-05-05T06:37:57Z</time></trkpt><trkpt lat="38.718086467577166" lon="16.286687004407366"><ele>276.14285714285717</ele><time>2026-05-05T06:38:02Z</time></trkpt><trkpt lat="38.718102191667676" lon="16.2867731639653"><ele>278.42857142857144</ele><time>2026-05-05T06:38:08Z</time></trkpt><trkpt lat="38.71805189164477" lon="16.286828135359784"><ele>280.7142857142857</ele><time>2026-05-05T06:38:12Z</time></trkpt><trkpt lat="38.718032018194464" lon="16.286905822999582"><ele>283.0</ele><time>2026-05-05T06:38:18Z</time></trkpt><trkpt lat="38.717981439803815" lon="16.286964882223575"><ele>283.0</ele><time>2026-05-05T06:38:23Z</time></trkpt><trkpt lat="38.71792256095559" lon="16.28702325068048"><ele>283.0</ele><time>2026-05-05T06:38:28Z</time></trkpt><trkpt lat="38.71786337320014" lon="16.28706074609579"><ele>283.0</ele><time>2026-05-05T06:38:32Z</time></trkpt><trkpt lat="38.71779637968369" lon="16.28706805554944"><ele>283.0</ele><time>2026-05-05T06:38:37.001Z</time></trkpt><trkpt lat="38.71772458097652" lon="16.287098278422132"><ele>283.0</ele><time>2026-05-05T06:38:43Z</time></trkpt><trkpt lat="38.71766124501653" lon="16.287121141994803"><ele>283.0</ele><time>2026-05-05T06:38:49Z</time></trkpt><trkpt lat="38.71763514437001" lon="16.287211428095784"><ele>283.0</ele><time>2026-05-05T06:38:54Z</time></trkpt><trkpt lat="38.71759302821544" lon="16.28727535467555"><ele>281.42857142857144</ele><time>2026-05-05T06:38:59Z</time></trkpt><trkpt lat="38.71754637063193" lon="16.28733086706179"><ele>279.8571428571429</ele><time>2026-05-05T06:39:04Z</time></trkpt><trkpt lat="38.71752948944458" lon="16.28742185112301"><ele>278.2857142857143</ele><time>2026-05-05T06:39:09Z</time></trkpt><trkpt lat="38.717465491417855" lon="16.28745537592997"><ele>276.7142857142857</ele><time>2026-05-05T06:39:17Z</time></trkpt><trkpt lat="38.717436302697614" lon="16.28737654656053"><ele>275.1428571428571</ele><time>2026-05-05T06:39:23Z</time></trkpt><trkpt lat="38.71746810001931" lon="16.287287511845253"><ele>273.57142857142856</ele><time>2026-05-05T06:39:28Z</time></trkpt><trkpt lat="38.717487712677844" lon="16.287203640767736"><ele>272.0</ele><time>2026-05-05T06:39:34Z</time></trkpt><trkpt lat="38.71751439358555" lon="16.28712903829299"><ele>273.57142857142856</ele><time>2026-05-05T06:39:39Z</time></trkpt><trkpt lat="38.71754222738901" lon="16.287056537300664"><ele>275.1428571428571</ele><time>2026-05-05T06:39:43Z</time></trkpt><trkpt lat="38.71759120372714" lon="16.286992890078878"><ele>276.7142857142857</ele><time>2026-05-05T06:39:49Z</time></trkpt><trkpt lat="38.71766616184032" lon="16.28695840791497"><ele>278.2857142857143</ele><time>2026-05-05T06:39:55Z</time></trkpt><trkpt lat="38.71773503482569" lon="16.286936308679273"><ele>279.8571428571429</ele><time>2026-05-05T06:40:01Z</time></trkpt><trkpt lat="38.71778994423736" lon="16.28689075604936"><ele>281.42857142857144</ele><time>2026-05-05T06:40:07Z</time></trkpt><trkpt lat="38.71783528669532" lon="16.286832451433728"><ele>283.0</ele><time>2026-05-05T06:40:11Z</time></trkpt><trkpt lat="38.717861455651466" lon="16.286758615151367"><ele>283.0</ele><time>2026-05-05T06:40:16Z</time></trkpt><trkpt lat="38.717891046364116" lon="16.286673789530873"><ele>283.0</ele><time>2026-05-05T06:40:21Z</time></trkpt><trkpt lat="38.71787203120927" lon="16.286584855498006"><ele>283.0</ele><time>2026-05-05T06:40:26Z</time></trkpt><trkpt lat="38.71786334128583" lon="16.286503233720634"><ele>283.0</ele><time>2026-05-05T06:40:31Z</time></trkpt><trkpt lat="38.717846642738124" lon="16.28641798075779"><ele>283.0</ele><time>2026-05-05T06:40:37Z</time></trkpt><trkpt lat="38.71781720157369" lon="16.286330997133586"><ele>283.0</ele><time>2026-05-05T06:40:43Z</time></trkpt><trkpt lat="38.71782306834296" lon="16.28625012287316"><ele>283.0</ele><time>2026-05-05T06:40:49Z</time></trkpt><trkpt lat="38.71781414989079" lon="16.286155757498914"><ele>280.7142857142857</ele><time>2026-05-05T06:40:56Z</time></trkpt><trkpt lat="38.71780948009907" lon="16.286062456522092"><ele>278.42857142857144</ele><time>2026-05-05T06:41:01Z</time></trkpt><trkpt lat="38.71779085643802" lon="16.285983889694965"><ele>276.14285714285717</ele><time>2026-05-05T06:41:06Z</time></trkpt><trkpt lat="38.71776800025755" lon="16.28589795253818"><ele>273.8571428571429</ele><time>2026-05-05T06:41:14Z</time></trkpt><trkpt lat="38.717732617467526" lon="16.28581864244298"><ele>271.57142857142856</ele><time>2026-05-05T06:41:19Z</time></trkpt><trkpt lat="38.71774453514097" lon="16.28572974633241"><ele>269.28571428571433</ele><time>2026-05-05T06:41:24Z</time></trkpt><trkpt lat="38.71778848512718" lon="16.285653996891256"><ele>267.0</ele><time>2026-05-05T06:41:31Z</time></trkpt><trkpt lat="38.71782587071938" lon="16.285586765354168"><ele>265.00000000000006</ele><time>2026-05-05T06:41:36Z</time></trkpt><trkpt lat="38.71784584785909" lon="16.285503762495964"><ele>263.0</ele><time>2026-05-05T06:41:41Z</time></trkpt><trkpt lat="38.71787815043326" lon="16.285430669523368"><ele>261.0</ele><time>2026-05-05T06:41:46Z</time></trkpt><trkpt lat="38.71791130982827" lon="16.285338295129254"><ele>259.0</ele><time>2026-05-05T06:41:50Z</time></trkpt><trkpt lat="38.7179282508358" lon="16.285256038125016"><ele>257.0</ele><time>2026-05-05T06:41:56Z</time></trkpt><trkpt lat="38.71793062822702" lon="16.2851640722669"><ele>255.00000000000003</ele><time>2026-05-05T06:42:01Z</time></trkpt><trkpt lat="38.717929923019554" lon="16.28507995703705"><ele>253.00000000000003</ele><time>2026-05-05T06:42:07Z</time></trkpt><trkpt lat="38.71795114567427" lon="16.284985298923264"><ele>252.99999999999997</ele><time>2026-05-05T06:42:13Z</time></trkpt><trkpt lat="38.71795566233399" lon="16.284888764236626"><ele>253.0</ele><time>2026-05-05T06:42:18Z</time></trkpt><trkpt lat="38.717973528371395" lon="16.284787784945674"><ele>253.0</ele><time>2026-05-05T06:42:24Z</time></trkpt><trkpt lat="38.71798036649947" lon="16.284695716797657"><ele>253.0</ele><time>2026-05-05T06:42:30Z</time></trkpt><trkpt lat="38.71799513672214" lon="16.284608026358345"><ele>252.99999999999997</ele><time>2026-05-05T06:42:36Z</time></trkpt><trkpt lat="38.71800863173875" lon="16.284523106067027"><ele>253.0</ele><time>2026-05-05T06:42:42Z</time></trkpt><trkpt lat="38.71801325387291" lon="16.284407930323194"><ele>251.71428571428575</ele><time>2026-05-05T06:42:46Z</time></trkpt><trkpt lat="38.7180306176162" lon="16.28432835135496"><ele>250.42857142857144</ele><time>2026-05-05T06:42:53Z</time></trkpt><trkpt lat="38.718054882752114" lon="16.284235210971005"><ele>249.14285714285714</ele><time>2026-05-05T06:42:58Z</time></trkpt><trkpt lat="38.718090503127094" lon="16.284159470329005"><ele>247.85714285714286</ele><time>2026-05-05T06:43:04Z</time></trkpt><trkpt lat="38.71812176831181" lon="16.284089381883906"><ele>246.57142857142856</ele><time>2026-05-05T06:43:09Z</time></trkpt><trkpt lat="38.71814119410921" lon="16.284007499918037"><ele>245.28571428571425</ele><time>2026-05-05T06:43:14Z</time></trkpt><trkpt lat="38.718171060770445" lon="16.28393004575096"><ele>243.99999999999997</ele><time>2026-05-05T06:43:19Z</time></trkpt><trkpt lat="38.718189465716534" lon="16.283851976594796"><ele>242.1428571428571</ele><time>2026-05-05T06:43:24Z</time></trkpt><trkpt lat="38.71820725743753" lon="16.283762357553528"><ele>240.28571428571428</ele><time>2026-05-05T06:43:29Z</time></trkpt><trkpt lat="38.718233350177286" lon="16.283683612287142"><ele>238.42857142857142</ele><time>2026-05-05T06:43:34Z</time></trkpt><trkpt lat="38.71826013210182" lon="16.28359783483811"><ele>236.57142857142856</ele><time>2026-05-05T06:43:39Z</time></trkpt><trkpt lat="38.718274198796976" lon="16.28351626832464"><ele>234.71428571428572</ele><time>2026-05-05T06:43:44Z</time></trkpt><trkpt lat="38.71828675233318" lon="16.2834289395298"><ele>232.85714285714286</ele><time>2026-05-05T06:43:49Z</time></trkpt><trkpt lat="38.71828713961407" lon="16.283336226446565"><ele>231.0</ele><time>2026-05-05T06:43:55Z</time></trkpt><trkpt lat="38.71827694996501" lon="16.283248537136707"><ele>231.0</ele><time>2026-05-05T06:44:00Z</time></trkpt><trkpt lat="38.71827609554699" lon="16.283159107717577"><ele>231.0</ele><time>2026-05-05T06:44:06Z</time></trkpt><trkpt lat="38.7182929744963" lon="16.283069479808677"><ele>231.0</ele><time>2026-05-05T06:44:12Z</time></trkpt><trkpt lat="38.7183162236771" lon="16.282973619456005"><ele>231.0</ele><time>2026-05-05T06:44:18Z</time></trkpt><trkpt lat="38.71834355645855" lon="16.282899007686666"><ele>231.0</ele><time>2026-05-05T06:44:23Z</time></trkpt><trkpt lat="38.71837519350937" lon="16.28280441561553"><ele>231.0</ele><time>2026-05-05T06:44:27Z</time></trkpt><trkpt lat="38.71840887412005" lon="16.28272182927355"><ele>231.0</ele><time>2026-05-05T06:44:33Z</time></trkpt><trkpt lat="38.718452102922754" lon="16.282654446056792"><ele>231.0</ele><time>2026-05-05T06:44:38Z</time></trkpt><trkpt lat="38.718495218049775" lon="16.282590186248893"><ele>231.0</ele><time>2026-05-05T06:44:43Z</time></trkpt><trkpt lat="38.71854782333225" lon="16.28253482417537"><ele>231.0</ele><time>2026-05-05T06:44:47.999Z</time></trkpt><trkpt lat="38.71860253703808" lon="16.28248357871218"><ele>231.0</ele><time>2026-05-05T06:44:53Z</time></trkpt><trkpt lat="38.718665564649925" lon="16.282424292273795"><ele>231.0</ele><time>2026-05-05T06:44:59Z</time></trkpt><trkpt lat="38.718712811439474" lon="16.28236278065822"><ele>231.0</ele><time>2026-05-05T06:45:04Z</time></trkpt><trkpt lat="38.718760895404124" lon="16.282302272428424"><ele>231.0</ele><time>2026-05-05T06:45:09Z</time></trkpt><trkpt lat="38.71880600617116" lon="16.282238762494426"><ele>229.42857142857142</ele><time>2026-05-05T06:45:14Z</time></trkpt><trkpt lat="38.718842739904936" lon="16.282171608659517"><ele>227.85714285714286</ele><time>2026-05-05T06:45:19Z</time></trkpt><trkpt lat="38.71889389831149" lon="16.28209802898143"><ele>226.28571428571428</ele><time>2026-05-05T06:45:25Z</time></trkpt><trkpt lat="38.718929614402754" lon="16.28201830626069"><ele>224.71428571428572</ele><time>2026-05-05T06:45:30Z</time></trkpt><trkpt lat="38.718974015115926" lon="16.281943954988858"><ele>223.14285714285714</ele><time>2026-05-05T06:45:35Z</time></trkpt><trkpt lat="38.71902427852299" lon="16.281874719907545"><ele>221.57142857142856</ele><time>2026-05-05T06:45:41Z</time></trkpt><trkpt lat="38.719071339899905" lon="16.281817001051405"><ele>220.0</ele><time>2026-05-05T06:45:46Z</time></trkpt><trkpt lat="38.71910395505915" lon="16.281747598713938"><ele>219.99999999999997</ele><time>2026-05-05T06:45:50Z</time></trkpt><trkpt lat="38.71914618327889" lon="16.281670032380138"><ele>220.0</ele><time>2026-05-05T06:45:55Z</time></trkpt><trkpt lat="38.71918242784598" lon="16.28159805286013"><ele>220.0</ele><time>2026-05-05T06:46:01Z</time></trkpt><trkpt lat="38.71923216498348" lon="16.281541192569843"><ele>220.0</ele><time>2026-05-05T06:46:07Z</time></trkpt><trkpt lat="38.719296811904826" lon="16.281467625362207"><ele>220.0</ele><time>2026-05-05T06:46:12Z</time></trkpt><trkpt lat="38.71933973385527" lon="16.281398748503573"><ele>219.99999999999997</ele><time>2026-05-05T06:46:17Z</time></trkpt><trkpt lat="38.71937188386256" lon="16.281322827679684"><ele>220.0</ele><time>2026-05-05T06:46:22Z</time></trkpt><trkpt lat="38.719401502370495" lon="16.2812505783533"><ele>218.85714285714283</ele><time>2026-05-05T06:46:27Z</time></trkpt><trkpt lat="38.71943450324401" lon="16.281162887903463"><ele>217.71428571428572</ele><time>2026-05-05T06:46:33Z</time></trkpt><trkpt lat="38.7194607760026" lon="16.281089277695745"><ele>216.57142857142856</ele><time>2026-05-05T06:46:38Z</time></trkpt><trkpt lat="38.71949079056947" lon="16.281012451694085"><ele>215.42857142857142</ele><time>2026-05-05T06:46:44Z</time></trkpt><trkpt lat="38.71953057996162" lon="16.280944516262494"><ele>214.28571428571428</ele><time>2026-05-05T06:46:49Z</time></trkpt><trkpt lat="38.7195590090914" lon="16.28086426261843"><ele>213.14285714285714</ele><time>2026-05-05T06:46:54.999Z</time></trkpt><trkpt lat="38.71960176006201" lon="16.280801203660413"><ele>212.0</ele><time>2026-05-05T06:46:59Z</time></trkpt><trkpt lat="38.71963899475689" lon="16.280731942721324"><ele>212.0</ele><time>2026-05-05T06:47:04Z</time></trkpt><trkpt lat="38.719676716489474" lon="16.280652407765213"><ele>212.0</ele><time>2026-05-05T06:47:10Z</time></trkpt><trkpt lat="38.71970491355147" lon="16.280574818085956"><ele>212.0</ele><time>2026-05-05T06:47:15Z</time></trkpt><trkpt lat="38.71973754443264" lon="16.280492448857455"><ele>212.0</ele><time>2026-05-05T06:47:21Z</time></trkpt><trkpt lat="38.719781377724416" lon="16.280424720173002"><ele>212.0</ele><time>2026-05-05T06:47:27Z</time></trkpt><trkpt lat="38.719821490075006" lon="16.280348898769468"><ele>212.0</ele><time>2026-05-05T06:47:33Z</time></trkpt><trkpt lat="38.719865429353966" lon="16.280266821290827"><ele>212.0</ele><time>2026-05-05T06:47:39Z</time></trkpt><trkpt lat="38.719898234269756" lon="16.28018787336836"><ele>212.42857142857144</ele><time>2026-05-05T06:47:46Z</time></trkpt><trkpt lat="38.71993570623173" lon="16.28011313513858"><ele>212.85714285714283</ele><time>2026-05-05T06:47:52Z</time></trkpt><trkpt lat="38.719976545249324" lon="16.28003456519225"><ele>213.28571428571428</ele><time>2026-05-05T06:47:58Z</time></trkpt><trkpt lat="38.72002884327978" lon="16.27996630103572"><ele>213.71428571428572</ele><time>2026-05-05T06:48:04Z</time></trkpt><trkpt lat="38.72006254639402" lon="16.27989401737935"><ele>214.14285714285717</ele><time>2026-05-05T06:48:09Z</time></trkpt><trkpt lat="38.720095940633854" lon="16.279825444957982"><ele>214.57142857142856</ele><time>2026-05-05T06:48:14Z</time></trkpt><trkpt lat="38.72011315301134" lon="16.27974702482385"><ele>215.0</ele><time>2026-05-05T06:48:19Z</time></trkpt><trkpt lat="38.7201620454276" lon="16.27969171192429"><ele>214.7142857142857</ele><time>2026-05-05T06:48:23Z</time></trkpt><trkpt lat="38.72020090152744" lon="16.279614045304992"><ele>214.42857142857144</ele><time>2026-05-05T06:48:28Z</time></trkpt><trkpt lat="38.72025152436161" lon="16.279553289412302"><ele>214.14285714285714</ele><time>2026-05-05T06:48:34Z</time></trkpt><trkpt lat="38.72029815807509" lon="16.27948581688591"><ele>213.85714285714283</ele><time>2026-05-05T06:48:39Z</time></trkpt><trkpt lat="38.72035721287177" lon="16.279410456249312"><ele>213.57142857142856</ele><time>2026-05-05T06:48:45Z</time></trkpt><trkpt lat="38.720390178942594" lon="16.27932540893811"><ele>213.28571428571428</ele><time>2026-05-05T06:48:50Z</time></trkpt><trkpt lat="38.720410997978775" lon="16.27924303002766"><ele>213.0</ele><time>2026-05-05T06:48:56Z</time></trkpt><trkpt lat="38.7204439522209" lon="16.27914939676966"><ele>212.99999999999997</ele><time>2026-05-05T06:49:02Z</time></trkpt><trkpt lat="38.72047041608183" lon="16.279075575830387"><ele>213.0</ele><time>2026-05-05T06:49:06Z</time></trkpt><trkpt lat="38.72051704466553" lon="16.279006559384328"><ele>213.0</ele><time>2026-05-05T06:49:11Z</time></trkpt><trkpt lat="38.720553957702634" lon="16.278922022482963"><ele>213.0</ele><time>2026-05-05T06:49:17Z</time></trkpt><trkpt lat="38.72059224940945" lon="16.278843375388114"><ele>213.0</ele><time>2026-05-05T06:49:22Z</time></trkpt><trkpt lat="38.72062092394674" lon="16.278765145714214"><ele>212.99999999999997</ele><time>2026-05-05T06:49:27Z</time></trkpt><trkpt lat="38.720660134195256" lon="16.27869619026329"><ele>213.0</ele><time>2026-05-05T06:49:32Z</time></trkpt><trkpt lat="38.7206929188423" lon="16.278620631825408"><ele>213.14285714285714</ele><time>2026-05-05T06:49:37Z</time></trkpt><trkpt lat="38.72074249792373" lon="16.278556770794427"><ele>213.28571428571428</ele><time>2026-05-05T06:49:42Z</time></trkpt><trkpt lat="38.720778425646785" lon="16.278489646103317"><ele>213.42857142857144</ele><time>2026-05-05T06:49:47Z</time></trkpt><trkpt lat="38.720806802860466" lon="16.27840051477599"><ele>213.57142857142856</ele><time>2026-05-05T06:49:52Z</time></trkpt><trkpt lat="38.7208469577682" lon="16.278334333782958"><ele>213.71428571428572</ele><time>2026-05-05T06:49:56Z</time></trkpt><trkpt lat="38.720882633572586" lon="16.27825272283718"><ele>213.85714285714286</ele><time>2026-05-05T06:50:02Z</time></trkpt><trkpt lat="38.720927866157176" lon="16.278196540627736"><ele>214.0</ele><time>2026-05-05T06:50:06Z</time></trkpt><trkpt lat="38.72096399128013" lon="16.278122337980783"><ele>214.14285714285717</ele><time>2026-05-05T06:50:11Z</time></trkpt><trkpt lat="38.72104494954229" lon="16.278071205391125"><ele>214.28571428571428</ele><time>2026-05-05T06:50:18Z</time></trkpt><trkpt lat="38.72110352305853" lon="16.27802779953367"><ele>214.42857142857144</ele><time>2026-05-05T06:50:23Z</time></trkpt><trkpt lat="38.72113977085443" lon="16.277948119477625"><ele>214.57142857142858</ele><time>2026-05-05T06:50:30Z</time></trkpt><trkpt lat="38.721197441816145" lon="16.277887369144086"><ele>214.71428571428572</ele><time>2026-05-05T06:50:37Z</time></trkpt><trkpt lat="38.72123624562429" lon="16.277813032575615"><ele>214.85714285714286</ele><time>2026-05-05T06:50:42Z</time></trkpt><trkpt lat="38.721295141110666" lon="16.2777533180424"><ele>215.0</ele><time>2026-05-05T06:50:48Z</time></trkpt><trkpt lat="38.721351596981734" lon="16.277697833521824"><ele>215.0</ele><time>2026-05-05T06:50:54Z</time></trkpt><trkpt lat="38.72139698463872" lon="16.277634717422366"><ele>215.0</ele><time>2026-05-05T06:50:59Z</time></trkpt><trkpt lat="38.721460151296085" lon="16.277580387987115"><ele>215.0</ele><time>2026-05-05T06:51:04Z</time></trkpt><trkpt lat="38.72150281793405" lon="16.277512398046685"><ele>215.0</ele><time>2026-05-05T06:51:10Z</time></trkpt><trkpt lat="38.72154409894205" lon="16.277450993629515"><ele>215.0</ele><time>2026-05-05T06:51:15Z</time></trkpt><trkpt lat="38.72158203383346" lon="16.27738554823377"><ele>215.0</ele><time>2026-05-05T06:51:20Z</time></trkpt><trkpt lat="38.721628567730235" lon="16.277317811052075"><ele>215.0</ele><time>2026-05-05T06:51:26Z</time></trkpt><trkpt lat="38.721685486837984" lon="16.27725120481377"><ele>216.33333333333334</ele><time>2026-05-05T06:51:32Z</time></trkpt><trkpt lat="38.72176894398912" lon="16.277201197704084"><ele>217.66666666666669</ele><time>2026-05-05T06:51:39Z</time></trkpt><trkpt lat="38.72182916024962" lon="16.27717414280521"><ele>219.0</ele><time>2026-05-05T06:51:45Z</time></trkpt><trkpt lat="38.72189217001499" lon="16.277152217522744"><ele>220.33333333333331</ele><time>2026-05-05T06:51:50Z</time></trkpt><trkpt lat="38.721972478835056" lon="16.2771387873902"><ele>221.66666666666666</ele><time>2026-05-05T06:51:57Z</time></trkpt><trkpt lat="38.72204740277507" lon="16.277127093436384"><ele>223.0</ele><time>2026-05-05T06:52:03Z</time></trkpt><trkpt lat="38.722120834822476" lon="16.277119900891865"><ele>219.83333333333331</ele><time>2026-05-05T06:52:09Z</time></trkpt><trkpt lat="38.72221848360442" lon="16.277108986831497"><ele>216.66666666666666</ele><time>2026-05-05T06:52:17Z</time></trkpt><trkpt lat="38.72228127111548" lon="16.27708639303144"><ele>213.5</ele><time>2026-05-05T06:52:25Z</time></trkpt><trkpt lat="38.722349430437546" lon="16.277083244051305"><ele>210.33333333333331</ele><time>2026-05-05T06:52:33Z</time></trkpt><trkpt lat="38.722411665673825" lon="16.27709997195003"><ele>207.16666666666666</ele><time>2026-05-05T06:52:37Z</time></trkpt><trkpt lat="38.722482139730865" lon="16.2771400624252"><ele>204.0</ele><time>2026-05-05T06:52:43Z</time></trkpt><trkpt lat="38.722550853059175" lon="16.27719141873379"><ele>204.0</ele><time>2026-05-05T06:52:53Z</time></trkpt><trkpt lat="38.722613544078776" lon="16.277223324357223"><ele>204.0</ele><time>2026-05-05T06:53:00Z</time></trkpt><trkpt lat="38.72267619397587" lon="16.277248802143745"><ele>204.0</ele><time>2026-05-05T06:53:05Z</time></trkpt><trkpt lat="38.72276941873731" lon="16.277245677498136"><ele>204.0</ele><time>2026-05-05T06:53:13Z</time></trkpt><trkpt lat="38.722835557613635" lon="16.277236475231966"><ele>204.0</ele><time>2026-05-05T06:53:19Z</time></trkpt><trkpt lat="38.7229002906029" lon="16.27722323119107"><ele>204.0</ele><time>2026-05-05T06:53:26Z</time></trkpt><trkpt lat="38.7229743870085" lon="16.277204190223944"><ele>204.0</ele><time>2026-05-05T06:53:34Z</time></trkpt><trkpt lat="38.723034036361646" lon="16.277172319996794"><ele>199.71428571428572</ele><time>2026-05-05T06:53:40Z</time></trkpt><trkpt lat="38.72310613156896" lon="16.277149587369518"><ele>195.42857142857144</ele><time>2026-05-05T06:53:47Z</time></trkpt><trkpt lat="38.723174174128935" lon="16.27713430962325"><ele>191.14285714285714</ele><time>2026-05-05T06:53:53Z</time></trkpt><trkpt lat="38.72323135642522" lon="16.27709106331203"><ele>186.85714285714286</ele><time>2026-05-05T06:54:00Z</time></trkpt><trkpt lat="38.72329219872691" lon="16.27706508916925"><ele>182.57142857142858</ele><time>2026-05-05T06:54:07Z</time></trkpt><trkpt lat="38.723341193784336" lon="16.277008428936753"><ele>178.28571428571428</ele><time>2026-05-05T06:54:15Z</time></trkpt><trkpt lat="38.723391326786796" lon="16.27692597611943"><ele>174.0</ele><time>2026-05-05T06:54:23Z</time></trkpt><trkpt lat="38.723427460416794" lon="16.27685619262844"><ele>174.0</ele><time>2026-05-05T06:54:31Z</time></trkpt><trkpt lat="38.72347110485439" lon="16.276795986436852"><ele>174.0</ele><time>2026-05-05T06:54:38Z</time></trkpt><trkpt lat="38.72354849895383" lon="16.276793923454075"><ele>174.0</ele><time>2026-05-05T06:54:46Z</time></trkpt><trkpt lat="38.72360123321457" lon="16.276838673191165"><ele>174.0</ele><time>2026-05-05T06:54:54Z</time></trkpt><trkpt lat="38.72366122052963" lon="16.276865063048014"><ele>174.0</ele><time>2026-05-05T06:55:00Z</time></trkpt><trkpt lat="38.723717423507765" lon="16.276909767372658"><ele>174.0</ele><time>2026-05-05T06:55:08Z</time></trkpt><trkpt lat="38.72377272393057" lon="16.276950639550034"><ele>174.0</ele><time>2026-05-05T06:55:14Z</time></trkpt><trkpt lat="38.72382137042821" lon="16.277013029063987"><ele>169.42857142857142</ele><time>2026-05-05T06:55:22Z</time></trkpt><trkpt lat="38.72385322707829" lon="16.27709308716428"><ele>164.85714285714286</ele><time>2026-05-05T06:55:29Z</time></trkpt><trkpt lat="38.72385889884367" lon="16.277187120070103"><ele>160.28571428571428</ele><time>2026-05-05T06:55:37Z</time></trkpt><trkpt lat="38.72384393270554" lon="16.277266780008365"><ele>155.71428571428572</ele><time>2026-05-05T06:55:43Z</time></trkpt><trkpt lat="38.72379777259183" lon="16.27732594776238"><ele>151.14285714285714</ele><time>2026-05-05T06:55:50Z</time></trkpt><trkpt lat="38.72374637936491" lon="16.277401237128455"><ele>146.57142857142856</ele><time>2026-05-05T06:55:56Z</time></trkpt><trkpt lat="38.723731037426504" lon="16.27748622028648"><ele>142.0</ele><time>2026-05-05T06:56:03Z</time></trkpt><trkpt lat="38.723781148950394" lon="16.277553267475586"><ele>141.85714285714286</ele><time>2026-05-05T06:56:13Z</time></trkpt><trkpt lat="38.72385827453965" lon="16.277568200876704"><ele>141.7142857142857</ele><time>2026-05-05T06:56:27Z</time></trkpt><trkpt lat="38.723921614467244" lon="16.277557619984194"><ele>141.57142857142856</ele><time>2026-05-05T06:56:36Z</time></trkpt><trkpt lat="38.723980883574285" lon="16.27752015493178"><ele>141.42857142857142</ele><time>2026-05-05T06:56:43Z</time></trkpt><trkpt lat="38.72403474791113" lon="16.277472321732205"><ele>141.28571428571428</ele><time>2026-05-05T06:56:51Z</time></trkpt><trkpt lat="38.7240993834197" lon="16.277436069517336"><ele>141.14285714285714</ele><time>2026-05-05T06:56:58Z</time></trkpt><trkpt lat="38.72415432781636" lon="16.277396620564502"><ele>141.0</ele><time>2026-05-05T06:57:08Z</time></trkpt><trkpt lat="38.72421907007001" lon="16.277354715232512"><ele>141.0</ele><time>2026-05-05T06:57:15Z</time></trkpt><trkpt lat="38.72427809217156" lon="16.277314233225564"><ele>141.0</ele><time>2026-05-05T06:57:22Z</time></trkpt><trkpt lat="38.72433845717149" lon="16.2772692840587"><ele>141.0</ele><time>2026-05-05T06:57:29Z</time></trkpt><trkpt lat="38.7243915885965" lon="16.277215049402685"><ele>141.0</ele><time>2026-05-05T06:57:35Z</time></trkpt><trkpt lat="38.724416589397556" lon="16.277125748363783"><ele>141.0</ele><time>2026-05-05T06:57:43Z</time></trkpt><trkpt lat="38.724476109175804" lon="16.277087249003724"><ele>141.0</ele><time>2026-05-05T06:57:48Z</time></trkpt><trkpt lat="38.72451372323881" lon="16.277020886615162"><ele>141.0</ele><time>2026-05-05T06:57:56Z</time></trkpt><trkpt lat="38.72457312013129" lon="16.276979804326295"><ele>138.57142857142858</ele><time>2026-05-05T06:58:01Z</time></trkpt><trkpt lat="38.724631506852404" lon="16.27693646154106"><ele>136.14285714285714</ele><time>2026-05-05T06:58:08Z</time></trkpt><trkpt lat="38.72467420030225" lon="16.27686494645193"><ele>133.71428571428572</ele><time>2026-05-05T06:58:17Z</time></trkpt><trkpt lat="38.724727957937894" lon="16.27681207297168"><ele>131.28571428571428</ele><time>2026-05-05T06:58:25Z</time></trkpt><trkpt lat="38.72476603804758" lon="16.276745454065697"><ele>128.85714285714286</ele><time>2026-05-05T06:58:32Z</time></trkpt><trkpt lat="38.724820365645094" lon="16.276702779073155"><ele>126.42857142857143</ele><time>2026-05-05T06:58:39Z</time></trkpt><trkpt lat="38.72487512075477" lon="16.27664211272413"><ele>124.0</ele><time>2026-05-05T06:58:45Z</time></trkpt><trkpt lat="38.72491359840005" lon="16.27656909073646"><ele>124.00000000000001</ele><time>2026-05-05T06:58:51Z</time></trkpt><trkpt lat="38.72504131382439" lon="16.276542427763708"><ele>124.0</ele><time>2026-05-05T06:59:02Z</time></trkpt><trkpt lat="38.725113237694465" lon="16.27654701296376"><ele>124.0</ele><time>2026-05-05T06:59:08Z</time></trkpt><trkpt lat="38.725174487329454" lon="16.276569778577333"><ele>124.0</ele><time>2026-05-05T06:59:12Z</time></trkpt><trkpt lat="38.725244113579535" lon="16.2766305649949"><ele>124.00000000000001</ele><time>2026-05-05T06:59:19Z</time></trkpt><trkpt lat="38.72531278880325" lon="16.27670025074179"><ele>124.0</ele><time>2026-05-05T06:59:24Z</time></trkpt><trkpt lat="38.72536672901524" lon="16.27675388479103"><ele>123.57142857142858</ele><time>2026-05-05T06:59:30Z</time></trkpt><trkpt lat="38.72543018476824" lon="16.276810098612184"><ele>123.14285714285715</ele><time>2026-05-05T06:59:36Z</time></trkpt><trkpt lat="38.72550253278402" lon="16.276870409768012"><ele>122.71428571428572</ele><time>2026-05-05T06:59:42Z</time></trkpt><trkpt lat="38.72556783836082" lon="16.27687982627237"><ele>122.28571428571428</ele><time>2026-05-05T06:59:47Z</time></trkpt><trkpt lat="38.725642943683795" lon="16.27687208330981"><ele>121.85714285714285</ele><time>2026-05-05T06:59:51Z</time></trkpt><trkpt lat="38.72570705390295" lon="16.276862942027083"><ele>121.42857142857142</ele><time>2026-05-05T06:59:56Z</time></trkpt><trkpt lat="38.725756383255934" lon="16.276805679288817"><ele>121.0</ele><time>2026-05-05T07:00:01Z</time></trkpt><trkpt lat="38.72579793135065" lon="16.276731033638082"><ele>121.0</ele><time>2026-05-05T07:00:07Z</time></trkpt><trkpt lat="38.72585119545545" lon="16.276673682475646"><ele>120.99999999999999</ele><time>2026-05-05T07:00:13Z</time></trkpt><trkpt lat="38.72590376945348" lon="16.276620965167325"><ele>121.0</ele><time>2026-05-05T07:00:19Z</time></trkpt><trkpt lat="38.72595297465405" lon="16.27656325697443"><ele>121.0</ele><time>2026-05-05T07:00:24Z</time></trkpt><trkpt lat="38.7260101748681" lon="16.276510582968747"><ele>120.99999999999999</ele><time>2026-05-05T07:00:29Z</time></trkpt><trkpt lat="38.726082907332476" lon="16.27646907645469"><ele>121.0</ele><time>2026-05-05T07:00:35Z</time></trkpt><trkpt lat="38.726136411732774" lon="16.276420376587318"><ele>121.0</ele><time>2026-05-05T07:00:40Z</time></trkpt><trkpt lat="38.72620920802605" lon="16.276378588878178"><ele>121.0</ele><time>2026-05-05T07:00:46Z</time></trkpt><trkpt lat="38.72625889633776" lon="16.276279864392894"><ele>120.99999999999999</ele><time>2026-05-05T07:00:52Z</time></trkpt><trkpt lat="38.726314073054" lon="16.2762333467923"><ele>121.0</ele><time>2026-05-05T07:00:58Z</time></trkpt><trkpt lat="38.726370527031975" lon="16.276194620429052"><ele>121.0</ele><time>2026-05-05T07:01:02Z</time></trkpt><trkpt lat="38.72641397295188" lon="16.27612877036633"><ele>120.99999999999999</ele><time>2026-05-05T07:01:07Z</time></trkpt><trkpt lat="38.726477834080065" lon="16.276089721582725"><ele>121.0</ele><time>2026-05-05T07:01:12Z</time></trkpt><trkpt lat="38.72654964638996" lon="16.276067948825307"><ele>121.0</ele><time>2026-05-05T07:01:17Z</time></trkpt><trkpt lat="38.72661114346429" lon="16.276036718944148"><ele>121.0</ele><time>2026-05-05T07:01:22Z</time></trkpt><trkpt lat="38.726662089681476" lon="16.275985869576438"><ele>120.99999999999999</ele><time>2026-05-05T07:01:27Z</time></trkpt><trkpt lat="38.72672714908684" lon="16.27594597436176"><ele>121.0</ele><time>2026-05-05T07:01:32Z</time></trkpt><trkpt lat="38.72678510979435" lon="16.27587552589239"><ele>121.0</ele><time>2026-05-05T07:01:38Z</time></trkpt><trkpt lat="38.72682684952402" lon="16.27581102361698"><ele>120.99999999999999</ele><time>2026-05-05T07:01:43Z</time></trkpt><trkpt lat="38.726887802851486" lon="16.27577547545887"><ele>121.0</ele><time>2026-05-05T07:01:48Z</time></trkpt><trkpt lat="38.726941726987306" lon="16.275728162116966"><ele>121.0</ele><time>2026-05-05T07:01:54Z</time></trkpt><trkpt lat="38.7270104349358" lon="16.27569378093032"><ele>119.57142857142857</ele><time>2026-05-05T07:02:00Z</time></trkpt><trkpt lat="38.727077926411624" lon="16.275656750449812"><ele>118.14285714285714</ele><time>2026-05-05T07:02:04Z</time></trkpt><trkpt lat="38.72713908390808" lon="16.275621697995355"><ele>116.71428571428571</ele><time>2026-05-05T07:02:09Z</time></trkpt><trkpt lat="38.727207827619964" lon="16.275582054381083"><ele>115.28571428571428</ele><time>2026-05-05T07:02:14Z</time></trkpt><trkpt lat="38.727270287826116" lon="16.275530297550798"><ele>113.85714285714286</ele><time>2026-05-05T07:02:20Z</time></trkpt><trkpt lat="38.72732245439987" lon="16.275468616938763"><ele>112.42857142857142</ele><time>2026-05-05T07:02:25Z</time></trkpt><trkpt lat="38.72737489284747" lon="16.275407977570385"><ele>111.0</ele><time>2026-05-05T07:02:30Z</time></trkpt><trkpt lat="38.727427900392314" lon="16.275344724572825"><ele>111.0</ele><time>2026-05-05T07:02:35Z</time></trkpt><trkpt lat="38.727462156987755" lon="16.27526517306719"><ele>111.0</ele><time>2026-05-05T07:02:40Z</time></trkpt><trkpt lat="38.72751702297232" lon="16.27520924493285"><ele>111.0</ele><time>2026-05-05T07:02:46Z</time></trkpt><trkpt lat="38.72756793973311" lon="16.275145303972135"><ele>111.0</ele><time>2026-05-05T07:02:51Z</time></trkpt><trkpt lat="38.72763203334331" lon="16.275104445871136"><ele>111.0</ele><time>2026-05-05T07:02:57Z</time></trkpt><trkpt lat="38.727693507162066" lon="16.275069907992105"><ele>111.0</ele><time>2026-05-05T07:03:02Z</time></trkpt><trkpt lat="38.727763754863545" lon="16.27505590311178"><ele>111.0</ele><time>2026-05-05T07:03:07Z</time></trkpt><trkpt lat="38.72784884937299" lon="16.27501442227751"><ele>113.83333333333333</ele><time>2026-05-05T07:03:14Z</time></trkpt><trkpt lat="38.72790601011618" lon="16.274973112057364"><ele>116.66666666666666</ele><time>2026-05-05T07:03:20Z</time></trkpt><trkpt lat="38.72797621341555" lon="16.274931161788622"><ele>119.5</ele><time>2026-05-05T07:03:26Z</time></trkpt><trkpt lat="38.72808590727951" lon="16.274920777730905"><ele>122.33333333333333</ele><time>2026-05-05T07:03:35Z</time></trkpt><trkpt lat="38.728157747872395" lon="16.274872053921417"><ele>125.16666666666666</ele><time>2026-05-05T07:03:41Z</time></trkpt><trkpt lat="38.728255249654076" lon="16.274840013404162"><ele>128.0</ele><time>2026-05-05T07:03:48Z</time></trkpt><trkpt lat="38.728320958594686" lon="16.27482279558219"><ele>125.83333333333333</ele><time>2026-05-05T07:03:54Z</time></trkpt><trkpt lat="38.728375660055335" lon="16.274767956783446"><ele>123.66666666666666</ele><time>2026-05-05T07:04:00Z</time></trkpt><trkpt lat="38.72842736286041" lon="16.274720745591054"><ele>121.5</ele><time>2026-05-05T07:04:05Z</time></trkpt><trkpt lat="38.72851612469397" lon="16.274665211920592"><ele>119.33333333333334</ele><time>2026-05-05T07:04:13Z</time></trkpt><trkpt lat="38.72857691410983" lon="16.274636698572984"><ele>117.16666666666667</ele><time>2026-05-05T07:04:19Z</time></trkpt><trkpt lat="38.728638047704365" lon="16.274593283261098"><ele>115.0</ele><time>2026-05-05T07:04:24Z</time></trkpt><trkpt lat="38.72872003829073" lon="16.274556666107667"><ele>115.00000000000001</ele><time>2026-05-05T07:04:31Z</time></trkpt><trkpt lat="38.72879173899715" lon="16.274522662950154"><ele>115.0</ele><time>2026-05-05T07:04:38Z</time></trkpt><trkpt lat="38.72888027320357" lon="16.274509984309777"><ele>115.0</ele><time>2026-05-05T07:04:45Z</time></trkpt><trkpt lat="38.728943850373284" lon="16.274481169270373"><ele>115.0</ele><time>2026-05-05T07:04:51Z</time></trkpt><trkpt lat="38.72902697616617" lon="16.27446407889949"><ele>115.00000000000001</ele><time>2026-05-05T07:05:13Z</time></trkpt><trkpt lat="38.72910239925174" lon="16.27444625984689"><ele>115.0</ele><time>2026-05-05T07:05:20Z</time></trkpt><trkpt lat="38.729165801107605" lon="16.27443041972757"><ele>114.99999999999999</ele><time>2026-05-05T07:05:25Z</time></trkpt><trkpt lat="38.72922519314378" lon="16.274461327650375"><ele>115.0</ele><time>2026-05-05T07:05:32Z</time></trkpt><trkpt lat="38.72925414387078" lon="16.274595999918557"><ele>114.99999999999999</ele><time>2026-05-05T07:05:44Z</time></trkpt><trkpt lat="38.72924828640975" lon="16.274677313688642"><ele>114.99999999999999</ele><time>2026-05-05T07:05:52Z</time></trkpt><trkpt lat="38.72923090762457" lon="16.274761873451833"><ele>115.0</ele><time>2026-05-05T07:05:58Z</time></trkpt><trkpt lat="38.72921340392754" lon="16.274843616381915"><ele>114.99999999999999</ele><time>2026-05-05T07:06:05Z</time></trkpt><trkpt lat="38.729213267868076" lon="16.27493317826163"><ele>114.99999999999999</ele><time>2026-05-05T07:06:11Z</time></trkpt><trkpt lat="38.729223196907625" lon="16.275028946825962"><ele>114.14285714285712</ele><time>2026-05-05T07:06:18Z</time></trkpt><trkpt lat="38.729270481355215" lon="16.27510510611511"><ele>113.28571428571428</ele><time>2026-05-05T07:06:23Z</time></trkpt><trkpt lat="38.729281028475086" lon="16.275186679307556"><ele>112.42857142857142</ele><time>2026-05-05T07:06:30Z</time></trkpt><trkpt lat="38.72930555404708" lon="16.27527114876128"><ele>111.57142857142856</ele><time>2026-05-05T07:06:37Z</time></trkpt><trkpt lat="38.72934826693952" lon="16.275341208758444"><ele>110.71428571428572</ele><time>2026-05-05T07:06:43Z</time></trkpt><trkpt lat="38.72938304799316" lon="16.27541815309485"><ele>109.85714285714286</ele><time>2026-05-05T07:06:49Z</time></trkpt><trkpt lat="38.72943872929691" lon="16.27546465146905"><ele>109.0</ele><time>2026-05-05T07:06:54Z</time></trkpt><trkpt lat="38.72958707725534" lon="16.275480163574255"><ele>109.0</ele><time>2026-05-05T07:07:04Z</time></trkpt><trkpt lat="38.72966167930009" lon="16.275452987608986"><ele>109.0</ele><time>2026-05-05T07:07:09Z</time></trkpt><trkpt lat="38.72972099342166" lon="16.275423649467868"><ele>109.0</ele><time>2026-05-05T07:07:13Z</time></trkpt><trkpt lat="38.729776574610945" lon="16.275380891985375"><ele>109.0</ele><time>2026-05-05T07:07:18Z</time></trkpt><trkpt lat="38.72983086751856" lon="16.27532284576628"><ele>109.0</ele><time>2026-05-05T07:07:24Z</time></trkpt><trkpt lat="38.72987502195456" lon="16.275252168023776"><ele>109.0</ele><time>2026-05-05T07:07:30Z</time></trkpt><trkpt lat="38.72992112474736" lon="16.275178879146473"><ele>109.0</ele><time>2026-05-05T07:07:36Z</time></trkpt><trkpt lat="38.7299690575948" lon="16.275113482006628"><ele>109.0</ele><time>2026-05-05T07:07:42Z</time></trkpt><trkpt lat="38.73001557288258" lon="16.27505185979057"><ele>109.0</ele><time>2026-05-05T07:07:48Z</time></trkpt><trkpt lat="38.73008913098493" lon="16.275000074084204"><ele>109.0</ele><time>2026-05-05T07:07:55Z</time></trkpt><trkpt lat="38.73015623433735" lon="16.274973668146405"><ele>109.0</ele><time>2026-05-05T07:08:01Z</time></trkpt><trkpt lat="38.7302168467466" lon="16.274951253141815"><ele>109.0</ele><time>2026-05-05T07:08:07Z</time></trkpt><trkpt lat="38.730282440184844" lon="16.27493368294808"><ele>109.0</ele><time>2026-05-05T07:08:15Z</time></trkpt><trkpt lat="38.73035785333269" lon="16.274919831528354"><ele>109.0</ele><time>2026-05-05T07:08:21Z</time></trkpt><trkpt lat="38.730428647218666" lon="16.274897784721723"><ele>111.50000000000001</ele><time>2026-05-05T07:08:28Z</time></trkpt><trkpt lat="38.73049148729719" lon="16.27487812849576"><ele>114.0</ele><time>2026-05-05T07:08:34Z</time></trkpt><trkpt lat="38.7305640063995" lon="16.274849640720323"><ele>116.5</ele><time>2026-05-05T07:08:41Z</time></trkpt><trkpt lat="38.73062762224469" lon="16.274824999950347"><ele>119.0</ele><time>2026-05-05T07:08:48Z</time></trkpt><trkpt lat="38.730734396108865" lon="16.274812052475205"><ele>121.50000000000001</ele><time>2026-05-05T07:08:58Z</time></trkpt><trkpt lat="38.73079368310822" lon="16.27478122111922"><ele>124.0</ele><time>2026-05-05T07:09:10Z</time></trkpt><trkpt lat="38.73087328939892" lon="16.27477913273359"><ele>124.0</ele><time>2026-05-05T07:09:39Z</time></trkpt><trkpt lat="38.73098718102102" lon="16.27477950424067"><ele>124.0</ele><time>2026-05-05T07:09:52Z</time></trkpt><trkpt lat="38.73116061487512" lon="16.274808065989884"><ele>124.0</ele><time>2026-05-05T07:10:10Z</time></trkpt><trkpt lat="38.73122514686237" lon="16.274835078700942"><ele>124.0</ele><time>2026-05-05T07:10:17Z</time></trkpt><trkpt lat="38.73127927913915" lon="16.274896663029956"><ele>124.0</ele><time>2026-05-05T07:10:24Z</time></trkpt><trkpt lat="38.73133167625908" lon="16.27494581813104"><ele>126.0</ele><time>2026-05-05T07:10:30Z</time></trkpt><trkpt lat="38.73138935846724" lon="16.274998391153975"><ele>128.0</ele><time>2026-05-05T07:10:37Z</time></trkpt><trkpt lat="38.73143929225805" lon="16.275047687128854"><ele>130.0</ele><time>2026-05-05T07:10:44Z</time></trkpt><trkpt lat="38.73149852182085" lon="16.27507870424997"><ele>132.0</ele><time>2026-05-05T07:10:50Z</time></trkpt><trkpt lat="38.73156440556164" lon="16.275102711399427"><ele>134.0</ele><time>2026-05-05T07:10:56Z</time></trkpt><trkpt lat="38.73162714194208" lon="16.27508410455682"><ele>136.0</ele><time>2026-05-05T07:11:02Z</time></trkpt><trkpt lat="38.73168387405395" lon="16.275035464277707"><ele>138.0</ele><time>2026-05-05T07:11:08Z</time></trkpt><trkpt lat="38.73173822518352" lon="16.274970159824278"><ele>138.0</ele><time>2026-05-05T07:11:15Z</time></trkpt><trkpt lat="38.73180413680887" lon="16.27486633912039"><ele>138.0</ele><time>2026-05-05T07:11:43Z</time></trkpt><trkpt lat="38.73184860942274" lon="16.274796644519515"><ele>138.0</ele><time>2026-05-05T07:11:48Z</time></trkpt><trkpt lat="38.73191207637137" lon="16.274747142265518"><ele>138.0</ele><time>2026-05-05T07:11:55Z</time></trkpt><trkpt lat="38.73196142297513" lon="16.27469670068504"><ele>138.0</ele><time>2026-05-05T07:12:01Z</time></trkpt><trkpt lat="38.73203132963522" lon="16.274670394336486"><ele>138.0</ele><time>2026-05-05T07:12:08Z</time></trkpt><trkpt lat="38.73209820575436" lon="16.274643633580844"><ele>139.57142857142858</ele><time>2026-05-05T07:12:14Z</time></trkpt><trkpt lat="38.73216290758643" lon="16.27459523695484"><ele>141.14285714285717</ele><time>2026-05-05T07:12:20Z</time></trkpt><trkpt lat="38.73221640018403" lon="16.274550336556675"><ele>142.71428571428572</ele><time>2026-05-05T07:12:26Z</time></trkpt><trkpt lat="38.7322773506012" lon="16.2745080993245"><ele>144.28571428571428</ele><time>2026-05-05T07:12:32Z</time></trkpt><trkpt lat="38.73233048690539" lon="16.2744571616905"><ele>145.85714285714283</ele><time>2026-05-05T07:12:37Z</time></trkpt><trkpt lat="38.73238505641128" lon="16.274403686408963"><ele>147.42857142857142</ele><time>2026-05-05T07:12:43Z</time></trkpt><trkpt lat="38.732429731714596" lon="16.274346011258075"><ele>149.0</ele><time>2026-05-05T07:12:49Z</time></trkpt><trkpt lat="38.7324746671982" lon="16.274284674229115"><ele>149.0</ele><time>2026-05-05T07:12:55Z</time></trkpt><trkpt lat="38.732528995049265" lon="16.27422594578223"><ele>149.0</ele><time>2026-05-05T07:13:02Z</time></trkpt><trkpt lat="38.7325904770285" lon="16.274171074937758"><ele>149.0</ele><time>2026-05-05T07:13:12Z</time></trkpt><trkpt lat="38.732645957953636" lon="16.274117836092312"><ele>149.0</ele><time>2026-05-05T07:13:19Z</time></trkpt><trkpt lat="38.73270246275312" lon="16.27406436081925"><ele>149.0</ele><time>2026-05-05T07:13:26Z</time></trkpt><trkpt lat="38.7327607055947" lon="16.2740188977771"><ele>149.0</ele><time>2026-05-05T07:13:36Z</time></trkpt><trkpt lat="38.73282336674571" lon="16.273980184498114"><ele>149.0</ele><time>2026-05-05T07:13:43Z</time></trkpt><trkpt lat="38.73288127934727" lon="16.27393309362247"><ele>151.71428571428572</ele><time>2026-05-05T07:13:50Z</time></trkpt><trkpt lat="38.73297132533954" lon="16.273917485611697"><ele>154.42857142857142</ele><time>2026-05-05T07:14:03Z</time></trkpt><trkpt lat="38.73302512615213" lon="16.27386576544442"><ele>157.14285714285714</ele><time>2026-05-05T07:14:10Z</time></trkpt><trkpt lat="38.73308385465614" lon="16.273834949518932"><ele>159.85714285714286</ele><time>2026-05-05T07:14:24Z</time></trkpt><trkpt lat="38.733090121587296" lon="16.273739181230972"><ele>162.57142857142856</ele><time>2026-05-05T07:14:29Z</time></trkpt><trkpt lat="38.73306925653692" lon="16.27365440114738"><ele>165.28571428571428</ele><time>2026-05-05T07:14:36Z</time></trkpt><trkpt lat="38.73304407085745" lon="16.273580272640555"><ele>168.0</ele><time>2026-05-05T07:14:42Z</time></trkpt><trkpt lat="38.73301761124084" lon="16.27350249968579"><ele>168.0</ele><time>2026-05-05T07:14:48Z</time></trkpt><trkpt lat="38.7330018482416" lon="16.273410032959227"><ele>168.0</ele><time>2026-05-05T07:14:55Z</time></trkpt><trkpt lat="38.73297457621135" lon="16.273323160425534"><ele>168.0</ele><time>2026-05-05T07:15:00Z</time></trkpt><trkpt lat="38.73294433152086" lon="16.27325046222528"><ele>168.0</ele><time>2026-05-05T07:15:05Z</time></trkpt><trkpt lat="38.73292996549586" lon="16.273160250108198"><ele>168.0</ele><time>2026-05-05T07:15:11Z</time></trkpt><trkpt lat="38.73291729091701" lon="16.273058192852993"><ele>168.0</ele><time>2026-05-05T07:15:17Z</time></trkpt><trkpt lat="38.73290331330907" lon="16.272962366498483"><ele>168.0</ele><time>2026-05-05T07:15:23Z</time></trkpt><trkpt lat="38.73289899463077" lon="16.27286743719571"><ele>168.28571428571428</ele><time>2026-05-05T07:15:30Z</time></trkpt><trkpt lat="38.732881346934725" lon="16.27278474568479"><ele>168.57142857142856</ele><time>2026-05-05T07:15:35Z</time></trkpt><trkpt lat="38.73287806712593" lon="16.272686120517978"><ele>168.85714285714286</ele><time>2026-05-05T07:15:41Z</time></trkpt><trkpt lat="38.73286182120916" lon="16.272600343532204"><ele>169.14285714285714</ele><time>2026-05-05T07:15:46Z</time></trkpt><trkpt lat="38.732852886979586" lon="16.27250687731507"><ele>169.42857142857142</ele><time>2026-05-05T07:15:52Z</time></trkpt><trkpt lat="38.73283806378801" lon="16.2724166686845"><ele>169.71428571428572</ele><time>2026-05-05T07:15:58Z</time></trkpt><trkpt lat="38.7328295474418" lon="16.272320048796956"><ele>170.0</ele><time>2026-05-05T07:16:04Z</time></trkpt><trkpt lat="38.732815355209006" lon="16.272230559686246"><ele>170.2857142857143</ele><time>2026-05-05T07:16:10Z</time></trkpt><trkpt lat="38.7328111094616" lon="16.272143442379868"><ele>170.57142857142856</ele><time>2026-05-05T07:16:15Z</time></trkpt><trkpt lat="38.73279519758519" lon="16.272048908351987"><ele>170.85714285714286</ele><time>2026-05-05T07:16:21Z</time></trkpt><trkpt lat="38.732788777624485" lon="16.271952309338275"><ele>171.14285714285717</ele><time>2026-05-05T07:16:27Z</time></trkpt><trkpt lat="38.73277576851848" lon="16.27186453278211"><ele>171.42857142857144</ele><time>2026-05-05T07:16:33Z</time></trkpt><trkpt lat="38.73278276957807" lon="16.27178297481975"><ele>171.71428571428572</ele><time>2026-05-05T07:16:39Z</time></trkpt><trkpt lat="38.732787847965334" lon="16.27169671697963"><ele>172.0</ele><time>2026-05-05T07:16:44Z</time></trkpt><trkpt lat="38.73280186584996" lon="16.271603136775227"><ele>172.00000000000003</ele><time>2026-05-05T07:16:51Z</time></trkpt><trkpt lat="38.73282424914107" lon="16.27151492840428"><ele>172.0</ele><time>2026-05-05T07:16:57Z</time></trkpt><trkpt lat="38.73282452715048" lon="16.27141565705236"><ele>172.0</ele><time>2026-05-05T07:17:03Z</time></trkpt><trkpt lat="38.73282569883396" lon="16.271331893651727"><ele>172.0</ele><time>2026-05-05T07:17:08Z</time></trkpt><trkpt lat="38.73282537946993" lon="16.27123492700698"><ele>172.0</ele><time>2026-05-05T07:17:14Z</time></trkpt><trkpt lat="38.73283385628522" lon="16.27114972964242"><ele>172.00000000000003</ele><time>2026-05-05T07:17:20Z</time></trkpt><trkpt lat="38.732858259071286" lon="16.27105825052433"><ele>172.0</ele><time>2026-05-05T07:17:25Z</time></trkpt><trkpt lat="38.73288054670337" lon="16.270978863178268"><ele>172.2857142857143</ele><time>2026-05-05T07:17:31Z</time></trkpt><trkpt lat="38.73291698495472" lon="16.270902903405705"><ele>172.57142857142858</ele><time>2026-05-05T07:17:36Z</time></trkpt><trkpt lat="38.73294750013142" lon="16.270830610554423"><ele>172.85714285714286</ele><time>2026-05-05T07:17:41Z</time></trkpt><trkpt lat="38.732988666494784" lon="16.27076765403081"><ele>173.14285714285717</ele><time>2026-05-05T07:17:47Z</time></trkpt><trkpt lat="38.73302304392646" lon="16.270689708900875"><ele>173.42857142857144</ele><time>2026-05-05T07:17:52Z</time></trkpt><trkpt lat="38.73306805580178" lon="16.27060797497152"><ele>173.71428571428572</ele><time>2026-05-05T07:17:58Z</time></trkpt><trkpt lat="38.73308363522507" lon="16.270517835966583"><ele>174.0</ele><time>2026-05-05T07:18:04Z</time></trkpt><trkpt lat="38.73312065521461" lon="16.270444631723787"><ele>174.0</ele><time>2026-05-05T07:18:08Z</time></trkpt><trkpt lat="38.733114177063364" lon="16.270350371359125"><ele>174.0</ele><time>2026-05-05T07:18:14Z</time></trkpt><trkpt lat="38.733112031752995" lon="16.270262974920747"><ele>174.0</ele><time>2026-05-05T07:18:20Z</time></trkpt><trkpt lat="38.73309984196016" lon="16.270178640270995"><ele>174.0</ele><time>2026-05-05T07:18:36Z</time></trkpt><trkpt lat="38.733113565113364" lon="16.27009885863644"><ele>174.0</ele><time>2026-05-05T07:18:42Z</time></trkpt><trkpt lat="38.73313856226436" lon="16.27002345639252"><ele>174.0</ele><time>2026-05-05T07:18:47Z</time></trkpt><trkpt lat="38.73316525987663" lon="16.26993792952239"><ele>174.0</ele><time>2026-05-05T07:18:54Z</time></trkpt><trkpt lat="38.733205798881656" lon="16.269874676660397"><ele>174.0</ele><time>2026-05-05T07:18:58Z</time></trkpt><trkpt lat="38.733248887962304" lon="16.26980573103144"><ele>174.0</ele><time>2026-05-05T07:19:03Z</time></trkpt><trkpt lat="38.73328854739887" lon="16.269729258198833"><ele>174.0</ele><time>2026-05-05T07:19:09Z</time></trkpt><trkpt lat="38.733336333816396" lon="16.269675709927544"><ele>174.0</ele><time>2026-05-05T07:19:13Z</time></trkpt><trkpt lat="38.7333595514358" lon="16.26959141520507"><ele>174.0</ele><time>2026-05-05T07:19:19Z</time></trkpt><trkpt lat="38.73336576944522" lon="16.26950638216477"><ele>174.0</ele><time>2026-05-05T07:19:23Z</time></trkpt><trkpt lat="38.73338283629086" lon="16.26942402903515"><ele>174.0</ele><time>2026-05-05T07:19:29Z</time></trkpt><trkpt lat="38.73338609299743" lon="16.26934074735328"><ele>173.85714285714286</ele><time>2026-05-05T07:19:34Z</time></trkpt><trkpt lat="38.73338380269975" lon="16.269242407665146"><ele>173.71428571428572</ele><time>2026-05-05T07:19:41Z</time></trkpt><trkpt lat="38.73339143937427" lon="16.269142582549904"><ele>173.57142857142856</ele><time>2026-05-05T07:19:46Z</time></trkpt><trkpt lat="38.733364476997764" lon="16.26905846834289"><ele>173.42857142857144</ele><time>2026-05-05T07:19:52Z</time></trkpt><trkpt lat="38.733354495195066" lon="16.268965645372923"><ele>173.2857142857143</ele><time>2026-05-05T07:19:58Z</time></trkpt><trkpt lat="38.73334532989606" lon="16.268878323777457"><ele>173.14285714285714</ele><time>2026-05-05T07:20:05Z</time></trkpt><trkpt lat="38.73332973472658" lon="16.268793495610648"><ele>173.0</ele><time>2026-05-05T07:20:10Z</time></trkpt><trkpt lat="38.733311034204384" lon="16.268716323349246"><ele>173.42857142857142</ele><time>2026-05-05T07:20:15Z</time></trkpt><trkpt lat="38.73330498041812" lon="16.268628400243653"><ele>173.85714285714286</ele><time>2026-05-05T07:20:21Z</time></trkpt><trkpt lat="38.733289758240126" lon="16.268535368718467"><ele>174.28571428571428</ele><time>2026-05-05T07:20:28Z</time></trkpt><trkpt lat="38.73326684325334" lon="16.268454606071174"><ele>174.71428571428572</ele><time>2026-05-05T07:20:34Z</time></trkpt><trkpt lat="38.73325507892658" lon="16.26836108024688"><ele>175.14285714285714</ele><time>2026-05-05T07:20:41Z</time></trkpt><trkpt lat="38.73326771455467" lon="16.268265107201803"><ele>175.57142857142858</ele><time>2026-05-05T07:20:48Z</time></trkpt><trkpt lat="38.73328786578378" lon="16.268186000278938"><ele>176.0</ele><time>2026-05-05T07:20:53Z</time></trkpt><trkpt lat="38.73330853689423" lon="16.268089584711113"><ele>175.14285714285714</ele><time>2026-05-05T07:20:59Z</time></trkpt><trkpt lat="38.733331318468245" lon="16.268009051796167"><ele>174.28571428571428</ele><time>2026-05-05T07:21:04Z</time></trkpt><trkpt lat="38.73336368267412" lon="16.267919721978274"><ele>173.42857142857144</ele><time>2026-05-05T07:21:10Z</time></trkpt><trkpt lat="38.7333898491616" lon="16.26783455819366"><ele>172.57142857142856</ele><time>2026-05-05T07:21:16Z</time></trkpt><trkpt lat="38.73341600526277" lon="16.267761095570457"><ele>171.7142857142857</ele><time>2026-05-05T07:21:21Z</time></trkpt><trkpt lat="38.73347068422415" lon="16.26768984510408"><ele>170.85714285714286</ele><time>2026-05-05T07:21:26Z</time></trkpt><trkpt lat="38.733504762617905" lon="16.267606788494994"><ele>170.0</ele><time>2026-05-05T07:21:32Z</time></trkpt><trkpt lat="38.73354375067709" lon="16.267541695324415"><ele>172.85714285714286</ele><time>2026-05-05T07:21:37Z</time></trkpt><trkpt lat="38.73357746426167" lon="16.267469753287408"><ele>175.7142857142857</ele><time>2026-05-05T07:21:41Z</time></trkpt><trkpt lat="38.73361437516152" lon="16.26739246895754"><ele>178.57142857142856</ele><time>2026-05-05T07:21:48Z</time></trkpt><trkpt lat="38.73365473698708" lon="16.267317191585995"><ele>181.42857142857144</ele><time>2026-05-05T07:21:54Z</time></trkpt><trkpt lat="38.73369163009038" lon="16.26723551751771"><ele>184.28571428571428</ele><time>2026-05-05T07:22:00Z</time></trkpt><trkpt lat="38.73371941352024" lon="16.267161054002933"><ele>187.14285714285714</ele><time>2026-05-05T07:22:05Z</time></trkpt><trkpt lat="38.73373252749863" lon="16.267063858711193"><ele>190.0</ele><time>2026-05-05T07:22:11Z</time></trkpt><trkpt lat="38.73373181174465" lon="16.266982523087243"><ele>190.0</ele><time>2026-05-05T07:22:16Z</time></trkpt><trkpt lat="38.733725964644904" lon="16.266898417770825"><ele>190.0</ele><time>2026-05-05T07:22:21Z</time></trkpt><trkpt lat="38.733717918304485" lon="16.266817214064474"><ele>190.0</ele><time>2026-05-05T07:22:26Z</time></trkpt><trkpt lat="38.73371171774571" lon="16.266734440163944"><ele>190.0</ele><time>2026-05-05T07:22:31Z</time></trkpt><trkpt lat="38.73371242095536" lon="16.26663985109608"><ele>190.0</ele><time>2026-05-05T07:22:37Z</time></trkpt><trkpt lat="38.73370195189615" lon="16.266559072089155"><ele>190.0</ele><time>2026-05-05T07:22:43Z</time></trkpt><trkpt lat="38.733691174660436" lon="16.266467283746536"><ele>190.0</ele><time>2026-05-05T07:22:52Z</time></trkpt><trkpt lat="38.73367444200327" lon="16.266389114174853"><ele>189.57142857142858</ele><time>2026-05-05T07:22:57Z</time></trkpt><trkpt lat="38.733646658435944" lon="16.266312516297905"><ele>189.14285714285717</ele><time>2026-05-05T07:23:02Z</time></trkpt><trkpt lat="38.73362963663371" lon="16.266233992591854"><ele>188.71428571428572</ele><time>2026-05-05T07:23:07Z</time></trkpt><trkpt lat="38.73361360697033" lon="16.266148859266764"><ele>188.28571428571428</ele><time>2026-05-05T07:23:13Z</time></trkpt><trkpt lat="38.73360080640795" lon="16.266067735832262"><ele>187.85714285714286</ele><time>2026-05-05T07:23:19Z</time></trkpt><trkpt lat="38.73358829765527" lon="16.265986204469822"><ele>187.42857142857142</ele><time>2026-05-05T07:23:23Z</time></trkpt><trkpt lat="38.733571114570616" lon="16.265904119603494"><ele>187.0</ele><time>2026-05-05T07:23:27Z</time></trkpt><trkpt lat="38.73356605946623" lon="16.265814692267675"><ele>187.0</ele><time>2026-05-05T07:23:33Z</time></trkpt><trkpt lat="38.73357456484264" lon="16.26572324265998"><ele>187.0</ele><time>2026-05-05T07:23:39Z</time></trkpt><trkpt lat="38.73357129960762" lon="16.265638943420335"><ele>187.0</ele><time>2026-05-05T07:23:44Z</time></trkpt><trkpt lat="38.73357178910069" lon="16.265549111356673"><ele>187.0</ele><time>2026-05-05T07:23:50Z</time></trkpt><trkpt lat="38.73358064930836" lon="16.26545160014654"><ele>187.0</ele><time>2026-05-05T07:23:56Z</time></trkpt><trkpt lat="38.733569892048514" lon="16.265358996136683"><ele>187.0</ele><time>2026-05-05T07:24:01Z</time></trkpt><trkpt lat="38.73357456826483" lon="16.265265503102146"><ele>187.0</ele><time>2026-05-05T07:24:07Z</time></trkpt><trkpt lat="38.73357375860071" lon="16.265184302469812"><ele>185.0</ele><time>2026-05-05T07:24:13Z</time></trkpt><trkpt lat="38.733591363060285" lon="16.265098664021178"><ele>183.0</ele><time>2026-05-05T07:24:19Z</time></trkpt><trkpt lat="38.73362141240015" lon="16.265006978413897"><ele>181.0</ele><time>2026-05-05T07:24:24Z</time></trkpt><trkpt lat="38.733657937349946" lon="16.264926497276704"><ele>179.0</ele><time>2026-05-05T07:24:31Z</time></trkpt><trkpt lat="38.7337012196144" lon="16.264867112472913"><ele>177.0</ele><time>2026-05-05T07:24:36Z</time></trkpt><trkpt lat="38.73374491025316" lon="16.264804531829895"><ele>175.0</ele><time>2026-05-05T07:24:41Z</time></trkpt><trkpt lat="38.73378697585399" lon="16.264720918816465"><ele>173.0</ele><time>2026-05-05T07:24:46Z</time></trkpt><trkpt lat="38.73381909224022" lon="16.264642937490592"><ele>170.7142857142857</ele><time>2026-05-05T07:24:51Z</time></trkpt><trkpt lat="38.73384455438494" lon="16.264566425309784"><ele>168.42857142857144</ele><time>2026-05-05T07:24:56Z</time></trkpt><trkpt lat="38.73386712358925" lon="16.26448467080628"><ele>166.14285714285714</ele><time>2026-05-05T07:25:01Z</time></trkpt><trkpt lat="38.7338887275404" lon="16.264400064648783"><ele>163.85714285714283</ele><time>2026-05-05T07:25:06Z</time></trkpt><trkpt lat="38.733910761361855" lon="16.264320165317162"><ele>161.57142857142856</ele><time>2026-05-05T07:25:11Z</time></trkpt><trkpt lat="38.733927798727926" lon="16.264223664122163"><ele>159.28571428571428</ele><time>2026-05-05T07:25:17Z</time></trkpt><trkpt lat="38.7339464477901" lon="16.264146525936304"><ele>157.0</ele><time>2026-05-05T07:25:22Z</time></trkpt><trkpt lat="38.7339653313325" lon="16.26406541841744"><ele>156.99999999999997</ele><time>2026-05-05T07:25:27Z</time></trkpt><trkpt lat="38.73398517153577" lon="16.26398681083603"><ele>157.0</ele><time>2026-05-05T07:25:45Z</time></trkpt><trkpt lat="38.73399404498967" lon="16.26389536919874"><ele>157.0</ele><time>2026-05-05T07:25:51Z</time></trkpt><trkpt lat="38.734002492495314" lon="16.26380698628272"><ele>157.0</ele><time>2026-05-05T07:25:57Z</time></trkpt><trkpt lat="38.73399261292972" lon="16.263724329924322"><ele>157.0</ele><time>2026-05-05T07:26:10Z</time></trkpt><trkpt lat="38.73395379611803" lon="16.263652988467793"><ele>156.99999999999997</ele><time>2026-05-05T07:26:20Z</time></trkpt><trkpt lat="38.733921216668314" lon="16.263573329963005"><ele>157.0</ele><time>2026-05-05T07:26:26Z</time></trkpt><trkpt lat="38.73387986140169" lon="16.263496606743512"><ele>155.28571428571428</ele><time>2026-05-05T07:26:33Z</time></trkpt><trkpt lat="38.73383530727257" lon="16.263432956088764"><ele>153.57142857142856</ele><time>2026-05-05T07:26:38Z</time></trkpt><trkpt lat="38.733798299180584" lon="16.263366993122826"><ele>151.85714285714286</ele><time>2026-05-05T07:26:44Z</time></trkpt><trkpt lat="38.73375471718141" lon="16.26329660158588"><ele>150.14285714285714</ele><time>2026-05-05T07:26:50Z</time></trkpt><trkpt lat="38.7337405672746" lon="16.263213784854166"><ele>148.42857142857144</ele><time>2026-05-05T07:26:57Z</time></trkpt><trkpt lat="38.73371123828448" lon="16.263131577974068"><ele>146.71428571428572</ele><time>2026-05-05T07:27:02Z</time></trkpt><trkpt lat="38.73368409562404" lon="16.263048440683477"><ele>145.0</ele><time>2026-05-05T07:27:06Z</time></trkpt><trkpt lat="38.73367941447456" lon="16.26295668366266"><ele>143.85714285714286</ele><time>2026-05-05T07:27:12Z</time></trkpt><trkpt lat="38.733665714387676" lon="16.26287772167021"><ele>142.71428571428572</ele><time>2026-05-05T07:27:17Z</time></trkpt><trkpt lat="38.73367004186078" lon="16.262783279296347"><ele>141.57142857142858</ele><time>2026-05-05T07:27:22Z</time></trkpt><trkpt lat="38.73368226310939" lon="16.262701841992058"><ele>140.42857142857144</ele><time>2026-05-05T07:27:28Z</time></trkpt><trkpt lat="38.73369133039305" lon="16.26261165195714"><ele>139.28571428571428</ele><time>2026-05-05T07:27:33Z</time></trkpt><trkpt lat="38.73370399182983" lon="16.26252768503699"><ele>138.14285714285717</ele><time>2026-05-05T07:27:38Z</time></trkpt><trkpt lat="38.733722160784616" lon="16.262447952492757"><ele>137.0</ele><time>2026-05-05T07:27:43Z</time></trkpt><trkpt lat="38.73372296170922" lon="16.26235285092324"><ele>137.2857142857143</ele><time>2026-05-05T07:27:48Z</time></trkpt><trkpt lat="38.733741238008356" lon="16.262267048300114"><ele>137.57142857142858</ele><time>2026-05-05T07:27:54Z</time></trkpt><trkpt lat="38.73372876522917" lon="16.262164617130864"><ele>137.85714285714286</ele><time>2026-05-05T07:27:59Z</time></trkpt><trkpt lat="38.73375210871291" lon="16.262086357377818"><ele>138.14285714285717</ele><time>2026-05-05T07:28:04Z</time></trkpt><trkpt lat="38.733761527116435" lon="16.26199314487327"><ele>138.42857142857144</ele><time>2026-05-05T07:28:10Z</time></trkpt><trkpt lat="38.7337723208964" lon="16.26190449372326"><ele>138.71428571428572</ele><time>2026-05-05T07:28:15Z</time></trkpt><trkpt lat="38.733756895510666" lon="16.26181687371063"><ele>139.0</ele><time>2026-05-05T07:28:21Z</time></trkpt><trkpt lat="38.733741381893786" lon="16.26172707103054"><ele>139.0</ele><time>2026-05-05T07:28:27Z</time></trkpt><trkpt lat="38.733735972366794" lon="16.261641444661617"><ele>139.0</ele><time>2026-05-05T07:28:33Z</time></trkpt><trkpt lat="38.73372086139216" lon="16.261554409266356"><ele>139.0</ele><time>2026-05-05T07:28:39Z</time></trkpt><trkpt lat="38.73369854446556" lon="16.261474433650392"><ele>139.0</ele><time>2026-05-05T07:28:44Z</time></trkpt><trkpt lat="38.73369512954035" lon="16.26137769314975"><ele>139.0</ele><time>2026-05-05T07:28:51Z</time></trkpt><trkpt lat="38.7336925105708" lon="16.261291538796737"><ele>139.0</ele><time>2026-05-05T07:28:56Z</time></trkpt><trkpt lat="38.73369859563031" lon="16.261197358571653"><ele>139.0</ele><time>2026-05-05T07:29:02Z</time></trkpt><trkpt lat="38.73371123264612" lon="16.261109448331446"><ele>138.85714285714286</ele><time>2026-05-05T07:29:07Z</time></trkpt><trkpt lat="38.73370036171003" lon="16.26102237076747"><ele>138.71428571428572</ele><time>2026-05-05T07:29:13Z</time></trkpt><trkpt lat="38.73370151546508" lon="16.260935536858064"><ele>138.57142857142858</ele><time>2026-05-05T07:29:19Z</time></trkpt><trkpt lat="38.733709448990176" lon="16.26085172871334"><ele>138.42857142857144</ele><time>2026-05-05T07:29:24Z</time></trkpt><trkpt lat="38.733698324013496" lon="16.260762339228638"><ele>138.2857142857143</ele><time>2026-05-05T07:29:31Z</time></trkpt><trkpt lat="38.73371092190154" lon="16.26067633902982"><ele>138.14285714285714</ele><time>2026-05-05T07:29:37Z</time></trkpt><trkpt lat="38.73372504732842" lon="16.260595108188287"><ele>138.0</ele><time>2026-05-05T07:29:45Z</time></trkpt><trkpt lat="38.73373301540283" lon="16.260510206372604"><ele>136.0</ele><time>2026-05-05T07:29:50Z</time></trkpt><trkpt lat="38.73374091053699" lon="16.260428372315147"><ele>134.0</ele><time>2026-05-05T07:29:55Z</time></trkpt><trkpt lat="38.73374027573642" lon="16.26034587944722"><ele>132.0</ele><time>2026-05-05T07:29:59Z</time></trkpt><trkpt lat="38.73375815437947" lon="16.260260555691335"><ele>130.0</ele><time>2026-05-05T07:30:05Z</time></trkpt><trkpt lat="38.733766395201016" lon="16.26016065089813"><ele>128.0</ele><time>2026-05-05T07:30:11Z</time></trkpt><trkpt lat="38.733770763195864" lon="16.260071274230405"><ele>126.0</ele><time>2026-05-05T07:30:16Z</time></trkpt><trkpt lat="38.73378175883589" lon="16.25998130609355"><ele>124.0</ele><time>2026-05-05T07:30:22Z</time></trkpt><trkpt lat="38.73379027260095" lon="16.259892017102498"><ele>124.0</ele><time>2026-05-05T07:30:27Z</time></trkpt><trkpt lat="38.73378531861061" lon="16.259800978770404"><ele>124.00000000000001</ele><time>2026-05-05T07:30:34Z</time></trkpt><trkpt lat="38.733762049159935" lon="16.259717915736715"><ele>124.0</ele><time>2026-05-05T07:30:39Z</time></trkpt><trkpt lat="38.733751534911995" lon="16.25962866954093"><ele>124.0</ele><time>2026-05-05T07:30:45Z</time></trkpt><trkpt lat="38.733734582247216" lon="16.259540616122926"><ele>124.00000000000001</ele><time>2026-05-05T07:30:50Z</time></trkpt><trkpt lat="38.733727289719674" lon="16.259451134724298"><ele>124.0</ele><time>2026-05-05T07:30:56Z</time></trkpt><trkpt lat="38.73372473136565" lon="16.25936537678453"><ele>124.0</ele><time>2026-05-05T07:31:01Z</time></trkpt><trkpt lat="38.733710678384604" lon="16.259280484321255"><ele>122.14285714285715</ele><time>2026-05-05T07:31:06Z</time></trkpt><trkpt lat="38.73370836200214" lon="16.259189057360945"><ele>120.2857142857143</ele><time>2026-05-05T07:31:12Z</time></trkpt><trkpt lat="38.73371756793139" lon="16.25910818726621"><ele>118.42857142857143</ele><time>2026-05-05T07:31:18Z</time></trkpt><trkpt lat="38.73372173843276" lon="16.25902549884049"><ele>116.57142857142858</ele><time>2026-05-05T07:31:23Z</time></trkpt><trkpt lat="38.733743765104585" lon="16.258934175339707"><ele>114.71428571428572</ele><time>2026-05-05T07:31:29Z</time></trkpt><trkpt lat="38.73376176472074" lon="16.258839445349498"><ele>112.85714285714286</ele><time>2026-05-05T07:31:36Z</time></trkpt><trkpt lat="38.73374767560886" lon="16.258760314679236"><ele>111.0</ele><time>2026-05-05T07:31:46Z</time></trkpt><trkpt lat="38.733679053379056" lon="16.25875524049444"><ele>109.14285714285714</ele><time>2026-05-05T07:33:13Z</time></trkpt><trkpt lat="38.733615489145244" lon="16.258738619258487"><ele>107.28571428571429</ele><time>2026-05-05T07:33:22Z</time></trkpt><trkpt lat="38.73355194517199" lon="16.258758509266148"><ele>105.42857142857143</ele><time>2026-05-05T07:33:32Z</time></trkpt><trkpt lat="38.73348876241627" lon="16.258814389934777"><ele>103.57142857142857</ele><time>2026-05-05T07:33:38Z</time></trkpt><trkpt lat="38.73344648397767" lon="16.258878460234016"><ele>101.71428571428572</ele><time>2026-05-05T07:33:43Z</time></trkpt><trkpt lat="38.733403816929325" lon="16.258953528103703"><ele>99.85714285714286</ele><time>2026-05-05T07:33:49Z</time></trkpt><trkpt lat="38.73337181866717" lon="16.259032589826536"><ele>98.0</ele><time>2026-05-05T07:33:55Z</time></trkpt><trkpt lat="38.73334686533353" lon="16.259118744811882"><ele>98.0</ele><time>2026-05-05T07:34:01Z</time></trkpt><trkpt lat="38.73332831492761" lon="16.259199877000036"><ele>98.0</ele><time>2026-05-05T07:34:05Z</time></trkpt><trkpt lat="38.73330968876854" lon="16.259288570767016"><ele>98.0</ele><time>2026-05-05T07:34:11Z</time></trkpt><trkpt lat="38.733287399327224" lon="16.259369980641512"><ele>98.0</ele><time>2026-05-05T07:34:16Z</time></trkpt><trkpt lat="38.73328085893106" lon="16.25945499075161"><ele>98.0</ele><time>2026-05-05T07:34:20Z</time></trkpt><trkpt lat="38.73326442472432" lon="16.259545508251737"><ele>98.0</ele><time>2026-05-05T07:34:26Z</time></trkpt><trkpt lat="38.73324346494701" lon="16.259641231414346"><ele>98.0</ele><time>2026-05-05T07:34:32Z</time></trkpt><trkpt lat="38.733211597141455" lon="16.259728396300993"><ele>99.14285714285714</ele><time>2026-05-05T07:34:38Z</time></trkpt><trkpt lat="38.73318360988618" lon="16.259801418001192"><ele>100.28571428571428</ele><time>2026-05-05T07:34:43Z</time></trkpt><trkpt lat="38.733140915031036" lon="16.25987908197319"><ele>101.42857142857143</ele><time>2026-05-05T07:34:48Z</time></trkpt><trkpt lat="38.733097487125534" lon="16.259939949746883"><ele>102.57142857142857</ele><time>2026-05-05T07:34:54Z</time></trkpt><trkpt lat="38.73305458081436" lon="16.260002697432245"><ele>103.71428571428571</ele><time>2026-05-05T07:34:59Z</time></trkpt><trkpt lat="38.73300453676111" lon="16.2600651878982"><ele>104.85714285714286</ele><time>2026-05-05T07:35:05Z</time></trkpt><trkpt lat="38.732957560893254" lon="16.260138889059586"><ele>106.0</ele><time>2026-05-05T07:35:11Z</time></trkpt><trkpt lat="38.73290143383144" lon="16.260200791545014"><ele>106.0</ele><time>2026-05-05T07:35:17Z</time></trkpt><trkpt lat="38.73284844419302" lon="16.26025315867378"><ele>106.0</ele><time>2026-05-05T07:35:22Z</time></trkpt><trkpt lat="38.73279051568705" lon="16.26030152336554"><ele>106.0</ele><time>2026-05-05T07:35:28Z</time></trkpt><trkpt lat="38.73273740564054" lon="16.260372469298833"><ele>106.0</ele><time>2026-05-05T07:35:33Z</time></trkpt><trkpt lat="38.732673263079015" lon="16.26041503902164"><ele>106.0</ele><time>2026-05-05T07:35:39Z</time></trkpt><trkpt lat="38.73261731598184" lon="16.2604675601532"><ele>106.0</ele><time>2026-05-05T07:35:45Z</time></trkpt><trkpt lat="38.73255980590855" lon="16.260516941706268"><ele>106.0</ele><time>2026-05-05T07:35:50Z</time></trkpt><trkpt lat="38.732495786668274" lon="16.260561192137367"><ele>103.71428571428572</ele><time>2026-05-05T07:35:56Z</time></trkpt><trkpt lat="38.73242866848449" lon="16.260594073944393"><ele>101.42857142857142</ele><time>2026-05-05T07:36:03Z</time></trkpt><trkpt lat="38.73236729165381" lon="16.26061773887075"><ele>99.14285714285714</ele><time>2026-05-05T07:36:08Z</time></trkpt><trkpt lat="38.73230821135607" lon="16.260579772890626"><ele>96.85714285714286</ele><time>2026-05-05T07:36:15Z</time></trkpt><trkpt lat="38.732284256985224" lon="16.260502778846142"><ele>94.57142857142858</ele><time>2026-05-05T07:36:21Z</time></trkpt><trkpt lat="38.73227136214937" lon="16.260418524966205"><ele>92.28571428571428</ele><time>2026-05-05T07:36:26Z</time></trkpt><trkpt lat="38.73227777806434" lon="16.260335915933375"><ele>90.0</ele><time>2026-05-05T07:36:32Z</time></trkpt><trkpt lat="38.732261501387555" lon="16.260245936303477"><ele>88.42857142857143</ele><time>2026-05-05T07:36:39Z</time></trkpt><trkpt lat="38.7322207850745" lon="16.26018253925844"><ele>86.85714285714286</ele><time>2026-05-05T07:36:44Z</time></trkpt><trkpt lat="38.73214708852861" lon="16.260184327722335"><ele>85.28571428571429</ele><time>2026-05-05T07:36:50Z</time></trkpt><trkpt lat="38.7320966176407" lon="16.260252850874082"><ele>83.71428571428572</ele><time>2026-05-05T07:36:57Z</time></trkpt><trkpt lat="38.73206805034605" lon="16.260325842379626"><ele>82.14285714285714</ele><time>2026-05-05T07:37:02Z</time></trkpt><trkpt lat="38.73203109807338" lon="16.26040854466328"><ele>80.57142857142858</ele><time>2026-05-05T07:37:08Z</time></trkpt><trkpt lat="38.732003773525875" lon="16.260481848521557"><ele>79.0</ele><time>2026-05-05T07:37:14Z</time></trkpt><trkpt lat="38.73197783127481" lon="16.260566137149205"><ele>80.57142857142858</ele><time>2026-05-05T07:37:19Z</time></trkpt><trkpt lat="38.73195058365867" lon="16.260643929773025"><ele>82.14285714285714</ele><time>2026-05-05T07:37:25Z</time></trkpt><trkpt lat="38.73190262961959" lon="16.26071088923625"><ele>83.71428571428572</ele><time>2026-05-05T07:37:33Z</time></trkpt><trkpt lat="38.7318397708724" lon="16.260697611215402"><ele>85.28571428571429</ele><time>2026-05-05T07:37:40Z</time></trkpt><trkpt lat="38.73184426128087" lon="16.260613513063507"><ele>86.85714285714286</ele><time>2026-05-05T07:37:49Z</time></trkpt><trkpt lat="38.73184393674188" lon="16.26052947001366"><ele>88.42857142857143</ele><time>2026-05-05T07:37:55Z</time></trkpt><trkpt lat="38.73184130447517" lon="16.260435179549233"><ele>90.0</ele><time>2026-05-05T07:38:04Z</time></trkpt><trkpt lat="38.731852513347185" lon="16.260343815573073"><ele>88.42857142857143</ele><time>2026-05-05T07:38:10Z</time></trkpt><trkpt lat="38.73184225560482" lon="16.260261201349024"><ele>86.85714285714286</ele><time>2026-05-05T07:38:17Z</time></trkpt><trkpt lat="38.7318744034811" lon="16.260178680340022"><ele>85.28571428571429</ele><time>2026-05-05T07:38:23Z</time></trkpt><trkpt lat="38.73188599018977" lon="16.260086484220004"><ele>83.71428571428572</ele><time>2026-05-05T07:38:32Z</time></trkpt><trkpt lat="38.731910278746675" lon="16.26000366254369"><ele>82.14285714285714</ele><time>2026-05-05T07:38:38Z</time></trkpt><trkpt lat="38.73190803914148" lon="16.259912698799386"><ele>80.57142857142858</ele><time>2026-05-05T07:38:44Z</time></trkpt><trkpt lat="38.73193432774191" lon="16.259829754035003"><ele>79.0</ele><time>2026-05-05T07:38:50Z</time></trkpt><trkpt lat="38.7319474028831" lon="16.259747728435908"><ele>77.42857142857143</ele><time>2026-05-05T07:38:56Z</time></trkpt><trkpt lat="38.7319704320034" lon="16.259654573502505"><ele>75.85714285714286</ele><time>2026-05-05T07:39:02Z</time></trkpt><trkpt lat="38.73193521512577" lon="16.25957769663837"><ele>74.28571428571428</ele><time>2026-05-05T07:39:09Z</time></trkpt><trkpt lat="38.73187520110737" lon="16.259621621706685"><ele>72.71428571428572</ele><time>2026-05-05T07:39:14Z</time></trkpt><trkpt lat="38.73184022359613" lon="16.259700394303685"><ele>71.14285714285714</ele><time>2026-05-05T07:39:19Z</time></trkpt><trkpt lat="38.73179587878892" lon="16.25977393237427"><ele>69.57142857142857</ele><time>2026-05-05T07:39:25Z</time></trkpt><trkpt lat="38.731750544053114" lon="16.259847975870606"><ele>68.0</ele><time>2026-05-05T07:39:30Z</time></trkpt><trkpt lat="38.73170188836942" lon="16.259918705177164"><ele>66.85714285714285</ele><time>2026-05-05T07:39:36Z</time></trkpt><trkpt lat="38.73162938079657" lon="16.259948092885555"><ele>65.71428571428571</ele><time>2026-05-05T07:39:43Z</time></trkpt><trkpt lat="38.73156341113759" lon="16.259937858825662"><ele>64.57142857142857</ele><time>2026-05-05T07:39:48Z</time></trkpt><trkpt lat="38.731501003397554" lon="16.259900222927612"><ele>63.42857142857142</ele><time>2026-05-05T07:39:54Z</time></trkpt><trkpt lat="38.73144319687624" lon="16.259853167190247"><ele>62.28571428571428</ele><time>2026-05-05T07:39:59Z</time></trkpt><trkpt lat="38.73138376919804" lon="16.25980266345481"><ele>61.142857142857146</ele><time>2026-05-05T07:40:03Z</time></trkpt><trkpt lat="38.73132649039921" lon="16.25975719797917"><ele>60.0</ele><time>2026-05-05T07:40:09Z</time></trkpt><trkpt lat="38.731273527554144" lon="16.2597106511076"><ele>59.42857142857143</ele><time>2026-05-05T07:40:14Z</time></trkpt><trkpt lat="38.73122383590069" lon="16.259637588884168"><ele>58.857142857142854</ele><time>2026-05-05T07:40:19Z</time></trkpt><trkpt lat="38.73116535328363" lon="16.25959190866739"><ele>58.285714285714285</ele><time>2026-05-05T07:40:25Z</time></trkpt><trkpt lat="38.73114632605685" lon="16.259505408900324"><ele>57.714285714285715</ele><time>2026-05-05T07:40:30Z</time></trkpt><trkpt lat="38.73113099280086" lon="16.25941851023971"><ele>57.14285714285714</ele><time>2026-05-05T07:40:37Z</time></trkpt><trkpt lat="38.731125788434085" lon="16.259332866097452"><ele>56.57142857142857</ele><time>2026-05-05T07:40:42Z</time></trkpt><trkpt lat="38.73112380304652" lon="16.2592319786481"><ele>56.0</ele><time>2026-05-05T07:40:48Z</time></trkpt><trkpt lat="38.73112458685744" lon="16.259146334112575"><ele>56.0</ele><time>2026-05-05T07:40:52Z</time></trkpt><trkpt lat="38.73114014059227" lon="16.25905709523758"><ele>56.0</ele><time>2026-05-05T07:40:58Z</time></trkpt><trkpt lat="38.7311518312939" lon="16.258972811159285"><ele>56.0</ele><time>2026-05-05T07:41:04Z</time></trkpt><trkpt lat="38.73116652933728" lon="16.25889104481635"><ele>56.0</ele><time>2026-05-05T07:41:09Z</time></trkpt><trkpt lat="38.73118330552955" lon="16.258800350844588"><ele>56.0</ele><time>2026-05-05T07:41:15Z</time></trkpt><trkpt lat="38.73118361657689" lon="16.258718813512587"><ele>56.0</ele><time>2026-05-05T07:41:20Z</time></trkpt><trkpt lat="38.73119690501383" lon="16.258627290389153"><ele>56.0</ele><time>2026-05-05T07:41:26Z</time></trkpt><trkpt lat="38.73120119834299" lon="16.25853473227602"><ele>55.714285714285715</ele><time>2026-05-05T07:41:31Z</time></trkpt><trkpt lat="38.73120057410732" lon="16.25845374005674"><ele>55.42857142857143</ele><time>2026-05-05T07:41:36Z</time></trkpt><trkpt lat="38.73120973170065" lon="16.258359993241275"><ele>55.14285714285714</ele><time>2026-05-05T07:41:41Z</time></trkpt><trkpt lat="38.731234704354115" lon="16.258279177138654"><ele>54.85714285714286</ele><time>2026-05-05T07:41:48Z</time></trkpt><trkpt lat="38.731265014857655" lon="16.258205128229882"><ele>54.57142857142857</ele><time>2026-05-05T07:41:54Z</time></trkpt><trkpt lat="38.731271927452774" lon="16.25810627629938"><ele>54.285714285714285</ele><time>2026-05-05T07:41:59Z</time></trkpt><trkpt lat="38.73126989834121" lon="16.25801307163412"><ele>54.0</ele><time>2026-05-05T07:42:05Z</time></trkpt><trkpt lat="38.73127485228536" lon="16.257929067960582"><ele>52.833333333333336</ele><time>2026-05-05T07:42:10Z</time></trkpt><trkpt lat="38.73126876036491" lon="16.257841528248697"><ele>51.666666666666664</ele><time>2026-05-05T07:42:15Z</time></trkpt><trkpt lat="38.73125366977231" lon="16.257755347422066"><ele>50.5</ele><time>2026-05-05T07:42:20Z</time></trkpt><trkpt lat="38.73121162414432" lon="16.257602758720758"><ele>49.33333333333333</ele><time>2026-05-05T07:42:29.645Z</time></trkpt><trkpt lat="38.73118706516803" lon="16.25751986169839"><ele>48.166666666666664</ele><time>2026-05-05T07:42:35Z</time></trkpt><trkpt lat="38.73115345373631" lon="16.257450291902067"><ele>47.0</ele><time>2026-05-05T07:42:40Z</time></trkpt><trkpt lat="38.73111596513696" lon="16.257382945433974"><ele>47.0</ele><time>2026-05-05T07:42:45Z</time></trkpt><trkpt lat="38.73106717907232" lon="16.25731748627936"><ele>47.0</ele><time>2026-05-05T07:42:51Z</time></trkpt><trkpt lat="38.731011842736635" lon="16.257252479022945"><ele>47.0</ele><time>2026-05-05T07:42:56Z</time></trkpt><trkpt lat="38.730937896178325" lon="16.257225163604435"><ele>47.0</ele><time>2026-05-05T07:43:01Z</time></trkpt><trkpt lat="38.73086479243609" lon="16.257191351151103"><ele>47.0</ele><time>2026-05-05T07:43:08Z</time></trkpt><trkpt lat="38.730792284611155" lon="16.257186052100046"><ele>47.0</ele><time>2026-05-05T07:43:14Z</time></trkpt><trkpt lat="38.73072191140594" lon="16.257184133816192"><ele>47.0</ele><time>2026-05-05T07:43:19Z</time></trkpt><trkpt lat="38.730659002083534" lon="16.25722052506379"><ele>46.714285714285715</ele><time>2026-05-05T07:43:23Z</time></trkpt><trkpt lat="38.73059070567659" lon="16.257222444647866"><ele>46.42857142857143</ele><time>2026-05-05T07:43:28Z</time></trkpt><trkpt lat="38.730520100287166" lon="16.257232062885492"><ele>46.14285714285714</ele><time>2026-05-05T07:43:34Z</time></trkpt><trkpt lat="38.73045685747992" lon="16.25723643294767"><ele>45.85714285714286</ele><time>2026-05-05T07:43:38Z</time></trkpt><trkpt lat="38.730390436759215" lon="16.25724512305619"><ele>45.57142857142858</ele><time>2026-05-05T07:43:43Z</time></trkpt><trkpt lat="38.73031837480565" lon="16.25726863249088"><ele>45.285714285714285</ele><time>2026-05-05T07:43:49Z</time></trkpt><trkpt lat="38.73024236814976" lon="16.257283327071203"><ele>45.0</ele><time>2026-05-05T07:43:54Z</time></trkpt><trkpt lat="38.730170157089724" lon="16.25728147358517"><ele>47.42857142857143</ele><time>2026-05-05T07:44:00Z</time></trkpt><trkpt lat="38.730101298743826" lon="16.257285745059264"><ele>49.85714285714286</ele><time>2026-05-05T07:44:05Z</time></trkpt><trkpt lat="38.73003263427781" lon="16.25729420045892"><ele>52.28571428571429</ele><time>2026-05-05T07:44:10Z</time></trkpt><trkpt lat="38.729954999272415" lon="16.2572961347157"><ele>54.714285714285715</ele><time>2026-05-05T07:44:19Z</time></trkpt><trkpt lat="38.72988320576745" lon="16.257292200499773"><ele>57.14285714285715</ele><time>2026-05-05T07:44:24Z</time></trkpt><trkpt lat="38.72981249321036" lon="16.257300275991707"><ele>59.57142857142858</ele><time>2026-05-05T07:44:29Z</time></trkpt><trkpt lat="38.729748892998394" lon="16.257303220168904"><ele>62.0</ele><time>2026-05-05T07:44:34Z</time></trkpt><trkpt lat="38.72967454879478" lon="16.257308067383452"><ele>62.0</ele><time>2026-05-05T07:44:39Z</time></trkpt><trkpt lat="38.729609889895684" lon="16.257318936137203"><ele>62.00000000000001</ele><time>2026-05-05T07:44:44Z</time></trkpt><trkpt lat="38.729543927361725" lon="16.25732864130428"><ele>62.0</ele><time>2026-05-05T07:44:49Z</time></trkpt><trkpt lat="38.729468545862154" lon="16.257352682044836"><ele>62.0</ele><time>2026-05-05T07:44:54Z</time></trkpt><trkpt lat="38.72940439790134" lon="16.257354279285384"><ele>62.00000000000001</ele><time>2026-05-05T07:44:59Z</time></trkpt><trkpt lat="38.72934427180685" lon="16.2573962458051"><ele>62.0</ele><time>2026-05-05T07:45:04Z</time></trkpt><trkpt lat="38.72928157924588" lon="16.257428035047347"><ele>62.0</ele><time>2026-05-05T07:45:09Z</time></trkpt><trkpt lat="38.72921304901205" lon="16.257468832073236"><ele>60.42857142857143</ele><time>2026-05-05T07:45:15Z</time></trkpt><trkpt lat="38.729150130172066" lon="16.257506996775465"><ele>58.85714285714286</ele><time>2026-05-05T07:45:20Z</time></trkpt><trkpt lat="38.729092023963595" lon="16.257547190125823"><ele>57.28571428571429</ele><time>2026-05-05T07:45:25Z</time></trkpt><trkpt lat="38.72903688496129" lon="16.257602513593596"><ele>55.714285714285715</ele><time>2026-05-05T07:45:30Z</time></trkpt><trkpt lat="38.72897863326612" lon="16.25765127066685"><ele>54.142857142857146</ele><time>2026-05-05T07:45:36Z</time></trkpt><trkpt lat="38.728923600080975" lon="16.257696258129975"><ele>52.57142857142857</ele><time>2026-05-05T07:45:40Z</time></trkpt><trkpt lat="38.72886763976178" lon="16.257749034621543"><ele>51.0</ele><time>2026-05-05T07:45:45Z</time></trkpt><trkpt lat="38.72881378164147" lon="16.257797435340596"><ele>51.0</ele><time>2026-05-05T07:45:50Z</time></trkpt><trkpt lat="38.728751559597505" lon="16.257846491736004"><ele>51.0</ele><time>2026-05-05T07:45:56Z</time></trkpt><trkpt lat="38.72869598214541" lon="16.25788912014728"><ele>51.0</ele><time>2026-05-05T07:46:00Z</time></trkpt><trkpt lat="38.728640604274176" lon="16.25793392944435"><ele>51.0</ele><time>2026-05-05T07:46:06Z</time></trkpt><trkpt lat="38.728574841620635" lon="16.257976250748317"><ele>51.0</ele><time>2026-05-05T07:46:11Z</time></trkpt><trkpt lat="38.728500371949046" lon="16.25798500944311"><ele>51.0</ele><time>2026-05-05T07:46:17Z</time></trkpt><trkpt lat="38.72843194644262" lon="16.257979910562884"><ele>51.0</ele><time>2026-05-05T07:46:22Z</time></trkpt><trkpt lat="38.72835884914913" lon="16.257972913011965"><ele>51.142857142857146</ele><time>2026-05-05T07:46:28Z</time></trkpt><trkpt lat="38.72829532441954" lon="16.257947346347066"><ele>51.28571428571429</ele><time>2026-05-05T07:46:34Z</time></trkpt><trkpt lat="38.72821794912647" lon="16.257927390676656"><ele>51.42857142857143</ele><time>2026-05-05T07:46:40Z</time></trkpt><trkpt lat="38.72814991639401" lon="16.257912599249575"><ele>51.57142857142857</ele><time>2026-05-05T07:46:45Z</time></trkpt><trkpt lat="38.72808211802937" lon="16.257889466849182"><ele>51.714285714285715</ele><time>2026-05-05T07:46:51Z</time></trkpt><trkpt lat="38.72801406869353" lon="16.257873000494364"><ele>51.857142857142854</ele><time>2026-05-05T07:46:56Z</time></trkpt><trkpt lat="38.72794774139291" lon="16.257832482695488"><ele>52.0</ele><time>2026-05-05T07:47:02Z</time></trkpt><trkpt lat="38.72788340748607" lon="16.257797224955375"><ele>52.0</ele><time>2026-05-05T07:47:08Z</time></trkpt><trkpt lat="38.727813077074174" lon="16.257770419778662"><ele>52.0</ele><time>2026-05-05T07:47:13Z</time></trkpt><trkpt lat="38.727752641268275" lon="16.257721211643126"><ele>52.0</ele><time>2026-05-05T07:47:20Z</time></trkpt><trkpt lat="38.727739040530736" lon="16.257632685426064"><ele>52.0</ele><time>2026-05-05T07:47:28Z</time></trkpt><trkpt lat="38.72775982111693" lon="16.257550236105"><ele>52.0</ele><time>2026-05-05T07:47:36Z</time></trkpt><trkpt lat="38.727801822869225" lon="16.257489165068478"><ele>52.0</ele><time>2026-05-05T07:47:41Z</time></trkpt><trkpt lat="38.72784673299948" lon="16.25741956960104"><ele>52.0</ele><time>2026-05-05T07:47:47Z</time></trkpt><trkpt lat="38.727894640907564" lon="16.257352488881423"><ele>51.57142857142857</ele><time>2026-05-05T07:47:52Z</time></trkpt><trkpt lat="38.72790161045523" lon="16.257268652806772"><ele>51.142857142857146</ele><time>2026-05-05T07:47:56Z</time></trkpt><trkpt lat="38.72791946998718" lon="16.257185710687814"><ele>50.714285714285715</ele><time>2026-05-05T07:48:02Z</time></trkpt><trkpt lat="38.727924443218335" lon="16.257104600702647"><ele>50.285714285714285</ele><time>2026-05-05T07:48:07Z</time></trkpt><trkpt lat="38.727932070531125" lon="16.257008497554992"><ele>49.85714285714286</ele><time>2026-05-05T07:48:13Z</time></trkpt><trkpt lat="38.72795766358055" lon="16.256923947121766"><ele>49.42857142857143</ele><time>2026-05-05T07:48:18Z</time></trkpt><trkpt lat="38.727973904329275" lon="16.256838961648853"><ele>49.0</ele><time>2026-05-05T07:48:24Z</time></trkpt><trkpt lat="38.72799229140569" lon="16.256755838852328"><ele>49.0</ele><time>2026-05-05T07:48:29Z</time></trkpt><trkpt lat="38.728009871296585" lon="16.25667042193206"><ele>49.0</ele><time>2026-05-05T07:48:35Z</time></trkpt><trkpt lat="38.72803360622188" lon="16.256577610145293"><ele>49.0</ele><time>2026-05-05T07:48:41Z</time></trkpt><trkpt lat="38.72806595071511" lon="16.256502988281948"><ele>49.0</ele><time>2026-05-05T07:48:46Z</time></trkpt><trkpt lat="38.72808473445858" lon="16.256422458166323"><ele>49.0</ele><time>2026-05-05T07:48:51Z</time></trkpt><trkpt lat="38.728096435950846" lon="16.2563308578427"><ele>49.0</ele><time>2026-05-05T07:48:57Z</time></trkpt><trkpt lat="38.72810759528939" lon="16.256240366390315"><ele>49.0</ele><time>2026-05-05T07:49:02Z</time></trkpt><trkpt lat="38.72812418832858" lon="16.256155782938322"><ele>48.714285714285715</ele><time>2026-05-05T07:49:07Z</time></trkpt><trkpt lat="38.72814662502119" lon="16.256060364641833"><ele>48.42857142857143</ele><time>2026-05-05T07:49:12Z</time></trkpt><trkpt lat="38.72815933085017" lon="16.25596838085557"><ele>48.14285714285714</ele><time>2026-05-05T07:49:18Z</time></trkpt><trkpt lat="38.72817356651678" lon="16.25588912094333"><ele>47.85714285714286</ele><time>2026-05-05T07:49:23Z</time></trkpt><trkpt lat="38.728195357053025" lon="16.255797920368348"><ele>47.57142857142857</ele><time>2026-05-05T07:49:28Z</time></trkpt><trkpt lat="38.72821184459804" lon="16.255711358636166"><ele>47.285714285714285</ele><time>2026-05-05T07:49:34Z</time></trkpt><trkpt lat="38.72822855192352" lon="16.25561949021458"><ele>47.0</ele><time>2026-05-05T07:49:39Z</time></trkpt><trkpt lat="38.72824486253121" lon="16.255525275874234"><ele>46.857142857142854</ele><time>2026-05-05T07:49:45Z</time></trkpt><trkpt lat="38.72826324466583" lon="16.255442077083163"><ele>46.71428571428571</ele><time>2026-05-05T07:49:51Z</time></trkpt><trkpt lat="38.72828533508123" lon="16.255361980378538"><ele>46.57142857142857</ele><time>2026-05-05T07:49:57Z</time></trkpt><trkpt lat="38.72829579682296" lon="16.25527178976151"><ele>46.42857142857143</ele><time>2026-05-05T07:50:02Z</time></trkpt><trkpt lat="38.728323178682245" lon="16.255186989984576"><ele>46.285714285714285</ele><time>2026-05-05T07:50:08Z</time></trkpt><trkpt lat="38.72833745322893" lon="16.255103787053717"><ele>46.142857142857146</ele><time>2026-05-05T07:50:14Z</time></trkpt><trkpt lat="38.72835283345354" lon="16.25501152864991"><ele>46.0</ele><time>2026-05-05T07:50:21Z</time></trkpt><trkpt lat="38.72836257371861" lon="16.2549283986252"><ele>46.0</ele><time>2026-05-05T07:50:27Z</time></trkpt><trkpt lat="38.72838150488326" lon="16.254846045844342"><ele>46.0</ele><time>2026-05-05T07:50:32Z</time></trkpt><trkpt lat="38.72839407459238" lon="16.254763002913563"><ele>46.0</ele><time>2026-05-05T07:50:38Z</time></trkpt><trkpt lat="38.72841240677639" lon="16.254683657971274"><ele>46.0</ele><time>2026-05-05T07:50:43Z</time></trkpt><trkpt lat="38.728441295116575" lon="16.254602676276935"><ele>46.0</ele><time>2026-05-05T07:50:49Z</time></trkpt><trkpt lat="38.72846914802858" lon="16.25453006912744"><ele>46.0</ele><time>2026-05-05T07:50:54Z</time></trkpt><trkpt lat="38.728489369413495" lon="16.25444585377577"><ele>46.0</ele><time>2026-05-05T07:51:00Z</time></trkpt><trkpt lat="38.72849197377397" lon="16.254359062203292"><ele>45.57142857142858</ele><time>2026-05-05T07:51:05Z</time></trkpt><trkpt lat="38.728502439445364" lon="16.2542791606809"><ele>45.14285714285714</ele><time>2026-05-05T07:51:10Z</time></trkpt><trkpt lat="38.72852983316368" lon="16.254190945026963"><ele>44.714285714285715</ele><time>2026-05-05T07:51:16Z</time></trkpt><trkpt lat="38.728563177485995" lon="16.254113185669937"><ele>44.28571428571429</ele><time>2026-05-05T07:51:22Z</time></trkpt><trkpt lat="38.72858207647811" lon="16.25403011767422"><ele>43.85714285714286</ele><time>2026-05-05T07:51:27Z</time></trkpt><trkpt lat="38.7285952842802" lon="16.25392717444384"><ele>43.42857142857143</ele><time>2026-05-05T07:51:34Z</time></trkpt><trkpt lat="38.72861579918521" lon="16.253850237283118"><ele>43.0</ele><time>2026-05-05T07:51:38Z</time></trkpt><trkpt lat="38.72862674687084" lon="16.253762483792276"><ele>44.85714285714286</ele><time>2026-05-05T07:51:44Z</time></trkpt><trkpt lat="38.7286452683259" lon="16.253677794766517"><ele>46.714285714285715</ele><time>2026-05-05T07:51:49Z</time></trkpt><trkpt lat="38.72866687021268" lon="16.253588404984477"><ele>48.57142857142857</ele><time>2026-05-05T07:51:55Z</time></trkpt><trkpt lat="38.728702077263875" lon="16.253512334649262"><ele>50.42857142857143</ele><time>2026-05-05T07:52:00Z</time></trkpt><trkpt lat="38.728729636557105" lon="16.25343773791262"><ele>52.285714285714285</ele><time>2026-05-05T07:52:06Z</time></trkpt><trkpt lat="38.72877114402802" lon="16.253375867199964"><ele>54.142857142857146</ele><time>2026-05-05T07:52:11Z</time></trkpt><trkpt lat="38.72883838880572" lon="16.25332875458631"><ele>56.0</ele><time>2026-05-05T07:52:18Z</time></trkpt><trkpt lat="38.72890466006032" lon="16.253289804531565"><ele>56.0</ele><time>2026-05-05T07:52:23Z</time></trkpt><trkpt lat="38.728973887380064" lon="16.253244396897003"><ele>56.0</ele><time>2026-05-05T07:52:30Z</time></trkpt><trkpt lat="38.729027299465706" lon="16.253196838042086"><ele>56.0</ele><time>2026-05-05T07:52:35Z</time></trkpt><trkpt lat="38.72909042776238" lon="16.25313420204054"><ele>56.0</ele><time>2026-05-05T07:52:42Z</time></trkpt><trkpt lat="38.72914657822472" lon="16.253090732966204"><ele>56.0</ele><time>2026-05-05T07:52:47Z</time></trkpt><trkpt lat="38.729179168107244" lon="16.253012441394052"><ele>56.0</ele><time>2026-05-05T07:52:52Z</time></trkpt><trkpt lat="38.72921221829193" lon="16.25293261743834"><ele>56.0</ele><time>2026-05-05T07:52:58Z</time></trkpt><trkpt lat="38.72923641913965" lon="16.25285103414115"><ele>56.0</ele><time>2026-05-05T07:53:03Z</time></trkpt><trkpt lat="38.729258609387315" lon="16.25277027804045"><ele>56.0</ele><time>2026-05-05T07:53:08Z</time></trkpt><trkpt lat="38.72928879476278" lon="16.25267073065603"><ele>56.0</ele><time>2026-05-05T07:53:15Z</time></trkpt><trkpt lat="38.729313441848724" lon="16.252588190077287"><ele>56.0</ele><time>2026-05-05T07:53:20Z</time></trkpt><trkpt lat="38.72934321227634" lon="16.252516890090437"><ele>56.0</ele><time>2026-05-05T07:53:26Z</time></trkpt><trkpt lat="38.72936233540356" lon="16.252430744684897"><ele>56.0</ele><time>2026-05-05T07:53:31Z</time></trkpt><trkpt lat="38.72940449446817" lon="16.25235187687939"><ele>56.0</ele><time>2026-05-05T07:53:37Z</time></trkpt><trkpt lat="38.72943534787535" lon="16.25227648780328"><ele>57.42857142857143</ele><time>2026-05-05T07:53:42Z</time></trkpt><trkpt lat="38.72947241824659" lon="16.25220559525241"><ele>58.85714285714286</ele><time>2026-05-05T07:53:48Z</time></trkpt><trkpt lat="38.729512870132254" lon="16.25213071173708"><ele>60.285714285714285</ele><time>2026-05-05T07:53:53Z</time></trkpt><trkpt lat="38.729556710667104" lon="16.2520624498505"><ele>61.714285714285715</ele><time>2026-05-05T07:53:59Z</time></trkpt><trkpt lat="38.72959713043402" lon="16.251984717985053"><ele>63.142857142857146</ele><time>2026-05-05T07:54:05Z</time></trkpt><trkpt lat="38.72964547421919" lon="16.251923716560896"><ele>64.57142857142857</ele><time>2026-05-05T07:54:11Z</time></trkpt><trkpt lat="38.729703641691586" lon="16.25186507441159"><ele>66.0</ele><time>2026-05-05T07:54:17Z</time></trkpt><trkpt lat="38.72975981233272" lon="16.251809231271903"><ele>66.0</ele><time>2026-05-05T07:54:22Z</time></trkpt><trkpt lat="38.72981228339772" lon="16.251754488410178"><ele>66.0</ele><time>2026-05-05T07:54:27Z</time></trkpt><trkpt lat="38.729863922018" lon="16.251702776531378"><ele>66.0</ele><time>2026-05-05T07:54:32Z</time></trkpt><trkpt lat="38.729916687570864" lon="16.25164368044647"><ele>66.0</ele><time>2026-05-05T07:54:37Z</time></trkpt><trkpt lat="38.72994176050707" lon="16.251552057028977"><ele>66.0</ele><time>2026-05-05T07:54:43Z</time></trkpt><trkpt lat="38.72997690992934" lon="16.251483387915638"><ele>66.0</ele><time>2026-05-05T07:54:50Z</time></trkpt><trkpt lat="38.73002015875074" lon="16.251413275773853"><ele>66.0</ele><time>2026-05-05T07:54:56Z</time></trkpt><trkpt lat="38.730046226922596" lon="16.251326144873897"><ele>66.71428571428571</ele><time>2026-05-05T07:55:03Z</time></trkpt><trkpt lat="38.730094831019684" lon="16.251249245125017"><ele>67.42857142857143</ele><time>2026-05-05T07:55:10Z</time></trkpt><trkpt lat="38.730153729509" lon="16.251196500982346"><ele>68.14285714285714</ele><time>2026-05-05T07:55:16Z</time></trkpt><trkpt lat="38.730221659742185" lon="16.251182037901888"><ele>68.85714285714286</ele><time>2026-05-05T07:55:22Z</time></trkpt><trkpt lat="38.73028434685698" lon="16.25116104759691"><ele>69.57142857142857</ele><time>2026-05-05T07:55:28Z</time></trkpt><trkpt lat="38.73034741339963" lon="16.25114069495844"><ele>70.28571428571428</ele><time>2026-05-05T07:55:34Z</time></trkpt><trkpt lat="38.730417041232876" lon="16.25113279702206"><ele>71.0</ele><time>2026-05-05T07:55:39Z</time></trkpt><trkpt lat="38.73049312540299" lon="16.251124676605183"><ele>71.0</ele><time>2026-05-05T07:55:45Z</time></trkpt><trkpt lat="38.730568142640045" lon="16.25112678693877"><ele>71.0</ele><time>2026-05-05T07:55:51Z</time></trkpt><trkpt lat="38.73063652990026" lon="16.251145088895782"><ele>71.0</ele><time>2026-05-05T07:55:57Z</time></trkpt><trkpt lat="38.73070899904176" lon="16.251157552786605"><ele>71.0</ele><time>2026-05-05T07:56:03Z</time></trkpt><trkpt lat="38.730780692362075" lon="16.25116273379481"><ele>71.0</ele><time>2026-05-05T07:56:08Z</time></trkpt><trkpt lat="38.730849822296754" lon="16.25117782454183"><ele>71.0</ele><time>2026-05-05T07:56:14Z</time></trkpt><trkpt lat="38.73091876127642" lon="16.25117886421823"><ele>71.0</ele><time>2026-05-05T07:56:19Z</time></trkpt><trkpt lat="38.730995539701254" lon="16.251180407159215"><ele>70.42857142857143</ele><time>2026-05-05T07:56:25Z</time></trkpt><trkpt lat="38.731059702351224" lon="16.251173477898142"><ele>69.85714285714285</ele><time>2026-05-05T07:56:29Z</time></trkpt><trkpt lat="38.73113125209112" lon="16.251168876968766"><ele>69.28571428571428</ele><time>2026-05-05T07:56:35Z</time></trkpt><trkpt lat="38.73119200304192" lon="16.251146412638676"><ele>68.71428571428571</ele><time>2026-05-05T07:56:40Z</time></trkpt><trkpt lat="38.731254629761246" lon="16.25112655057634"><ele>68.14285714285714</ele><time>2026-05-05T07:56:45Z</time></trkpt><trkpt lat="38.731325812477195" lon="16.251093450849073"><ele>67.57142857142857</ele><time>2026-05-05T07:56:51Z</time></trkpt><trkpt lat="38.731382828127366" lon="16.251056400747196"><ele>67.0</ele><time>2026-05-05T07:56:55Z</time></trkpt><trkpt lat="38.73143708686578" lon="16.25101472908905"><ele>67.0</ele><time>2026-05-05T07:57:02Z</time></trkpt><trkpt lat="38.73149993384079" lon="16.250977994172175"><ele>67.0</ele><time>2026-05-05T07:57:07Z</time></trkpt><trkpt lat="38.73155399519873" lon="16.250918985977634"><ele>67.0</ele><time>2026-05-05T07:57:13Z</time></trkpt><trkpt lat="38.73160863642527" lon="16.250875907154164"><ele>67.0</ele><time>2026-05-05T07:57:18Z</time></trkpt><trkpt lat="38.73166422457239" lon="16.250817199296304"><ele>67.0</ele><time>2026-05-05T07:57:23Z</time></trkpt><trkpt lat="38.73172241055311" lon="16.25075849536594"><ele>67.0</ele><time>2026-05-05T07:57:30Z</time></trkpt><trkpt lat="38.73177419293979" lon="16.250710762239688"><ele>67.0</ele><time>2026-05-05T07:57:34Z</time></trkpt><trkpt lat="38.731831115725264" lon="16.250656837556498"><ele>69.0</ele><time>2026-05-05T07:57:40Z</time></trkpt><trkpt lat="38.73187595452458" lon="16.250589430765135"><ele>71.0</ele><time>2026-05-05T07:57:44Z</time></trkpt><trkpt lat="38.731919340325646" lon="16.250529376565193"><ele>73.0</ele><time>2026-05-05T07:57:48Z</time></trkpt><trkpt lat="38.731968269562735" lon="16.25045356158457"><ele>75.0</ele><time>2026-05-05T07:57:54Z</time></trkpt><trkpt lat="38.73198956248766" lon="16.25037408135802"><ele>77.0</ele><time>2026-05-05T07:57:59Z</time></trkpt><trkpt lat="38.73200653816101" lon="16.250292377877162"><ele>79.0</ele><time>2026-05-05T07:58:03Z</time></trkpt><trkpt lat="38.73201973965031" lon="16.250206377164787"><ele>81.0</ele><time>2026-05-05T07:58:08Z</time></trkpt><trkpt lat="38.73203571652853" lon="16.25011544946479"><ele>77.71428571428572</ele><time>2026-05-05T07:58:14Z</time></trkpt><trkpt lat="38.73204122412946" lon="16.250027744130264"><ele>74.42857142857143</ele><time>2026-05-05T07:58:22Z</time></trkpt><trkpt lat="38.73206453465913" lon="16.2499516586282"><ele>71.14285714285714</ele><time>2026-05-05T07:58:26Z</time></trkpt><trkpt lat="38.73209049920327" lon="16.249874666942194"><ele>67.85714285714286</ele><time>2026-05-05T07:58:31Z</time></trkpt><trkpt lat="38.732104429328835" lon="16.24978793231368"><ele>64.57142857142857</ele><time>2026-05-05T07:58:36Z</time></trkpt><trkpt lat="38.732125754352786" lon="16.249692620641557"><ele>61.28571428571429</ele><time>2026-05-05T07:58:42Z</time></trkpt><trkpt lat="38.73214710177616" lon="16.24960545551573"><ele>58.00000000000001</ele><time>2026-05-05T07:58:48Z</time></trkpt><trkpt lat="38.73217332114621" lon="16.249513738152366"><ele>58.00000000000001</ele><time>2026-05-05T07:58:53Z</time></trkpt><trkpt lat="38.73219822825735" lon="16.249422663070163"><ele>58.0</ele><time>2026-05-05T07:58:58Z</time></trkpt><trkpt lat="38.73220679840776" lon="16.24932438821926"><ele>58.00000000000001</ele><time>2026-05-05T07:59:04Z</time></trkpt><trkpt lat="38.73221117330022" lon="16.249242009144414"><ele>58.00000000000001</ele><time>2026-05-05T07:59:09Z</time></trkpt><trkpt lat="38.73221009642008" lon="16.249147220392942"><ele>58.0</ele><time>2026-05-05T07:59:16Z</time></trkpt><trkpt lat="38.73223057864906" lon="16.24905537583626"><ele>58.00000000000001</ele><time>2026-05-05T07:59:23Z</time></trkpt><trkpt lat="38.73222850412549" lon="16.248971117664016"><ele>58.00000000000001</ele><time>2026-05-05T07:59:28Z</time></trkpt><trkpt lat="38.73222256954866" lon="16.248883302015102"><ele>59.71428571428572</ele><time>2026-05-05T07:59:33Z</time></trkpt><trkpt lat="38.732242441542596" lon="16.24879832381772"><ele>61.42857142857143</ele><time>2026-05-05T07:59:40Z</time></trkpt><trkpt lat="38.7322959670813" lon="16.248742919309954"><ele>63.142857142857146</ele><time>2026-05-05T07:59:48Z</time></trkpt><trkpt lat="38.73235882457181" lon="16.248697733461935"><ele>64.85714285714286</ele><time>2026-05-05T07:59:54Z</time></trkpt><trkpt lat="38.732412477965205" lon="16.248636982213245"><ele>66.57142857142857</ele><time>2026-05-05T08:00:00Z</time></trkpt><trkpt lat="38.7324543701746" lon="16.24857548221011"><ele>68.28571428571429</ele><time>2026-05-05T08:00:05Z</time></trkpt><trkpt lat="38.7324913647631" lon="16.24850414266692"><ele>70.0</ele><time>2026-05-05T08:00:09Z</time></trkpt><trkpt lat="38.73253286175199" lon="16.24842900226806"><ele>70.0</ele><time>2026-05-05T08:00:14Z</time></trkpt><trkpt lat="38.73257196686895" lon="16.248357880982557"><ele>70.0</ele><time>2026-05-05T08:00:19Z</time></trkpt><trkpt lat="38.732615173960234" lon="16.248292042091915"><ele>70.0</ele><time>2026-05-05T08:00:25Z</time></trkpt><trkpt lat="38.73266819196767" lon="16.24824148188891"><ele>70.0</ele><time>2026-05-05T08:00:33Z</time></trkpt><trkpt lat="38.73270897777186" lon="16.248171017356213"><ele>70.0</ele><time>2026-05-05T08:00:39Z</time></trkpt><trkpt lat="38.73275502561839" lon="16.24810813757964"><ele>70.0</ele><time>2026-05-05T08:00:45Z</time></trkpt><trkpt lat="38.73281444739511" lon="16.248056565479473"><ele>70.0</ele><time>2026-05-05T08:00:51Z</time></trkpt><trkpt lat="38.73286505791116" lon="16.247998114126922"><ele>68.85714285714286</ele><time>2026-05-05T08:00:57Z</time></trkpt><trkpt lat="38.73292299476913" lon="16.247947601497582"><ele>67.71428571428572</ele><time>2026-05-05T08:01:02Z</time></trkpt><trkpt lat="38.73296294379321" lon="16.247883528686337"><ele>66.57142857142857</ele><time>2026-05-05T08:01:07Z</time></trkpt><trkpt lat="38.733014452078415" lon="16.247817521698188"><ele>65.42857142857143</ele><time>2026-05-05T08:01:12Z</time></trkpt><trkpt lat="38.73304973337014" lon="16.247742624278654"><ele>64.28571428571429</ele><time>2026-05-05T08:01:18Z</time></trkpt><trkpt lat="38.73308629214467" lon="16.247671163082178"><ele>63.142857142857146</ele><time>2026-05-05T08:01:23Z</time></trkpt><trkpt lat="38.73311883707681" lon="16.24759650236818"><ele>62.0</ele><time>2026-05-05T08:01:28Z</time></trkpt><trkpt lat="38.73317751009622" lon="16.247530733880154"><ele>62.0</ele><time>2026-05-05T08:01:34Z</time></trkpt><trkpt lat="38.73322686849704" lon="16.2474742230004"><ele>62.00000000000001</ele><time>2026-05-05T08:01:39Z</time></trkpt><trkpt lat="38.73327826543149" lon="16.247424405286203"><ele>62.0</ele><time>2026-05-05T08:01:45Z</time></trkpt><trkpt lat="38.73332601717138" lon="16.247367597692204"><ele>62.0</ele><time>2026-05-05T08:01:51Z</time></trkpt><trkpt lat="38.733380239447655" lon="16.24731908026145"><ele>62.00000000000001</ele><time>2026-05-05T08:01:56Z</time></trkpt><trkpt lat="38.73343888405277" lon="16.24725827377274"><ele>62.0</ele><time>2026-05-05T08:02:02Z</time></trkpt><trkpt lat="38.73349660941618" lon="16.247219484673906"><ele>62.0</ele><time>2026-05-05T08:02:08Z</time></trkpt><trkpt lat="38.73354800941809" lon="16.2471656863011"><ele>60.42857142857143</ele><time>2026-05-05T08:02:12Z</time></trkpt><trkpt lat="38.73359297321722" lon="16.247086322371846"><ele>58.85714285714286</ele><time>2026-05-05T08:02:17Z</time></trkpt><trkpt lat="38.73363034626259" lon="16.24700896958797"><ele>57.28571428571429</ele><time>2026-05-05T08:02:22Z</time></trkpt><trkpt lat="38.7336709242145" lon="16.246934759957078"><ele>55.714285714285715</ele><time>2026-05-05T08:02:27Z</time></trkpt><trkpt lat="38.73371565316951" lon="16.24687383035593"><ele>54.142857142857146</ele><time>2026-05-05T08:02:33Z</time></trkpt><trkpt lat="38.73377946910525" lon="16.24684230298249"><ele>52.57142857142857</ele><time>2026-05-05T08:02:38Z</time></trkpt><trkpt lat="38.73382935847764" lon="16.24677513694413"><ele>51.0</ele><time>2026-05-05T08:02:44Z</time></trkpt><trkpt lat="38.73387738816847" lon="16.246704227465724"><ele>51.0</ele><time>2026-05-05T08:02:49Z</time></trkpt><trkpt lat="38.733913798917136" lon="16.246619385757718"><ele>51.0</ele><time>2026-05-05T08:02:55Z</time></trkpt><trkpt lat="38.73396231354214" lon="16.24655458780801"><ele>51.0</ele><time>2026-05-05T08:02:59Z</time></trkpt><trkpt lat="38.73398454360106" lon="16.2464688680518"><ele>51.0</ele><time>2026-05-05T08:03:04Z</time></trkpt><trkpt lat="38.73398382763567" lon="16.246387950024182"><ele>51.0</ele><time>2026-05-05T08:03:09Z</time></trkpt><trkpt lat="38.73399005100633" lon="16.24628972600108"><ele>51.0</ele><time>2026-05-05T08:03:16Z</time></trkpt><trkpt lat="38.73400805727185" lon="16.246195926799405"><ele>51.0</ele><time>2026-05-05T08:03:22Z</time></trkpt><trkpt lat="38.73401548779285" lon="16.246113493807837"><ele>52.0</ele><time>2026-05-05T08:03:27Z</time></trkpt><trkpt lat="38.73405188188923" lon="16.246045385346424"><ele>53.0</ele><time>2026-05-05T08:03:31Z</time></trkpt><trkpt lat="38.73405628510109" lon="16.245953290305668"><ele>54.0</ele><time>2026-05-05T08:03:37Z</time></trkpt><trkpt lat="38.73408379802554" lon="16.24587620196112"><ele>55.0</ele><time>2026-05-05T08:03:46Z</time></trkpt><trkpt lat="38.734111092429025" lon="16.24579823564781"><ele>56.0</ele><time>2026-05-05T08:04:08Z</time></trkpt><trkpt lat="38.73410870158519" lon="16.245699258328155"><ele>57.00000000000001</ele><time>2026-05-05T08:04:19Z</time></trkpt><trkpt lat="38.734093560678815" lon="16.24560696397226"><ele>58.00000000000001</ele><time>2026-05-05T08:05:06Z</time></trkpt><trkpt lat="38.73413690066192" lon="16.245526825322084"><ele>59.28571428571429</ele><time>2026-05-05T08:05:13Z</time></trkpt><trkpt lat="38.73418316158118" lon="16.245469825766754"><ele>60.57142857142857</ele><time>2026-05-05T08:05:19Z</time></trkpt><trkpt lat="38.73421665128167" lon="16.24539729939507"><ele>61.85714285714286</ele><time>2026-05-05T08:05:25Z</time></trkpt><trkpt lat="38.73424879358921" lon="16.245316896879753"><ele>63.142857142857146</ele><time>2026-05-05T08:05:31Z</time></trkpt><trkpt lat="38.73429190409986" lon="16.245256703276326"><ele>64.42857142857143</ele><time>2026-05-05T08:05:36Z</time></trkpt><trkpt lat="38.734356259829994" lon="16.245210052155198"><ele>65.71428571428572</ele><time>2026-05-05T08:05:48Z</time></trkpt><trkpt lat="38.73439288820039" lon="16.245140740460617"><ele>67.0</ele><time>2026-05-05T08:05:55Z</time></trkpt><trkpt lat="38.73444781399305" lon="16.24509235868478"><ele>64.28571428571429</ele><time>2026-05-05T08:06:04Z</time></trkpt><trkpt lat="38.73449267269737" lon="16.24500899271221"><ele>61.57142857142857</ele><time>2026-05-05T08:06:10Z</time></trkpt><trkpt lat="38.7345186160056" lon="16.244927586971215"><ele>58.857142857142854</ele><time>2026-05-05T08:06:15Z</time></trkpt><trkpt lat="38.734538080889244" lon="16.244839144331685"><ele>56.14285714285714</ele><time>2026-05-05T08:06:19Z</time></trkpt><trkpt lat="38.73456390988349" lon="16.244759074918726"><ele>53.42857142857143</ele><time>2026-05-05T08:06:26Z</time></trkpt><trkpt lat="38.734593718304914" lon="16.244673077754307"><ele>50.71428571428571</ele><time>2026-05-05T08:06:31Z</time></trkpt><trkpt lat="38.73462832230535" lon="16.244587251634115"><ele>48.0</ele><time>2026-05-05T08:06:36Z</time></trkpt><trkpt lat="38.734649983325696" lon="16.244504108656116"><ele>47.99999999999999</ele><time>2026-05-05T08:06:40Z</time></trkpt><trkpt lat="38.734664956287986" lon="16.244415872532183"><ele>48.0</ele><time>2026-05-05T08:06:46Z</time></trkpt><trkpt lat="38.73467289740825" lon="16.244328148003774"><ele>48.0</ele><time>2026-05-05T08:06:51Z</time></trkpt><trkpt lat="38.73468874110134" lon="16.244248789258908"><ele>48.0</ele><time>2026-05-05T08:06:56Z</time></trkpt><trkpt lat="38.73471327493408" lon="16.244159593431856"><ele>48.0</ele><time>2026-05-05T08:07:02Z</time></trkpt><trkpt lat="38.73473353951437" lon="16.244067506071772"><ele>47.99999999999999</ele><time>2026-05-05T08:07:07Z</time></trkpt><trkpt lat="38.734735952496905" lon="16.243983783483078"><ele>48.0</ele><time>2026-05-05T08:07:13Z</time></trkpt><trkpt lat="38.73474480035486" lon="16.24389692121032"><ele>48.71428571428571</ele><time>2026-05-05T08:07:19Z</time></trkpt><trkpt lat="38.73476572180413" lon="16.243816076307706"><ele>49.42857142857143</ele><time>2026-05-05T08:07:25Z</time></trkpt><trkpt lat="38.734771203605646" lon="16.243726770157572"><ele>50.14285714285714</ele><time>2026-05-05T08:07:31Z</time></trkpt><trkpt lat="38.73478283787108" lon="16.24363791332554"><ele>50.857142857142854</ele><time>2026-05-05T08:07:42Z</time></trkpt><trkpt lat="38.73479339611875" lon="16.243551332695862"><ele>51.57142857142857</ele><time>2026-05-05T08:07:47Z</time></trkpt><trkpt lat="38.73480354323712" lon="16.243470902934465"><ele>52.285714285714285</ele><time>2026-05-05T08:07:52Z</time></trkpt><trkpt lat="38.73482816659679" lon="16.24339195297037"><ele>53.0</ele><time>2026-05-05T08:07:57Z</time></trkpt><trkpt lat="38.7348462346941" lon="16.243312223022286"><ele>53.0</ele><time>2026-05-05T08:08:03Z</time></trkpt><trkpt lat="38.734863234532064" lon="16.243224972183064"><ele>53.0</ele><time>2026-05-05T08:08:08Z</time></trkpt><trkpt lat="38.734881107711054" lon="16.243142626522392"><ele>53.0</ele><time>2026-05-05T08:08:14Z</time></trkpt><trkpt lat="38.73490316242195" lon="16.243064428425168"><ele>53.0</ele><time>2026-05-05T08:08:20Z</time></trkpt><trkpt lat="38.73494273435338" lon="16.24299426502246"><ele>53.0</ele><time>2026-05-05T08:08:25Z</time></trkpt><trkpt lat="38.734959032785476" lon="16.242901228213746"><ele>53.0</ele><time>2026-05-05T08:08:31Z</time></trkpt><trkpt lat="38.73497965121059" lon="16.242816465109076"><ele>53.0</ele><time>2026-05-05T08:08:35Z</time></trkpt><trkpt lat="38.734969942752855" lon="16.24271897234286"><ele>52.85714285714286</ele><time>2026-05-05T08:08:41Z</time></trkpt><trkpt lat="38.734952661186114" lon="16.242620981884286"><ele>52.71428571428571</ele><time>2026-05-05T08:08:46Z</time></trkpt><trkpt lat="38.73493830349377" lon="16.24252882061143"><ele>52.57142857142857</ele><time>2026-05-05T08:08:51Z</time></trkpt><trkpt lat="38.73491207654378" lon="16.242450614619592"><ele>52.42857142857143</ele><time>2026-05-05T08:08:57Z</time></trkpt><trkpt lat="38.73490118787567" lon="16.2423631554094"><ele>52.28571428571429</ele><time>2026-05-05T08:09:02Z</time></trkpt><trkpt lat="38.73489750962355" lon="16.242276016860142"><ele>52.14285714285714</ele><time>2026-05-05T08:09:07Z</time></trkpt><trkpt lat="38.73485844605089" lon="16.242207456273018"><ele>52.0</ele><time>2026-05-05T08:09:12Z</time></trkpt><trkpt lat="38.73481985982047" lon="16.242129041583755"><ele>51.0</ele><time>2026-05-05T08:09:18Z</time></trkpt><trkpt lat="38.73477720558653" lon="16.24206023436018"><ele>50.0</ele><time>2026-05-05T08:09:25Z</time></trkpt><trkpt lat="38.73474632179527" lon="16.241981782084565"><ele>49.0</ele><time>2026-05-05T08:09:30Z</time></trkpt><trkpt lat="38.73470628202399" lon="16.241907963430698"><ele>48.0</ele><time>2026-05-05T08:09:37Z</time></trkpt><trkpt lat="38.73468053643432" lon="16.241825933728823"><ele>47.0</ele><time>2026-05-05T08:09:42Z</time></trkpt><trkpt lat="38.734630657385" lon="16.241764783114856"><ele>46.0</ele><time>2026-05-05T08:09:47Z</time></trkpt><trkpt lat="38.73457129235285" lon="16.241722115406382"><ele>45.0</ele><time>2026-05-05T08:09:53Z</time></trkpt><trkpt lat="38.73453351382888" lon="16.241643418404614"><ele>45.0</ele><time>2026-05-05T08:10:00Z</time></trkpt><trkpt lat="38.73451572150891" lon="16.241553677284596"><ele>45.0</ele><time>2026-05-05T08:10:06Z</time></trkpt><trkpt lat="38.73449139779144" lon="16.241471996359124"><ele>45.0</ele><time>2026-05-05T08:10:12Z</time></trkpt><trkpt lat="38.734487054629085" lon="16.24138614089474"><ele>45.0</ele><time>2026-05-05T08:10:18Z</time></trkpt><trkpt lat="38.734472273984785" lon="16.24128954953264"><ele>45.0</ele><time>2026-05-05T08:10:24Z</time></trkpt><trkpt lat="38.734418505534364" lon="16.241211792203465"><ele>45.0</ele><time>2026-05-05T08:10:30Z</time></trkpt><trkpt lat="38.7343767663107" lon="16.241140197726438"><ele>45.0</ele><time>2026-05-05T08:10:35Z</time></trkpt><trkpt lat="38.734322368940134" lon="16.24107663549608"><ele>46.71428571428571</ele><time>2026-05-05T08:10:41Z</time></trkpt><trkpt lat="38.73427785044636" lon="16.241004858557215"><ele>48.42857142857143</ele><time>2026-05-05T08:10:47Z</time></trkpt><trkpt lat="38.73422690915917" lon="16.240936672699306"><ele>50.14285714285714</ele><time>2026-05-05T08:10:52Z</time></trkpt><trkpt lat="38.73417479727949" lon="16.24088136664374"><ele>51.857142857142854</ele><time>2026-05-05T08:10:57Z</time></trkpt><trkpt lat="38.734129219235626" lon="16.240815461789378"><ele>53.57142857142857</ele><time>2026-05-05T08:11:03Z</time></trkpt><trkpt lat="38.7340851740331" lon="16.24075767797481"><ele>55.285714285714285</ele><time>2026-05-05T08:11:08Z</time></trkpt><trkpt lat="38.73406746522906" lon="16.240675453260522"><ele>57.0</ele><time>2026-05-05T08:11:17Z</time></trkpt><trkpt lat="38.73408007959651" lon="16.240593611471574"><ele>57.0</ele><time>2026-05-05T08:11:22Z</time></trkpt><trkpt lat="38.7340624249377" lon="16.240515955171578"><ele>56.99999999999999</ele><time>2026-05-05T08:11:27Z</time></trkpt><trkpt lat="38.734060218297444" lon="16.240427313420987"><ele>57.0</ele><time>2026-05-05T08:11:34Z</time></trkpt><trkpt lat="38.73405989940986" lon="16.240342932012396"><ele>57.0</ele><time>2026-05-05T08:11:41Z</time></trkpt><trkpt lat="38.73407603507846" lon="16.240238215559938"><ele>56.99999999999999</ele><time>2026-05-05T08:11:46Z</time></trkpt><trkpt lat="38.73409073749446" lon="16.240157781671357"><ele>57.0</ele><time>2026-05-05T08:11:50Z</time></trkpt><trkpt lat="38.73407962399887" lon="16.240060964046474"><ele>57.0</ele><time>2026-05-05T08:11:59Z</time></trkpt><trkpt lat="38.73410382292301" lon="16.239980442562448"><ele>57.0</ele><time>2026-05-05T08:12:04Z</time></trkpt><trkpt lat="38.734150881554996" lon="16.23990819570914"><ele>56.99999999999999</ele><time>2026-05-05T08:12:07Z</time></trkpt><trkpt lat="38.734203219246965" lon="16.23984844199481"><ele>57.0</ele><time>2026-05-05T08:12:14Z</time></trkpt><trkpt lat="38.73424845990532" lon="16.23977998817181"><ele>57.0</ele><time>2026-05-05T08:12:20Z</time></trkpt><trkpt lat="38.734278261296566" lon="16.239690344872272"><ele>56.99999999999999</ele><time>2026-05-05T08:12:26Z</time></trkpt><trkpt lat="38.73428755351656" lon="16.239608342194213"><ele>57.0</ele><time>2026-05-05T08:12:31Z</time></trkpt><trkpt lat="38.73430773039756" lon="16.23950769215481"><ele>57.0</ele><time>2026-05-05T08:12:36Z</time></trkpt><trkpt lat="38.734306347978396" lon="16.239407064929214"><ele>56.57142857142857</ele><time>2026-05-05T08:12:43Z</time></trkpt><trkpt lat="38.73431696239645" lon="16.239318884322245"><ele>56.14285714285714</ele><time>2026-05-05T08:12:50Z</time></trkpt><trkpt lat="38.73434906840907" lon="16.239249055250703"><ele>55.71428571428571</ele><time>2026-05-05T08:12:55Z</time></trkpt><trkpt lat="38.7343467256909" lon="16.239159184655076"><ele>55.285714285714285</ele><time>2026-05-05T08:12:59Z</time></trkpt><trkpt lat="38.734395706438725" lon="16.239076788096373"><ele>54.857142857142854</ele><time>2026-05-05T08:13:06Z</time></trkpt><trkpt lat="38.73440886709168" lon="16.238986959014063"><ele>54.42857142857143</ele><time>2026-05-05T08:13:14Z</time></trkpt><trkpt lat="38.734402521037595" lon="16.238891181558024"><ele>54.0</ele><time>2026-05-05T08:13:18Z</time></trkpt><trkpt lat="38.734398431841534" lon="16.238778180110867"><ele>54.0</ele><time>2026-05-05T08:13:24Z</time></trkpt><trkpt lat="38.73437984021704" lon="16.23870086369453"><ele>54.0</ele><time>2026-05-05T08:13:29Z</time></trkpt><trkpt lat="38.734398912200234" lon="16.23862321312109"><ele>54.0</ele><time>2026-05-05T08:13:38Z</time></trkpt><trkpt lat="38.73442374696923" lon="16.23852312028732"><ele>54.0</ele><time>2026-05-05T08:13:45Z</time></trkpt><trkpt lat="38.73443879891908" lon="16.238440722073427"><ele>54.0</ele><time>2026-05-05T08:13:51Z</time></trkpt><trkpt lat="38.73445614586679" lon="16.23835746007858"><ele>54.0</ele><time>2026-05-05T08:13:54Z</time></trkpt><trkpt lat="38.734417367490096" lon="16.238290239896273"><ele>54.0</ele><time>2026-05-05T08:14:00Z</time></trkpt><trkpt lat="38.73437243941285" lon="16.23822237193315"><ele>54.0</ele><time>2026-05-05T08:14:04Z</time></trkpt><trkpt lat="38.73435675265541" lon="16.238140937793702"><ele>54.0</ele><time>2026-05-05T08:14:10Z</time></trkpt><trkpt lat="38.73436212688087" lon="16.23804405559804"><ele>54.0</ele><time>2026-05-05T08:14:19Z</time></trkpt><trkpt lat="38.73433963113767" lon="16.237941357333813"><ele>54.0</ele><time>2026-05-05T08:14:25Z</time></trkpt><trkpt lat="38.73434724389916" lon="16.23785957503357"><ele>54.0</ele><time>2026-05-05T08:14:30Z</time></trkpt><trkpt lat="38.73432871495488" lon="16.237777082558775"><ele>54.0</ele><time>2026-05-05T08:14:35Z</time></trkpt><trkpt lat="38.73432336544985" lon="16.237694716001588"><ele>54.0</ele><time>2026-05-05T08:14:39Z</time></trkpt><trkpt lat="38.734307239484416" lon="16.237616168614625"><ele>54.57142857142857</ele><time>2026-05-05T08:14:44Z</time></trkpt><trkpt lat="38.73431673851448" lon="16.237524781352775"><ele>55.14285714285714</ele><time>2026-05-05T08:14:50Z</time></trkpt><trkpt lat="38.73433760452364" lon="16.237437127016076"><ele>55.71428571428572</ele><time>2026-05-05T08:14:55Z</time></trkpt><trkpt lat="38.73434858545501" lon="16.23734726259618"><ele>56.28571428571429</ele><time>2026-05-05T08:15:01Z</time></trkpt><trkpt lat="38.73440390358192" lon="16.237287260103326"><ele>56.85714285714286</ele><time>2026-05-05T08:15:09Z</time></trkpt><trkpt lat="38.73446885323766" lon="16.23725641552358"><ele>57.42857142857144</ele><time>2026-05-05T08:15:15Z</time></trkpt><trkpt lat="38.73452906949081" lon="16.237223526908227"><ele>58.00000000000001</ele><time>2026-05-05T08:15:19Z</time></trkpt><trkpt lat="38.73458180881651" lon="16.23717226398145"><ele>58.42857142857144</ele><time>2026-05-05T08:15:22Z</time></trkpt><trkpt lat="38.73464731481347" lon="16.23713248363487"><ele>58.85714285714286</ele><time>2026-05-05T08:15:26Z</time></trkpt><trkpt lat="38.73471729909762" lon="16.237136307043656"><ele>59.285714285714285</ele><time>2026-05-05T08:15:34Z</time></trkpt><trkpt lat="38.73479909768659" lon="16.237139411361323"><ele>59.714285714285715</ele><time>2026-05-05T08:15:40Z</time></trkpt><trkpt lat="38.73486291204536" lon="16.23714948564024"><ele>60.14285714285714</ele><time>2026-05-05T08:15:46Z</time></trkpt><trkpt lat="38.734934791973515" lon="16.237090104460385"><ele>60.57142857142856</ele><time>2026-05-05T08:16:27Z</time></trkpt><trkpt lat="38.735008963654664" lon="16.237078905162896"><ele>60.99999999999999</ele><time>2026-05-05T08:16:34Z</time></trkpt><trkpt lat="38.73512535201035" lon="16.237063388011553"><ele>57.75</ele><time>2026-05-05T08:16:44Z</time></trkpt><trkpt lat="38.73528949438798" lon="16.237069014048355"><ele>54.5</ele><time>2026-05-05T08:17:02Z</time></trkpt><trkpt lat="38.73534688096444" lon="16.23701198544846"><ele>51.25</ele><time>2026-05-05T08:17:12Z</time></trkpt><trkpt lat="38.735401077058256" lon="16.236958077359198"><ele>48.0</ele><time>2026-05-05T08:17:17Z</time></trkpt><trkpt lat="38.73556282181827" lon="16.23680221750895"><ele>47.99999999999999</ele><time>2026-05-05T08:17:34Z</time></trkpt><trkpt lat="38.735594929951304" lon="16.236725109668395"><ele>48.0</ele><time>2026-05-05T08:17:40Z</time></trkpt><trkpt lat="38.73561640083896" lon="16.23664158994036"><ele>48.0</ele><time>2026-05-05T08:17:46Z</time></trkpt><trkpt lat="38.73564597467202" lon="16.236548273133277"><ele>48.0</ele><time>2026-05-05T08:17:52Z</time></trkpt><trkpt lat="38.73566201189013" lon="16.236460413772093"><ele>48.0</ele><time>2026-05-05T08:18:01Z</time></trkpt><trkpt lat="38.73569594539426" lon="16.236376261017504"><ele>47.99999999999999</ele><time>2026-05-05T08:18:07Z</time></trkpt><trkpt lat="38.73569429194466" lon="16.236291058468048"><ele>48.0</ele><time>2026-05-05T08:18:13Z</time></trkpt><trkpt lat="38.735694305136775" lon="16.236202362089553"><ele>48.14285714285714</ele><time>2026-05-05T08:18:22Z</time></trkpt><trkpt lat="38.7356976837164" lon="16.236114323133386"><ele>48.285714285714285</ele><time>2026-05-05T08:18:27Z</time></trkpt><trkpt lat="38.73571475458042" lon="16.23603417096051"><ele>48.42857142857143</ele><time>2026-05-05T08:18:32Z</time></trkpt><trkpt lat="38.735762809933824" lon="16.235951973317242"><ele>48.57142857142857</ele><time>2026-05-05T08:18:39Z</time></trkpt><trkpt lat="38.735783690251026" lon="16.23586935269124"><ele>48.714285714285715</ele><time>2026-05-05T08:18:44Z</time></trkpt><trkpt lat="38.73579231732202" lon="16.235776750581177"><ele>48.857142857142854</ele><time>2026-05-05T08:18:50Z</time></trkpt><trkpt lat="38.73581782193487" lon="16.235689954896745"><ele>49.0</ele><time>2026-05-05T08:18:55Z</time></trkpt><trkpt lat="38.7358429921247" lon="16.23560486612714"><ele>49.0</ele><time>2026-05-05T08:19:01Z</time></trkpt><trkpt lat="38.735871173634386" lon="16.235522003487983"><ele>49.0</ele><time>2026-05-05T08:19:07Z</time></trkpt><trkpt lat="38.73590631503525" lon="16.2354457141409"><ele>49.0</ele><time>2026-05-05T08:19:13Z</time></trkpt><trkpt lat="38.73592258475839" lon="16.235365026497334"><ele>49.0</ele><time>2026-05-05T08:19:35Z</time></trkpt><trkpt lat="38.73586043190667" lon="16.235305791942753"><ele>49.0</ele><time>2026-05-05T08:19:49Z</time></trkpt><trkpt lat="38.73583729567604" lon="16.235229454057897"><ele>49.0</ele><time>2026-05-05T08:19:56Z</time></trkpt><trkpt lat="38.735795011260976" lon="16.235168684766048"><ele>49.0</ele><time>2026-05-05T08:20:02Z</time></trkpt><trkpt lat="38.73575968769196" lon="16.235091316500363"><ele>49.0</ele><time>2026-05-05T08:20:09Z</time></trkpt><trkpt lat="38.73570076832105" lon="16.235026369770654"><ele>49.0</ele><time>2026-05-05T08:20:14Z</time></trkpt><trkpt lat="38.735672553739825" lon="16.234945367178327"><ele>49.0</ele><time>2026-05-05T08:20:21Z</time></trkpt><trkpt lat="38.73563865992245" lon="16.234855479200114"><ele>49.0</ele><time>2026-05-05T08:20:28Z</time></trkpt><trkpt lat="38.7356006194301" lon="16.234781412328477"><ele>49.0</ele><time>2026-05-05T08:20:34Z</time></trkpt><trkpt lat="38.7355445558227" lon="16.234743154419593"><ele>49.0</ele><time>2026-05-05T08:20:44Z</time></trkpt><trkpt lat="38.73551166604736" lon="16.23467423320341"><ele>49.0</ele><time>2026-05-05T08:20:50Z</time></trkpt><trkpt lat="38.73547996599298" lon="16.23459107377153"><ele>50.714285714285715</ele><time>2026-05-05T08:20:55Z</time></trkpt><trkpt lat="38.73543697343171" lon="16.234525823517174"><ele>52.42857142857143</ele><time>2026-05-05T08:21:00Z</time></trkpt><trkpt lat="38.73539398888435" lon="16.2344611594618"><ele>54.14285714285714</ele><time>2026-05-05T08:21:06Z</time></trkpt><trkpt lat="38.73535380026686" lon="16.23439596254195"><ele>55.857142857142854</ele><time>2026-05-05T08:21:11Z</time></trkpt><trkpt lat="38.73531132067434" lon="16.23432724537031"><ele>57.57142857142857</ele><time>2026-05-05T08:21:17Z</time></trkpt><trkpt lat="38.735262060498755" lon="16.23426408891862"><ele>59.28571428571428</ele><time>2026-05-05T08:21:23Z</time></trkpt><trkpt lat="38.73524337356268" lon="16.23417712541818"><ele>60.99999999999999</ele><time>2026-05-05T08:21:29Z</time></trkpt><trkpt lat="38.73521553059021" lon="16.234090434431696"><ele>60.99999999999999</ele><time>2026-05-05T08:21:36Z</time></trkpt><trkpt lat="38.7351702488932" lon="16.234027717426624"><ele>61.0</ele><time>2026-05-05T08:21:42Z</time></trkpt><trkpt lat="38.73512215364923" lon="16.233942896889637"><ele>60.99999999999999</ele><time>2026-05-05T08:21:49Z</time></trkpt><trkpt lat="38.735084418307" lon="16.233876843173654"><ele>60.99999999999999</ele><time>2026-05-05T08:22:01Z</time></trkpt><trkpt lat="38.73504272732198" lon="16.23379163369176"><ele>61.0</ele><time>2026-05-05T08:22:07Z</time></trkpt><trkpt lat="38.73504600727009" lon="16.233706152719677"><ele>60.99999999999999</ele><time>2026-05-05T08:22:15Z</time></trkpt><trkpt lat="38.73501997079763" lon="16.23362774848712"><ele>60.99999999999999</ele><time>2026-05-05T08:22:21Z</time></trkpt><trkpt lat="38.7350193874173" lon="16.233529615574096"><ele>59.57142857142856</ele><time>2026-05-05T08:22:27Z</time></trkpt><trkpt lat="38.734993772630666" lon="16.233455286155806"><ele>58.14285714285714</ele><time>2026-05-05T08:22:33Z</time></trkpt><trkpt lat="38.7349576916142" lon="16.233369261761585"><ele>56.71428571428571</ele><time>2026-05-05T08:22:39Z</time></trkpt><trkpt lat="38.73490870384552" lon="16.233313880672213"><ele>55.28571428571428</ele><time>2026-05-05T08:22:45Z</time></trkpt><trkpt lat="38.73485352811726" lon="16.23326794620374"><ele>53.85714285714286</ele><time>2026-05-05T08:22:50Z</time></trkpt><trkpt lat="38.73480272200491" lon="16.233217994866468"><ele>52.42857142857143</ele><time>2026-05-05T08:22:56Z</time></trkpt><trkpt lat="38.73474315744898" lon="16.233182790133952"><ele>51.0</ele><time>2026-05-05T08:23:01Z</time></trkpt><trkpt lat="38.734681992560304" lon="16.23314753066322"><ele>50.42857142857143</ele><time>2026-05-05T08:23:09Z</time></trkpt><trkpt lat="38.7346253429541" lon="16.233110074784072"><ele>49.85714285714286</ele><time>2026-05-05T08:23:15Z</time></trkpt><trkpt lat="38.73456881509841" lon="16.233045456418388"><ele>49.285714285714285</ele><time>2026-05-05T08:23:21Z</time></trkpt><trkpt lat="38.73452040882388" lon="16.232993134504213"><ele>48.714285714285715</ele><time>2026-05-05T08:23:27Z</time></trkpt><trkpt lat="38.73445772314401" lon="16.23297889039448"><ele>48.14285714285714</ele><time>2026-05-05T08:23:32Z</time></trkpt><trkpt lat="38.734396091700624" lon="16.232945567647995"><ele>47.57142857142857</ele><time>2026-05-05T08:23:37Z</time></trkpt><trkpt lat="38.73432444260424" lon="16.232915889545563"><ele>47.0</ele><time>2026-05-05T08:23:43Z</time></trkpt><trkpt lat="38.734274820538545" lon="16.232863144606647"><ele>47.0</ele><time>2026-05-05T08:23:48Z</time></trkpt><trkpt lat="38.73422437461938" lon="16.23280833080694"><ele>47.0</ele><time>2026-05-05T08:23:54Z</time></trkpt><trkpt lat="38.73416647508753" lon="16.232773813984128"><ele>47.0</ele><time>2026-05-05T08:23:59Z</time></trkpt><trkpt lat="38.73410446543649" lon="16.23273839098675"><ele>47.0</ele><time>2026-05-05T08:24:04Z</time></trkpt><trkpt lat="38.73404751891722" lon="16.232701469785106"><ele>47.0</ele><time>2026-05-05T08:24:11Z</time></trkpt><trkpt lat="38.734001891664164" lon="16.23264434728393"><ele>47.0</ele><time>2026-05-05T08:24:17Z</time></trkpt><trkpt lat="38.73396061042394" lon="16.232579150204263"><ele>47.0</ele><time>2026-05-05T08:24:23Z</time></trkpt><trkpt lat="38.733895941811156" lon="16.23254029573333"><ele>47.0</ele><time>2026-05-05T08:24:27Z</time></trkpt><trkpt lat="38.73383169739765" lon="16.232485876294767"><ele>47.0</ele><time>2026-05-05T08:24:33Z</time></trkpt><trkpt lat="38.7337650602024" lon="16.232458001581595"><ele>47.0</ele><time>2026-05-05T08:24:38Z</time></trkpt><trkpt lat="38.73369616897154" lon="16.232435235882242"><ele>47.0</ele><time>2026-05-05T08:24:46Z</time></trkpt><trkpt lat="38.73363212597327" lon="16.232412424546688"><ele>47.0</ele><time>2026-05-05T08:24:52Z</time></trkpt><trkpt lat="38.73355474966514" lon="16.232441843130992"><ele>47.0</ele><time>2026-05-05T08:24:58Z</time></trkpt><trkpt lat="38.73349127284528" lon="16.232455069832376"><ele>47.0</ele><time>2026-05-05T08:25:04Z</time></trkpt><trkpt lat="38.733425215737455" lon="16.232447823781204"><ele>47.0</ele><time>2026-05-05T08:25:12Z</time></trkpt><trkpt lat="38.73335792940808" lon="16.232413599682623"><ele>47.0</ele><time>2026-05-05T08:25:19Z</time></trkpt><trkpt lat="38.7332893809642" lon="16.232381195284287"><ele>47.0</ele><time>2026-05-05T08:25:26Z</time></trkpt><trkpt lat="38.73322872409097" lon="16.232359552642016"><ele>47.0</ele><time>2026-05-05T08:25:45Z</time></trkpt><trkpt lat="38.73316691411636" lon="16.232329840410475"><ele>47.0</ele><time>2026-05-05T08:25:51Z</time></trkpt><trkpt lat="38.73322089725321" lon="16.232375900449526"><ele>47.0</ele><time>2026-05-05T08:27:10Z</time></trkpt><trkpt lat="38.73328427153424" lon="16.23235271691116"><ele>47.0</ele><time>2026-05-05T08:27:36Z</time></trkpt><trkpt lat="38.733231545515245" lon="16.232302974406004"><ele>47.0</ele><time>2026-05-05T08:27:42Z</time></trkpt><trkpt lat="38.73316238326036" lon="16.232278263825016"><ele>47.0</ele><time>2026-05-05T08:27:48Z</time></trkpt><trkpt lat="38.7331020620089" lon="16.232367671027337"><ele>47.0</ele><time>2026-05-05T08:29:03Z</time></trkpt><trkpt lat="38.73307238275062" lon="16.23228906382852"><ele>47.0</ele><time>2026-05-05T08:29:09Z</time></trkpt><trkpt lat="38.73302687728286" lon="16.232215275680492"><ele>47.0</ele><time>2026-05-05T08:29:15Z</time></trkpt><trkpt lat="38.73299117530898" lon="16.232141963110635"><ele>47.0</ele><time>2026-05-05T08:29:20Z</time></trkpt><trkpt lat="38.73295456334085" lon="16.232072913982837"><ele>47.0</ele><time>2026-05-05T08:29:26Z</time></trkpt><trkpt lat="38.73289670268447" lon="16.232007391482323"><ele>47.0</ele><time>2026-05-05T08:29:32Z</time></trkpt><trkpt lat="38.7328352645384" lon="16.231958666325696"><ele>47.0</ele><time>2026-05-05T08:29:38Z</time></trkpt><trkpt lat="38.73280057573015" lon="16.2318908408642"><ele>47.0</ele><time>2026-05-05T08:29:43Z</time></trkpt><trkpt lat="38.73275562814891" lon="16.23181057825567"><ele>47.0</ele><time>2026-05-05T08:29:49Z</time></trkpt><trkpt lat="38.73270711506879" lon="16.231755140437855"><ele>47.0</ele><time>2026-05-05T08:29:55Z</time></trkpt><trkpt lat="38.73266867680709" lon="16.231690022968692"><ele>47.0</ele><time>2026-05-05T08:30:00Z</time></trkpt><trkpt lat="38.732622495797436" lon="16.231613460661166"><ele>47.0</ele><time>2026-05-05T08:30:06Z</time></trkpt><trkpt lat="38.73258709680038" lon="16.231546483242713"><ele>47.714285714285715</ele><time>2026-05-05T08:30:10Z</time></trkpt><trkpt lat="38.73254968028196" lon="16.231477382579058"><ele>48.42857142857143</ele><time>2026-05-05T08:30:16Z</time></trkpt><trkpt lat="38.732540415257624" lon="16.231393566511436"><ele>49.14285714285714</ele><time>2026-05-05T08:30:21Z</time></trkpt><trkpt lat="38.73251899144609" lon="16.231307163752124"><ele>49.85714285714286</ele><time>2026-05-05T08:30:27Z</time></trkpt><trkpt lat="38.73250010370102" lon="16.231219129654736"><ele>50.57142857142858</ele><time>2026-05-05T08:30:32Z</time></trkpt><trkpt lat="38.73249386619491" lon="16.231130410831053"><ele>51.285714285714285</ele><time>2026-05-05T08:30:38Z</time></trkpt><trkpt lat="38.73248223032148" lon="16.231042699010978"><ele>52.0</ele><time>2026-05-05T08:30:44Z</time></trkpt><trkpt lat="38.73247741388563" lon="16.23095816747172"><ele>52.0</ele><time>2026-05-05T08:30:49Z</time></trkpt><trkpt lat="38.73248636389408" lon="16.230868687787904"><ele>52.0</ele><time>2026-05-05T08:30:55Z</time></trkpt><trkpt lat="38.73249817161841" lon="16.230776695595093"><ele>52.0</ele><time>2026-05-05T08:31:00Z</time></trkpt><trkpt lat="38.7325142511344" lon="16.230698369641843"><ele>52.0</ele><time>2026-05-05T08:31:06Z</time></trkpt><trkpt lat="38.73253794783117" lon="16.23060560917068"><ele>52.0</ele><time>2026-05-05T08:31:12Z</time></trkpt><trkpt lat="38.73257315792392" lon="16.230528842670168"><ele>52.0</ele><time>2026-05-05T08:31:18Z</time></trkpt><trkpt lat="38.73260385448337" lon="16.23045113171384"><ele>52.0</ele><time>2026-05-05T08:31:23Z</time></trkpt><trkpt lat="38.73264075741387" lon="16.23038127487214"><ele>51.714285714285715</ele><time>2026-05-05T08:31:28Z</time></trkpt><trkpt lat="38.73267752515254" lon="16.23030492599114"><ele>51.42857142857143</ele><time>2026-05-05T08:31:34Z</time></trkpt><trkpt lat="38.73272007311401" lon="16.230232439872044"><ele>51.142857142857146</ele><time>2026-05-05T08:31:40Z</time></trkpt><trkpt lat="38.73276383977304" lon="16.230160516509557"><ele>50.85714285714286</ele><time>2026-05-05T08:31:46Z</time></trkpt><trkpt lat="38.732811153686626" lon="16.23009221287043"><ele>50.57142857142857</ele><time>2026-05-05T08:31:51Z</time></trkpt><trkpt lat="38.73285424830832" lon="16.2300157203355"><ele>50.28571428571429</ele><time>2026-05-05T08:31:57Z</time></trkpt><trkpt lat="38.73289781074325" lon="16.22994375791943"><ele>50.0</ele><time>2026-05-05T08:32:02Z</time></trkpt><trkpt lat="38.73294113659749" lon="16.22987667727071"><ele>49.00000000000001</ele><time>2026-05-05T08:32:08Z</time></trkpt><trkpt lat="38.732975704949936" lon="16.229807371906617"><ele>48.0</ele><time>2026-05-05T08:32:19Z</time></trkpt><trkpt lat="38.73302460856649" lon="16.229736594717778"><ele>47.0</ele><time>2026-05-05T08:32:25Z</time></trkpt><trkpt lat="38.73307389290163" lon="16.229666624813582"><ele>46.0</ele><time>2026-05-05T08:32:31Z</time></trkpt><trkpt lat="38.73312335264787" lon="16.229590423655722"><ele>45.0</ele><time>2026-05-05T08:32:38Z</time></trkpt><trkpt lat="38.73316727007496" lon="16.2295192718385"><ele>44.00000000000001</ele><time>2026-05-05T08:32:43Z</time></trkpt><trkpt lat="38.73320335025323" lon="16.22945310700387"><ele>43.0</ele><time>2026-05-05T08:32:48Z</time></trkpt><trkpt lat="38.733250540424386" lon="16.22938885058497"><ele>43.00000000000001</ele><time>2026-05-05T08:32:53Z</time></trkpt><trkpt lat="38.733286816480195" lon="16.22931880636472"><ele>43.0</ele><time>2026-05-05T08:32:58Z</time></trkpt><trkpt lat="38.73333719272175" lon="16.22925076339962"><ele>43.0</ele><time>2026-05-05T08:33:04Z</time></trkpt><trkpt lat="38.73339402941057" lon="16.22919210700746"><ele>43.0</ele><time>2026-05-05T08:33:10Z</time></trkpt><trkpt lat="38.733454276815024" lon="16.229143011483085"><ele>43.0</ele><time>2026-05-05T08:33:16Z</time></trkpt><trkpt lat="38.73351974874027" lon="16.229114976777154"><ele>43.00000000000001</ele><time>2026-05-05T08:33:22Z</time></trkpt><trkpt lat="38.73358857668444" lon="16.22906714101496"><ele>43.0</ele><time>2026-05-05T08:33:28Z</time></trkpt><trkpt lat="38.733647678379846" lon="16.229033805420837"><ele>44.00000000000001</ele><time>2026-05-05T08:33:33Z</time></trkpt><trkpt lat="38.73370811022498" lon="16.228999063744716"><ele>45.0</ele><time>2026-05-05T08:33:38Z</time></trkpt><trkpt lat="38.733779077020664" lon="16.228971189217848"><ele>46.0</ele><time>2026-05-05T08:33:44Z</time></trkpt><trkpt lat="38.733851622358" lon="16.228956523622355"><ele>47.0</ele><time>2026-05-05T08:33:50Z</time></trkpt><trkpt lat="38.73391455076648" lon="16.22894210880541"><ele>48.0</ele><time>2026-05-05T08:33:54Z</time></trkpt><trkpt lat="38.73398355368898" lon="16.22894112187192"><ele>49.00000000000001</ele><time>2026-05-05T08:34:00Z</time></trkpt><trkpt lat="38.73406518900846" lon="16.228944170521082"><ele>50.0</ele><time>2026-05-05T08:34:06Z</time></trkpt><trkpt lat="38.73416287478632" lon="16.22895530145367"><ele>50.00000000000001</ele><time>2026-05-05T08:34:15Z</time></trkpt><trkpt lat="38.734227235791344" lon="16.228996038991866"><ele>50.0</ele><time>2026-05-05T08:34:21Z</time></trkpt><trkpt lat="38.734268111941695" lon="16.2290731738518"><ele>50.0</ele><time>2026-05-05T08:34:28Z</time></trkpt><trkpt lat="38.73431064397289" lon="16.22913823703974"><ele>50.0</ele><time>2026-05-05T08:34:33Z</time></trkpt><trkpt lat="38.734330951032426" lon="16.229237927309576"><ele>50.00000000000001</ele><time>2026-05-05T08:34:39Z</time></trkpt><trkpt lat="38.73441955219771" lon="16.229314409678064"><ele>50.0</ele><time>2026-05-05T08:35:50Z</time></trkpt><trkpt lat="38.734422311226844" lon="16.229403606850447"><ele>51.71428571428572</ele><time>2026-05-05T08:35:57Z</time></trkpt><trkpt lat="38.73446885711409" lon="16.229458879713494"><ele>53.42857142857143</ele><time>2026-05-05T08:36:04Z</time></trkpt><trkpt lat="38.73452099371067" lon="16.229507968444633"><ele>55.142857142857146</ele><time>2026-05-05T08:36:11Z</time></trkpt><trkpt lat="38.73457270412479" lon="16.22957688062824"><ele>56.85714285714286</ele><time>2026-05-05T08:36:17Z</time></trkpt><trkpt lat="38.734624571916854" lon="16.22963962374974"><ele>58.57142857142858</ele><time>2026-05-05T08:36:23Z</time></trkpt><trkpt lat="38.73468602442767" lon="16.22968472719067"><ele>60.28571428571429</ele><time>2026-05-05T08:36:29Z</time></trkpt><trkpt lat="38.73474665306699" lon="16.22972596993891"><ele>62.0</ele><time>2026-05-05T08:36:35Z</time></trkpt><trkpt lat="38.734805330271925" lon="16.229766019292253"><ele>62.0</ele><time>2026-05-05T08:36:41Z</time></trkpt><trkpt lat="38.73487329079785" lon="16.22980052310659"><ele>62.00000000000001</ele><time>2026-05-05T08:36:47Z</time></trkpt><trkpt lat="38.73492921518501" lon="16.229841422111434"><ele>62.0</ele><time>2026-05-05T08:36:53Z</time></trkpt><trkpt lat="38.734981848436504" lon="16.229904937370044"><ele>62.0</ele><time>2026-05-05T08:36:59Z</time></trkpt><trkpt lat="38.735042139637365" lon="16.229944373818384"><ele>62.00000000000001</ele><time>2026-05-05T08:37:04Z</time></trkpt><trkpt lat="38.73511575241465" lon="16.22996811881572"><ele>62.0</ele><time>2026-05-05T08:37:10Z</time></trkpt><trkpt lat="38.73518233599559" lon="16.229997732329856"><ele>62.0</ele><time>2026-05-05T08:37:16Z</time></trkpt><trkpt lat="38.73524246637212" lon="16.23004937922239"><ele>61.714285714285715</ele><time>2026-05-05T08:37:22Z</time></trkpt><trkpt lat="38.73530054467532" lon="16.230100995652762"><ele>61.42857142857143</ele><time>2026-05-05T08:37:27Z</time></trkpt><trkpt lat="38.735365551244996" lon="16.230142116750777"><ele>61.142857142857146</ele><time>2026-05-05T08:37:34Z</time></trkpt><trkpt lat="38.73542515141347" lon="16.230175100286445"><ele>60.85714285714286</ele><time>2026-05-05T08:37:40Z</time></trkpt><trkpt lat="38.73548133914683" lon="16.230214300676895"><ele>60.57142857142857</ele><time>2026-05-05T08:37:46Z</time></trkpt><trkpt lat="38.735534701076304" lon="16.23026952895102"><ele>60.28571428571429</ele><time>2026-05-05T08:37:53Z</time></trkpt><trkpt lat="38.735583398089005" lon="16.230336179658295"><ele>60.0</ele><time>2026-05-05T08:38:01Z</time></trkpt><trkpt lat="38.735615901407705" lon="16.230406500155322"><ele>60.0</ele><time>2026-05-05T08:38:07Z</time></trkpt><trkpt lat="38.735663014573106" lon="16.23046058796571"><ele>60.0</ele><time>2026-05-05T08:38:12Z</time></trkpt><trkpt lat="38.73569946383093" lon="16.23053919442883"><ele>60.0</ele><time>2026-05-05T08:38:18Z</time></trkpt><trkpt lat="38.735758021336494" lon="16.230593934131015"><ele>60.0</ele><time>2026-05-05T08:38:24Z</time></trkpt><trkpt lat="38.73581248674583" lon="16.23065271478687"><ele>60.0</ele><time>2026-05-05T08:38:31Z</time></trkpt><trkpt lat="38.735853996077196" lon="16.230733238958027"><ele>60.0</ele><time>2026-05-05T08:38:38Z</time></trkpt><trkpt lat="38.73592425021788" lon="16.230773907155314"><ele>60.0</ele><time>2026-05-05T08:38:44Z</time></trkpt><trkpt lat="38.7359923576031" lon="16.230793281727834"><ele>59.42857142857143</ele><time>2026-05-05T08:38:50Z</time></trkpt><trkpt lat="38.73605830337556" lon="16.230816856691842"><ele>58.857142857142854</ele><time>2026-05-05T08:38:56Z</time></trkpt><trkpt lat="38.73611832966797" lon="16.230854154611002"><ele>58.285714285714285</ele><time>2026-05-05T08:39:02Z</time></trkpt><trkpt lat="38.73618511206257" lon="16.23089447313385"><ele>57.714285714285715</ele><time>2026-05-05T08:39:09Z</time></trkpt><trkpt lat="38.73624646757152" lon="16.230929584058917"><ele>57.14285714285714</ele><time>2026-05-05T08:39:15Z</time></trkpt><trkpt lat="38.73631096399751" lon="16.23097362402869"><ele>56.57142857142857</ele><time>2026-05-05T08:39:21Z</time></trkpt><trkpt lat="38.736366981389594" lon="16.231030625549263"><ele>56.0</ele><time>2026-05-05T08:39:27Z</time></trkpt><trkpt lat="38.73641878188425" lon="16.231083621984528"><ele>56.0</ele><time>2026-05-05T08:39:33Z</time></trkpt><trkpt lat="38.73657938563356" lon="16.231082743514403"><ele>55.99999999999999</ele><time>2026-05-05T08:39:48Z</time></trkpt><trkpt lat="38.73662785092555" lon="16.2310257456431"><ele>55.99999999999999</ele><time>2026-05-05T08:39:54Z</time></trkpt><trkpt lat="38.73667849021617" lon="16.230927358264623"><ele>56.0</ele><time>2026-05-05T08:40:04Z</time></trkpt><trkpt lat="38.73669354068554" lon="16.230845830601854"><ele>56.0</ele><time>2026-05-05T08:40:12Z</time></trkpt><trkpt lat="38.73671693210365" lon="16.23076049356574"><ele>56.0</ele><time>2026-05-05T08:40:20Z</time></trkpt><trkpt lat="38.736738848162645" lon="16.230668679489625"><ele>56.0</ele><time>2026-05-05T08:40:28Z</time></trkpt><trkpt lat="38.73675432833613" lon="16.230588511134506"><ele>56.0</ele><time>2026-05-05T08:40:33Z</time></trkpt><trkpt lat="38.73676059358357" lon="16.230493584177214"><ele>56.0</ele><time>2026-05-05T08:40:40Z</time></trkpt><trkpt lat="38.73679022877222" lon="16.23041989390637"><ele>56.0</ele><time>2026-05-05T08:52:59Z</time></trkpt><trkpt lat="38.736840428074316" lon="16.230355493288908"><ele>56.0</ele><time>2026-05-05T08:53:05Z</time></trkpt><trkpt lat="38.736887738561805" lon="16.230293630861368"><ele>56.0</ele><time>2026-05-05T08:53:12Z</time></trkpt><trkpt lat="38.73694103567441" lon="16.23023707879457"><ele>55.42857142857143</ele><time>2026-05-05T08:53:18Z</time></trkpt><trkpt lat="38.736985660443196" lon="16.230167061586034"><ele>54.85714285714286</ele><time>2026-05-05T08:53:25Z</time></trkpt><trkpt lat="38.73701431722681" lon="16.230083629209652"><ele>54.285714285714285</ele><time>2026-05-05T08:53:32Z</time></trkpt><trkpt lat="38.737029972617535" lon="16.23000345893643"><ele>53.714285714285715</ele><time>2026-05-05T08:53:38Z</time></trkpt><trkpt lat="38.737045689459016" lon="16.22991999515592"><ele>53.142857142857146</ele><time>2026-05-05T08:53:45Z</time></trkpt><trkpt lat="38.73712185636027" lon="16.22986151946451"><ele>52.57142857142857</ele><time>2026-05-05T08:53:57Z</time></trkpt><trkpt lat="38.73716372194425" lon="16.229788357321357"><ele>52.0</ele><time>2026-05-05T08:54:36Z</time></trkpt><trkpt lat="38.737228547832615" lon="16.22977665683684"><ele>52.0</ele><time>2026-05-05T08:54:43Z</time></trkpt><trkpt lat="38.7372826815686" lon="16.229722594566958"><ele>52.0</ele><time>2026-05-05T08:54:48Z</time></trkpt><trkpt lat="38.73733030065142" lon="16.229659998763022"><ele>52.0</ele><time>2026-05-05T08:54:53Z</time></trkpt><trkpt lat="38.73734844367012" lon="16.229579999050333"><ele>52.0</ele><time>2026-05-05T08:55:01Z</time></trkpt><trkpt lat="38.737405096412516" lon="16.22950956319684"><ele>52.0</ele><time>2026-05-05T08:55:06Z</time></trkpt><trkpt lat="38.7374599365116" lon="16.22945248834923"><ele>52.0</ele><time>2026-05-05T08:55:14Z</time></trkpt><trkpt lat="38.737520726179305" lon="16.229429584876854"><ele>52.0</ele><time>2026-05-05T08:55:18Z</time></trkpt><trkpt lat="38.73773278373252" lon="16.229421227554468"><ele>52.14285714285714</ele><time>2026-05-05T08:55:38Z</time></trkpt><trkpt lat="38.73780744730446" lon="16.22940795074199"><ele>52.28571428571429</ele><time>2026-05-05T08:55:44Z</time></trkpt><trkpt lat="38.73787190091843" lon="16.229382989331356"><ele>52.42857142857143</ele><time>2026-05-05T08:55:51Z</time></trkpt><trkpt lat="38.73796581219911" lon="16.22934256343587"><ele>52.57142857142857</ele><time>2026-05-05T08:55:59Z</time></trkpt><trkpt lat="38.73802769762342" lon="16.22932635212092"><ele>52.71428571428571</ele><time>2026-05-05T08:56:05Z</time></trkpt><trkpt lat="38.738091251699146" lon="16.229302749686262"><ele>52.85714285714286</ele><time>2026-05-05T08:56:10.999Z</time></trkpt><trkpt lat="38.7381375430969" lon="16.229239867307385"><ele>53.0</ele><time>2026-05-05T08:56:18.999Z</time></trkpt><trkpt lat="38.73819684352033" lon="16.229195333385015"><ele>53.00000000000001</ele><time>2026-05-05T08:56:24.999Z</time></trkpt><trkpt lat="38.738262096138804" lon="16.229166169129932"><ele>53.0</ele><time>2026-05-05T08:56:30.999Z</time></trkpt><trkpt lat="38.73837318861746" lon="16.229171381805"><ele>53.0</ele><time>2026-05-05T08:56:41.999Z</time></trkpt><trkpt lat="38.73842670839886" lon="16.229220266673135"><ele>53.0</ele><time>2026-05-05T08:56:49Z</time></trkpt><trkpt lat="38.73851474405378" lon="16.22925120792927"><ele>53.00000000000001</ele><time>2026-05-05T08:56:58Z</time></trkpt><trkpt lat="38.73857903010535" lon="16.22926935463835"><ele>53.0</ele><time>2026-05-05T08:57:09Z</time></trkpt><trkpt lat="38.73869850709495" lon="16.22927107000895"><ele>54.0</ele><time>2026-05-05T08:57:20Z</time></trkpt><trkpt lat="38.7387542321971" lon="16.229323367056956"><ele>55.0</ele><time>2026-05-05T08:57:27Z</time></trkpt><trkpt lat="38.738814421932446" lon="16.229356799589787"><ele>56.0</ele><time>2026-05-05T08:57:33Z</time></trkpt><trkpt lat="38.73890100978258" lon="16.229400752585033"><ele>57.0</ele><time>2026-05-05T08:57:41Z</time></trkpt><trkpt lat="38.738940256896115" lon="16.229464394131238"><ele>58.0</ele><time>2026-05-05T08:57:53Z</time></trkpt><trkpt lat="38.73897402909062" lon="16.229538465606957"><ele>59.0</ele><time>2026-05-05T08:57:59Z</time></trkpt><trkpt lat="38.73892404713158" lon="16.229598888824047"><ele>60.0</ele><time>2026-05-05T08:58:07Z</time></trkpt><trkpt lat="38.73892239147541" lon="16.229684975727825"><ele>60.0</ele><time>2026-05-05T08:58:12.999Z</time></trkpt><trkpt lat="38.73892004220591" lon="16.229773394234236"><ele>60.0</ele><time>2026-05-05T08:58:19.999Z</time></trkpt><trkpt lat="38.738888473592525" lon="16.229850179988883"><ele>60.0</ele><time>2026-05-05T08:58:24.999Z</time></trkpt><trkpt lat="38.73886296735757" lon="16.22993666426217"><ele>60.0</ele><time>2026-05-05T08:58:30.999Z</time></trkpt><trkpt lat="38.73882922814127" lon="16.230025010897847"><ele>60.0</ele><time>2026-05-05T08:58:36Z</time></trkpt><trkpt lat="38.73880266274941" lon="16.230104934344013"><ele>60.0</ele><time>2026-05-05T08:58:42Z</time></trkpt><trkpt lat="38.738762719467175" lon="16.230180886362344"><ele>60.0</ele><time>2026-05-05T08:58:49Z</time></trkpt><trkpt lat="38.7387303914917" lon="16.23027101648265"><ele>60.28571428571429</ele><time>2026-05-05T08:58:55Z</time></trkpt><trkpt lat="38.73868663066007" lon="16.230350839727404"><ele>60.57142857142857</ele><time>2026-05-05T08:59:00Z</time></trkpt><trkpt lat="38.73865423305139" lon="16.23042228021431"><ele>60.85714285714286</ele><time>2026-05-05T08:59:06Z</time></trkpt><trkpt lat="38.7386156341283" lon="16.23050840981271"><ele>61.142857142857146</ele><time>2026-05-05T08:59:13Z</time></trkpt><trkpt lat="38.738576658858655" lon="16.23058161769159"><ele>61.42857142857143</ele><time>2026-05-05T08:59:18Z</time></trkpt><trkpt lat="38.738558348709184" lon="16.23066052105083"><ele>61.714285714285715</ele><time>2026-05-05T08:59:23Z</time></trkpt><trkpt lat="38.73850955127232" lon="16.230714899085275"><ele>62.0</ele><time>2026-05-05T08:59:29Z</time></trkpt><trkpt lat="38.738502293355985" lon="16.23080378584931"><ele>62.0</ele><time>2026-05-05T08:59:38Z</time></trkpt><trkpt lat="38.738483158572514" lon="16.230881329563275"><ele>62.00000000000001</ele><time>2026-05-05T08:59:44Z</time></trkpt><trkpt lat="38.73847477383763" lon="16.230965019461983"><ele>62.0</ele><time>2026-05-05T08:59:52Z</time></trkpt><trkpt lat="38.738544282627345" lon="16.23101052418576"><ele>62.0</ele><time>2026-05-05T09:00:02Z</time></trkpt><trkpt lat="38.73859854082305" lon="16.23105410439596"><ele>62.00000000000001</ele><time>2026-05-05T09:00:07Z</time></trkpt><trkpt lat="38.738650872428096" lon="16.231099298248562"><ele>62.0</ele><time>2026-05-05T09:00:13Z</time></trkpt><trkpt lat="38.73871452367519" lon="16.23113780299303"><ele>62.0</ele><time>2026-05-05T09:00:20Z</time></trkpt><trkpt lat="38.73876970703945" lon="16.231204127929068"><ele>62.714285714285715</ele><time>2026-05-05T09:00:26Z</time></trkpt><trkpt lat="38.73882945006373" lon="16.23124755926692"><ele>63.42857142857143</ele><time>2026-05-05T09:00:34Z</time></trkpt><trkpt lat="38.738900934353694" lon="16.231256025219356"><ele>64.14285714285714</ele><time>2026-05-05T09:00:41Z</time></trkpt><trkpt lat="38.73896638570154" lon="16.231301716475336"><ele>64.85714285714286</ele><time>2026-05-05T09:00:49Z</time></trkpt><trkpt lat="38.739040142884164" lon="16.23132030900627"><ele>65.57142857142857</ele><time>2026-05-05T09:00:54Z</time></trkpt><trkpt lat="38.7390987391939" lon="16.2313552932321"><ele>66.28571428571429</ele><time>2026-05-05T09:00:59Z</time></trkpt><trkpt lat="38.73914515440274" lon="16.231414763424944"><ele>67.0</ele><time>2026-05-05T09:01:04Z</time></trkpt><trkpt lat="38.73918860516128" lon="16.231475109974024"><ele>67.0</ele><time>2026-05-05T09:01:09Z</time></trkpt><trkpt lat="38.73923497140596" lon="16.231548696335707"><ele>67.0</ele><time>2026-05-05T09:01:15Z</time></trkpt><trkpt lat="38.739267046370855" lon="16.231629778242677"><ele>67.0</ele><time>2026-05-05T09:01:21Z</time></trkpt><trkpt lat="38.73930206391093" lon="16.231702157137622"><ele>67.0</ele><time>2026-05-05T09:01:26Z</time></trkpt><trkpt lat="38.739342176278136" lon="16.231770915557018"><ele>67.0</ele><time>2026-05-05T09:01:32Z</time></trkpt><trkpt lat="38.739384015177905" lon="16.23183343412524"><ele>67.0</ele><time>2026-05-05T09:01:39Z</time></trkpt><trkpt lat="38.7394372839731" lon="16.231900416436936"><ele>67.0</ele><time>2026-05-05T09:01:46Z</time></trkpt><trkpt lat="38.7395006105939" lon="16.231927139478312"><ele>67.66666666666666</ele><time>2026-05-05T09:01:52.001Z</time></trkpt><trkpt lat="38.73960474711849" lon="16.231949290350393"><ele>68.33333333333333</ele><time>2026-05-05T09:02:01.001Z</time></trkpt><trkpt lat="38.73967547705878" lon="16.231984205842295"><ele>69.0</ele><time>2026-05-05T09:02:06.001Z</time></trkpt><trkpt lat="38.73973761223852" lon="16.23200315811443"><ele>69.66666666666667</ele><time>2026-05-05T09:02:11.001Z</time></trkpt><trkpt lat="38.73979864697702" lon="16.232031174747927"><ele>70.33333333333334</ele><time>2026-05-05T09:02:16.001Z</time></trkpt><trkpt lat="38.73986717678486" lon="16.232023682735214"><ele>71.0</ele><time>2026-05-05T09:02:22.001Z</time></trkpt><trkpt lat="38.73993523850819" lon="16.231999074328847"><ele>71.0</ele><time>2026-05-05T09:02:28Z</time></trkpt><trkpt lat="38.740001788886694" lon="16.23197876076468"><ele>71.0</ele><time>2026-05-05T09:02:34Z</time></trkpt><trkpt lat="38.74009628720387" lon="16.231963900643873"><ele>71.0</ele><time>2026-05-05T09:02:43Z</time></trkpt><trkpt lat="38.74021630294646" lon="16.23197051815161"><ele>71.0</ele><time>2026-05-05T09:02:54Z</time></trkpt><trkpt lat="38.740351332284085" lon="16.23198652113841"><ele>71.0</ele><time>2026-05-05T09:03:06Z</time></trkpt><trkpt lat="38.740430188128585" lon="16.232012133721067"><ele>71.0</ele><time>2026-05-05T09:03:13Z</time></trkpt><trkpt lat="38.7404967334563" lon="16.232057584237655"><ele>71.0</ele><time>2026-05-05T09:03:31Z</time></trkpt><trkpt lat="38.7405624738983" lon="16.232095375375078"><ele>71.0</ele><time>2026-05-05T09:03:37Z</time></trkpt><trkpt lat="38.74063035195625" lon="16.23213701292753"><ele>71.0</ele><time>2026-05-05T09:03:42Z</time></trkpt><trkpt lat="38.74069184687659" lon="16.23216452409128"><ele>71.0</ele><time>2026-05-05T09:03:47Z</time></trkpt><trkpt lat="38.74076510722178" lon="16.23215036618476"><ele>71.0</ele><time>2026-05-05T09:03:56Z</time></trkpt><trkpt lat="38.74087491001206" lon="16.231932367630076"><ele>71.0</ele><time>2026-05-05T09:04:17.001Z</time></trkpt><trkpt lat="38.74091006312989" lon="16.23184707540186"><ele>71.0</ele><time>2026-05-05T09:04:24.001Z</time></trkpt><trkpt lat="38.740941575685575" lon="16.231776674497556"><ele>71.0</ele><time>2026-05-05T09:04:31Z</time></trkpt><trkpt lat="38.74097696732635" lon="16.231698992136582"><ele>71.0</ele><time>2026-05-05T09:04:39Z</time></trkpt><trkpt lat="38.741004091693426" lon="16.231617441356263"><ele>71.0</ele><time>2026-05-05T09:04:46Z</time></trkpt><trkpt lat="38.74103415789442" lon="16.231540524271928"><ele>71.0</ele><time>2026-05-05T09:04:58Z</time></trkpt><trkpt lat="38.7410691084087" lon="16.231446914143667"><ele>71.0</ele><time>2026-05-05T09:05:06Z</time></trkpt><trkpt lat="38.74108644769688" lon="16.23135705383254"><ele>71.71428571428571</ele><time>2026-05-05T09:05:13Z</time></trkpt><trkpt lat="38.74104789262583" lon="16.23128090990846"><ele>72.42857142857142</ele><time>2026-05-05T09:05:21Z</time></trkpt><trkpt lat="38.74100481439263" lon="16.23119355364584"><ele>73.14285714285714</ele><time>2026-05-05T09:08:07.001Z</time></trkpt><trkpt lat="38.74102283734734" lon="16.231113142585684"><ele>73.85714285714286</ele><time>2026-05-05T09:09:27.001Z</time></trkpt><trkpt lat="38.74102829642337" lon="16.231026331388307"><ele>74.57142857142858</ele><time>2026-05-05T09:09:37.001Z</time></trkpt><trkpt lat="38.741006340526354" lon="16.230948734002208"><ele>75.28571428571428</ele><time>2026-05-05T09:09:46.001Z</time></trkpt><trkpt lat="38.74097874993506" lon="16.230872954501304"><ele>76.0</ele><time>2026-05-05T09:09:58.001Z</time></trkpt><trkpt lat="38.74092619413172" lon="16.230817397812178"><ele>76.0</ele><time>2026-05-05T09:10:12.001Z</time></trkpt><trkpt lat="38.74086925557853" lon="16.230782243490292"><ele>76.0</ele><time>2026-05-05T09:10:19.001Z</time></trkpt><trkpt lat="38.740803561392696" lon="16.230743010891953"><ele>76.0</ele><time>2026-05-05T09:10:27.001Z</time></trkpt><trkpt lat="38.74075300280758" lon="16.230690774135454"><ele>76.0</ele><time>2026-05-05T09:10:33.001Z</time></trkpt><trkpt lat="38.74071558339567" lon="16.230622385567614"><ele>76.0</ele><time>2026-05-05T09:10:39.001Z</time></trkpt><trkpt lat="38.74070196637055" lon="16.230542916581037"><ele>76.0</ele><time>2026-05-05T09:10:47.001Z</time></trkpt><trkpt lat="38.74072850522077" lon="16.230469352180297"><ele>76.0</ele><time>2026-05-05T09:10:54.001Z</time></trkpt><trkpt lat="38.740779752179755" lon="16.230408302315304"><ele>77.0</ele><time>2026-05-05T09:11:02.001Z</time></trkpt><trkpt lat="38.740828763116994" lon="16.23033998473126"><ele>78.0</ele><time>2026-05-05T09:11:09.001Z</time></trkpt><trkpt lat="38.74088376177861" lon="16.23029306167861"><ele>79.0</ele><time>2026-05-05T09:11:15Z</time></trkpt><trkpt lat="38.740944665118604" lon="16.230261053110873"><ele>80.0</ele><time>2026-05-05T09:11:21Z</time></trkpt><trkpt lat="38.741005114391115" lon="16.230224497928006"><ele>81.0</ele><time>2026-05-05T09:11:33Z</time></trkpt><trkpt lat="38.74105524646752" lon="16.230172538311415"><ele>82.0</ele><time>2026-05-05T09:11:39Z</time></trkpt><trkpt lat="38.74111980812464" lon="16.230135747779055"><ele>83.0</ele><time>2026-05-05T09:11:46Z</time></trkpt><trkpt lat="38.74118112492507" lon="16.230110510425853"><ele>84.0</ele><time>2026-05-05T09:11:52Z</time></trkpt><trkpt lat="38.74123974188795" lon="16.23005949560252"><ele>85.0</ele><time>2026-05-05T09:11:59Z</time></trkpt><trkpt lat="38.74129777975506" lon="16.23001738231464"><ele>86.0</ele><time>2026-05-05T09:12:05Z</time></trkpt><trkpt lat="38.741359104554284" lon="16.229973573141994"><ele>87.0</ele><time>2026-05-05T09:12:12Z</time></trkpt><trkpt lat="38.74142363978832" lon="16.2299380925407"><ele>88.0</ele><time>2026-05-05T09:12:18Z</time></trkpt><trkpt lat="38.74148913441753" lon="16.22989671759522"><ele>89.0</ele><time>2026-05-05T09:12:25Z</time></trkpt><trkpt lat="38.741549675837085" lon="16.229862531870594"><ele>90.0</ele><time>2026-05-05T09:12:31Z</time></trkpt><trkpt lat="38.741607915297166" lon="16.229811092194478"><ele>90.57142857142857</ele><time>2026-05-05T09:12:38Z</time></trkpt><trkpt lat="38.74166824694295" lon="16.229769277751338"><ele>91.14285714285715</ele><time>2026-05-05T09:12:45Z</time></trkpt><trkpt lat="38.7417336434026" lon="16.229730864549477"><ele>91.71428571428572</ele><time>2026-05-05T09:12:54Z</time></trkpt><trkpt lat="38.7417830492365" lon="16.229677907527083"><ele>92.28571428571428</ele><time>2026-05-05T09:13:11Z</time></trkpt><trkpt lat="38.741840481950135" lon="16.229636380718226"><ele>92.85714285714286</ele><time>2026-05-05T09:13:17Z</time></trkpt><trkpt lat="38.7419001402216" lon="16.229607556515862"><ele>93.42857142857143</ele><time>2026-05-05T09:13:23Z</time></trkpt><trkpt lat="38.74195326537741" lon="16.229556029548622"><ele>94.0</ele><time>2026-05-05T09:13:29Z</time></trkpt><trkpt lat="38.74201224950828" lon="16.229509226686904"><ele>95.14285714285714</ele><time>2026-05-05T09:13:35Z</time></trkpt><trkpt lat="38.74207242312567" lon="16.22946307069415"><ele>96.28571428571428</ele><time>2026-05-05T09:13:41Z</time></trkpt><trkpt lat="38.74212953088586" lon="16.229410191309615"><ele>97.42857142857143</ele><time>2026-05-05T09:13:48Z</time></trkpt><trkpt lat="38.742188919534875" lon="16.22937076659548"><ele>98.57142857142857</ele><time>2026-05-05T09:13:57Z</time></trkpt><trkpt lat="38.742252158580044" lon="16.229321334266192"><ele>99.71428571428572</ele><time>2026-05-05T09:14:04Z</time></trkpt><trkpt lat="38.74230680905489" lon="16.229271195915835"><ele>100.85714285714286</ele><time>2026-05-05T09:14:10Z</time></trkpt><trkpt lat="38.742367851504866" lon="16.22922308985882"><ele>102.0</ele><time>2026-05-05T09:14:18Z</time></trkpt><trkpt lat="38.742416374049334" lon="16.229157119345217"><ele>102.0</ele><time>2026-05-05T09:14:24Z</time></trkpt><trkpt lat="38.74247406332717" lon="16.229107735811375"><ele>102.0</ele><time>2026-05-05T09:14:30Z</time></trkpt><trkpt lat="38.74253262962431" lon="16.22906543126488"><ele>102.0</ele><time>2026-05-05T09:14:37Z</time></trkpt><trkpt lat="38.74259231004183" lon="16.22900996674862"><ele>102.0</ele><time>2026-05-05T09:14:44Z</time></trkpt><trkpt lat="38.74263387893889" lon="16.228940204978805"><ele>102.0</ele><time>2026-05-05T09:14:50Z</time></trkpt><trkpt lat="38.74268307112002" lon="16.22887567743279"><ele>102.0</ele><time>2026-05-05T09:14:56Z</time></trkpt><trkpt lat="38.742740397110566" lon="16.228823588788238"><ele>102.0</ele><time>2026-05-05T09:15:03Z</time></trkpt><trkpt lat="38.742799246238384" lon="16.228767215380284"><ele>102.71428571428572</ele><time>2026-05-05T09:15:09Z</time></trkpt><trkpt lat="38.742847640832714" lon="16.228697500874194"><ele>103.42857142857143</ele><time>2026-05-05T09:15:15Z</time></trkpt><trkpt lat="38.74291243677945" lon="16.22864703453608"><ele>104.14285714285714</ele><time>2026-05-05T09:15:22Z</time></trkpt><trkpt lat="38.74296095154994" lon="16.228579736099213"><ele>104.85714285714286</ele><time>2026-05-05T09:15:28Z</time></trkpt><trkpt lat="38.743013539855745" lon="16.22853417387774"><ele>105.57142857142857</ele><time>2026-05-05T09:15:34Z</time></trkpt><trkpt lat="38.7430660492859" lon="16.228482042137976"><ele>106.28571428571429</ele><time>2026-05-05T09:15:40Z</time></trkpt><trkpt lat="38.7431197747468" lon="16.22843343705744"><ele>107.0</ele><time>2026-05-05T09:15:47Z</time></trkpt><trkpt lat="38.74317989327771" lon="16.228392193103634"><ele>107.00000000000001</ele><time>2026-05-05T09:15:52Z</time></trkpt><trkpt lat="38.74323387926508" lon="16.228335235444927"><ele>107.0</ele><time>2026-05-05T09:16:04Z</time></trkpt><trkpt lat="38.743298903483925" lon="16.228313092290918"><ele>107.0</ele><time>2026-05-05T09:16:17Z</time></trkpt><trkpt lat="38.743352321391576" lon="16.228253039625784"><ele>107.0</ele><time>2026-05-05T09:16:23Z</time></trkpt><trkpt lat="38.74339873624322" lon="16.228196366815872"><ele>107.0</ele><time>2026-05-05T09:16:29Z</time></trkpt><trkpt lat="38.74345018649138" lon="16.228132399311043"><ele>107.00000000000001</ele><time>2026-05-05T09:16:35Z</time></trkpt><trkpt lat="38.743498153702284" lon="16.228074981255787"><ele>107.0</ele><time>2026-05-05T09:16:41Z</time></trkpt><trkpt lat="38.743557164302494" lon="16.2280446883731"><ele>107.71428571428572</ele><time>2026-05-05T09:16:47Z</time></trkpt><trkpt lat="38.74361058611075" lon="16.227999647403575"><ele>108.42857142857143</ele><time>2026-05-05T09:16:52Z</time></trkpt><trkpt lat="38.74366753585928" lon="16.227954646564207"><ele>109.14285714285714</ele><time>2026-05-05T09:16:57Z</time></trkpt><trkpt lat="38.743723933517174" lon="16.22791335235207"><ele>109.85714285714286</ele><time>2026-05-05T09:17:03Z</time></trkpt><trkpt lat="38.74378834046009" lon="16.227876522633885"><ele>110.57142857142857</ele><time>2026-05-05T09:17:10Z</time></trkpt><trkpt lat="38.743850124157625" lon="16.22784413834583"><ele>111.28571428571429</ele><time>2026-05-05T09:17:16Z</time></trkpt><trkpt lat="38.74390601361877" lon="16.22779003458033"><ele>112.0</ele><time>2026-05-05T09:17:22Z</time></trkpt><trkpt lat="38.74397145998262" lon="16.22775238133047"><ele>112.0</ele><time>2026-05-05T09:17:28Z</time></trkpt><trkpt lat="38.74403319843528" lon="16.2277059533552"><ele>112.0</ele><time>2026-05-05T09:17:34Z</time></trkpt><trkpt lat="38.74408364060598" lon="16.227652002130178"><ele>112.0</ele><time>2026-05-05T09:17:40Z</time></trkpt><trkpt lat="38.744130483675164" lon="16.227595863747332"><ele>112.0</ele><time>2026-05-05T09:17:46Z</time></trkpt><trkpt lat="38.744168964819565" lon="16.227523174196357"><ele>112.0</ele><time>2026-05-05T09:17:55Z</time></trkpt><trkpt lat="38.74422476360689" lon="16.227472694297784"><ele>112.0</ele><time>2026-05-05T09:18:01Z</time></trkpt><trkpt lat="38.74427268018648" lon="16.227407280648897"><ele>112.0</ele><time>2026-05-05T09:18:08Z</time></trkpt><trkpt lat="38.744327642226665" lon="16.22735359764354"><ele>114.14285714285714</ele><time>2026-05-05T09:18:15Z</time></trkpt><trkpt lat="38.74439087026284" lon="16.22730449721726"><ele>116.28571428571428</ele><time>2026-05-05T09:18:22Z</time></trkpt><trkpt lat="38.74444760830087" lon="16.22726270410501"><ele>118.42857142857143</ele><time>2026-05-05T09:18:28Z</time></trkpt><trkpt lat="38.74452261441796" lon="16.22724637420815"><ele>120.57142857142857</ele><time>2026-05-05T09:18:35Z</time></trkpt><trkpt lat="38.74459016098267" lon="16.22724464942923"><ele>122.71428571428571</ele><time>2026-05-05T09:18:41Z</time></trkpt><trkpt lat="38.744658184906655" lon="16.227272256485325"><ele>124.85714285714286</ele><time>2026-05-05T09:18:48Z</time></trkpt><trkpt lat="38.744724592737334" lon="16.22728377795413"><ele>127.0</ele><time>2026-05-05T09:18:56Z</time></trkpt><trkpt lat="38.744787747026116" lon="16.227327176967965"><ele>127.0</ele><time>2026-05-05T09:19:03Z</time></trkpt><trkpt lat="38.74483036396367" lon="16.227388718017203"><ele>127.0</ele><time>2026-05-05T09:19:10Z</time></trkpt><trkpt lat="38.744881394166605" lon="16.22744466232664"><ele>127.0</ele><time>2026-05-05T09:19:15Z</time></trkpt><trkpt lat="38.7449061825184" lon="16.227522999837632"><ele>127.0</ele><time>2026-05-05T09:19:22Z</time></trkpt><trkpt lat="38.744933550151735" lon="16.22760136050109"><ele>127.0</ele><time>2026-05-05T09:19:28Z</time></trkpt><trkpt lat="38.74495668001931" lon="16.22768993814666"><ele>127.0</ele><time>2026-05-05T09:19:34Z</time></trkpt><trkpt lat="38.74497444792684" lon="16.22776883697438"><ele>127.0</ele><time>2026-05-05T09:19:42Z</time></trkpt><trkpt lat="38.74498566075114" lon="16.227858382232135"><ele>127.0</ele><time>2026-05-05T09:19:47Z</time></trkpt><trkpt lat="38.74499838372084" lon="16.227941864280282"><ele>127.0</ele><time>2026-05-05T09:19:53Z</time></trkpt><trkpt lat="38.74502299314172" lon="16.228018317541224"><ele>127.0</ele><time>2026-05-05T09:19:58Z</time></trkpt><trkpt lat="38.74504406873624" lon="16.228104531957484"><ele>127.0</ele><time>2026-05-05T09:20:05Z</time></trkpt><trkpt lat="38.74505174464916" lon="16.228191379756986"><ele>127.0</ele><time>2026-05-05T09:20:11Z</time></trkpt><trkpt lat="38.74507307404888" lon="16.22828021501387"><ele>127.0</ele><time>2026-05-05T09:20:17Z</time></trkpt><trkpt lat="38.74510825403832" lon="16.228353638986786"><ele>127.0</ele><time>2026-05-05T09:20:23Z</time></trkpt><trkpt lat="38.745142636555876" lon="16.228427591626765"><ele>128.14285714285714</ele><time>2026-05-05T09:20:30Z</time></trkpt><trkpt lat="38.745196390958554" lon="16.228494169489327"><ele>129.28571428571428</ele><time>2026-05-05T09:20:36Z</time></trkpt><trkpt lat="38.74525015700484" lon="16.228544034244674"><ele>130.42857142857142</ele><time>2026-05-05T09:20:42Z</time></trkpt><trkpt lat="38.745307194295386" lon="16.228596908983132"><ele>131.57142857142856</ele><time>2026-05-05T09:20:49Z</time></trkpt><trkpt lat="38.74536604218015" lon="16.228633561659006"><ele>132.7142857142857</ele><time>2026-05-05T09:20:54Z</time></trkpt><trkpt lat="38.74543406143397" lon="16.228672941260417"><ele>133.85714285714286</ele><time>2026-05-05T09:21:10Z</time></trkpt><trkpt lat="38.74548707070835" lon="16.228722741791767"><ele>135.0</ele><time>2026-05-05T09:21:15Z</time></trkpt><trkpt lat="38.74555586932072" lon="16.22875168475346"><ele>135.0</ele><time>2026-05-05T09:21:22Z</time></trkpt><trkpt lat="38.745610453834445" lon="16.228795958141518"><ele>135.0</ele><time>2026-05-05T09:21:28Z</time></trkpt><trkpt lat="38.74568010401291" lon="16.228830185733894"><ele>135.0</ele><time>2026-05-05T09:21:34Z</time></trkpt><trkpt lat="38.745740347782366" lon="16.228868712106852"><ele>135.0</ele><time>2026-05-05T09:21:40Z</time></trkpt><trkpt lat="38.74580205927301" lon="16.22889648932583"><ele>135.0</ele><time>2026-05-05T09:21:46Z</time></trkpt><trkpt lat="38.745867218226046" lon="16.228892658399975"><ele>135.0</ele><time>2026-05-05T09:21:50Z</time></trkpt><trkpt lat="38.745924106076274" lon="16.22884982134582"><ele>135.0</ele><time>2026-05-05T09:21:55Z</time></trkpt><trkpt lat="38.745963999022514" lon="16.228782641308573"><ele>135.0</ele><time>2026-05-05T09:22:01Z</time></trkpt><trkpt lat="38.746019554835975" lon="16.22872456935349"><ele>135.0</ele><time>2026-05-05T09:22:07Z</time></trkpt><trkpt lat="38.74606814925701" lon="16.228647722317223"><ele>135.0</ele><time>2026-05-05T09:22:14Z</time></trkpt><trkpt lat="38.746111891450084" lon="16.228569647511353"><ele>135.0</ele><time>2026-05-05T09:22:22Z</time></trkpt><trkpt lat="38.74614459840099" lon="16.228485382567285"><ele>135.0</ele><time>2026-05-05T09:22:28Z</time></trkpt><trkpt lat="38.74616790337949" lon="16.228396768171688"><ele>135.0</ele><time>2026-05-05T09:22:35Z</time></trkpt><trkpt lat="38.74614971548819" lon="16.228299755785432"><ele>135.0</ele><time>2026-05-05T09:22:41Z</time></trkpt><trkpt lat="38.74613707534285" lon="16.22820261230283"><ele>136.85714285714286</ele><time>2026-05-05T09:22:48Z</time></trkpt><trkpt lat="38.74612767731316" lon="16.22810364117077"><ele>138.7142857142857</ele><time>2026-05-05T09:22:56Z</time></trkpt><trkpt lat="38.746073137485496" lon="16.228027979942443"><ele>140.57142857142856</ele><time>2026-05-05T09:23:05Z</time></trkpt><trkpt lat="38.74601154335983" lon="16.227977334867724"><ele>142.42857142857142</ele><time>2026-05-05T09:23:13Z</time></trkpt><trkpt lat="38.74595371022887" lon="16.227916374128856"><ele>144.28571428571428</ele><time>2026-05-05T09:23:23Z</time></trkpt><trkpt lat="38.745899068110944" lon="16.22784978809608"><ele>146.14285714285714</ele><time>2026-05-05T09:23:31Z</time></trkpt><trkpt lat="38.74589130645123" lon="16.227769528424307"><ele>148.0</ele><time>2026-05-05T09:23:41Z</time></trkpt><trkpt lat="38.74585203591247" lon="16.22770578162893"><ele>148.0</ele><time>2026-05-05T09:23:49Z</time></trkpt><trkpt lat="38.74587907956363" lon="16.227617521860886"><ele>148.0</ele><time>2026-05-05T09:24:09Z</time></trkpt><trkpt lat="38.74592788187536" lon="16.227553366972618"><ele>148.0</ele><time>2026-05-05T09:24:21Z</time></trkpt><trkpt lat="38.745966828716206" lon="16.227487397812215"><ele>148.0</ele><time>2026-05-05T09:27:38Z</time></trkpt><trkpt lat="38.74602553879712" lon="16.22743455004616"><ele>148.0</ele><time>2026-05-05T09:27:49Z</time></trkpt><trkpt lat="38.74606762571733" lon="16.22737035073407"><ele>148.0</ele><time>2026-05-05T09:27:58Z</time></trkpt><trkpt lat="38.74609924868299" lon="16.227293700488893"><ele>148.0</ele><time>2026-05-05T09:28:07Z</time></trkpt><trkpt lat="38.74610022937534" lon="16.22720343385124"><ele>150.28571428571428</ele><time>2026-05-05T09:28:14Z</time></trkpt><trkpt lat="38.74611225758888" lon="16.22710855620781"><ele>152.57142857142856</ele><time>2026-05-05T09:28:23Z</time></trkpt><trkpt lat="38.7461178146466" lon="16.227021134989467"><ele>154.85714285714283</ele><time>2026-05-05T09:28:30Z</time></trkpt><trkpt lat="38.74610716209482" lon="16.226930083125378"><ele>157.14285714285714</ele><time>2026-05-05T09:28:37Z</time></trkpt><trkpt lat="38.746094033660775" lon="16.226845636792707"><ele>159.42857142857142</ele><time>2026-05-05T09:28:47Z</time></trkpt><trkpt lat="38.74606730425929" lon="16.226769878077345"><ele>161.7142857142857</ele><time>2026-05-05T09:28:53Z</time></trkpt><trkpt lat="38.74601152936654" lon="16.226703562074558"><ele>164.0</ele><time>2026-05-05T09:28:59Z</time></trkpt><trkpt lat="38.745958267636844" lon="16.22664105840105"><ele>164.14285714285714</ele><time>2026-05-05T09:29:05Z</time></trkpt><trkpt lat="38.745919309829425" lon="16.226570565751167"><ele>164.28571428571428</ele><time>2026-05-05T09:29:12Z</time></trkpt><trkpt lat="38.74589543635178" lon="16.226493124675002"><ele>164.42857142857144</ele><time>2026-05-05T09:29:19Z</time></trkpt><trkpt lat="38.74586449213798" lon="16.22641987007463"><ele>164.57142857142856</ele><time>2026-05-05T09:29:25Z</time></trkpt><trkpt lat="38.74585116678753" lon="16.226336647245127"><ele>164.71428571428572</ele><time>2026-05-05T09:29:31Z</time></trkpt><trkpt lat="38.74582783736334" lon="16.22625383351265"><ele>164.85714285714286</ele><time>2026-05-05T09:29:40Z</time></trkpt><trkpt lat="38.74578346378261" lon="16.22617552554742"><ele>165.0</ele><time>2026-05-05T09:29:46Z</time></trkpt><trkpt lat="38.745756218051355" lon="16.226099824844344"><ele>167.71428571428572</ele><time>2026-05-05T09:29:52Z</time></trkpt><trkpt lat="38.74574191431076" lon="16.226013705757033"><ele>170.42857142857144</ele><time>2026-05-05T09:30:00Z</time></trkpt><trkpt lat="38.74570904203848" lon="16.225933738949298"><ele>173.14285714285717</ele><time>2026-05-05T09:30:09Z</time></trkpt><trkpt lat="38.74569250243395" lon="16.22585053629286"><ele>175.85714285714286</ele><time>2026-05-05T09:30:15Z</time></trkpt><trkpt lat="38.74565505139594" lon="16.225777211354885"><ele>178.57142857142856</ele><time>2026-05-05T09:30:22Z</time></trkpt><trkpt lat="38.74560380070593" lon="16.2257177639091"><ele>181.2857142857143</ele><time>2026-05-05T09:30:30Z</time></trkpt><trkpt lat="38.74556238185009" lon="16.225649776794466"><ele>184.0</ele><time>2026-05-05T09:30:36Z</time></trkpt><trkpt lat="38.745520164116485" lon="16.225571032936617"><ele>187.42857142857144</ele><time>2026-05-05T09:30:43Z</time></trkpt><trkpt lat="38.74547005563186" lon="16.225505761678335"><ele>190.85714285714283</ele><time>2026-05-05T09:30:49Z</time></trkpt><trkpt lat="38.745436337732855" lon="16.225425344624142"><ele>194.28571428571428</ele><time>2026-05-05T09:30:56Z</time></trkpt><trkpt lat="38.74538461931473" lon="16.225355889424353"><ele>197.71428571428572</ele><time>2026-05-05T09:31:02Z</time></trkpt><trkpt lat="38.74532955021118" lon="16.22529885427879"><ele>201.14285714285717</ele><time>2026-05-05T09:31:11Z</time></trkpt><trkpt lat="38.74529878116172" lon="16.22522753041555"><ele>204.57142857142856</ele><time>2026-05-05T09:31:21Z</time></trkpt><trkpt lat="38.74528704839841" lon="16.225145296119866"><ele>208.0</ele><time>2026-05-05T09:31:27Z</time></trkpt><trkpt lat="38.7452662558619" lon="16.225055394263855"><ele>208.0</ele><time>2026-05-05T09:31:35Z</time></trkpt><trkpt lat="38.745236483512016" lon="16.224973592228203"><ele>208.0</ele><time>2026-05-05T09:31:43Z</time></trkpt><trkpt lat="38.74520745518373" lon="16.224887561244717"><ele>208.0</ele><time>2026-05-05T09:31:49Z</time></trkpt><trkpt lat="38.745191231556205" lon="16.224803236585405"><ele>208.0</ele><time>2026-05-05T09:31:56Z</time></trkpt><trkpt lat="38.7451638744764" lon="16.22471980608939"><ele>208.0</ele><time>2026-05-05T09:32:03Z</time></trkpt><trkpt lat="38.74512785612811" lon="16.22464219086791"><ele>208.0</ele><time>2026-05-05T09:32:11Z</time></trkpt><trkpt lat="38.7451028594907" lon="16.224565019829324"><ele>208.0</ele><time>2026-05-05T09:32:17Z</time></trkpt><trkpt lat="38.7450928748576" lon="16.22448452102682"><ele>210.42857142857142</ele><time>2026-05-05T09:32:27Z</time></trkpt><trkpt lat="38.74511637534895" lon="16.22439632034064"><ele>212.8571428571429</ele><time>2026-05-05T09:32:35Z</time></trkpt><trkpt lat="38.74512194239997" lon="16.22431430557063"><ele>215.2857142857143</ele><time>2026-05-05T09:32:42Z</time></trkpt><trkpt lat="38.7451667642382" lon="16.22425146297394"><ele>217.71428571428572</ele><time>2026-05-05T09:32:50Z</time></trkpt><trkpt lat="38.74515932219871" lon="16.22416181386043"><ele>220.14285714285717</ele><time>2026-05-05T09:32:59Z</time></trkpt><trkpt lat="38.745205959989086" lon="16.224104248874642"><ele>222.5714285714286</ele><time>2026-05-05T09:33:35Z</time></trkpt><trkpt lat="38.74524965471776" lon="16.224041905374925"><ele>225.00000000000003</ele><time>2026-05-05T09:33:44Z</time></trkpt><trkpt lat="38.745266015031255" lon="16.223945172449156"><ele>225.71428571428575</ele><time>2026-05-05T09:33:53Z</time></trkpt><trkpt lat="38.745276021975705" lon="16.223857057109477"><ele>226.42857142857144</ele><time>2026-05-05T09:34:04Z</time></trkpt><trkpt lat="38.74528893432158" lon="16.223771548785976"><ele>227.14285714285714</ele><time>2026-05-05T09:34:12Z</time></trkpt><trkpt lat="38.745278975478726" lon="16.22368058577317"><ele>227.85714285714286</ele><time>2026-05-05T09:34:22Z</time></trkpt><trkpt lat="38.745269653345005" lon="16.223596441379023"><ele>228.57142857142856</ele><time>2026-05-05T09:34:34Z</time></trkpt><trkpt lat="38.74526407188839" lon="16.223515682701077"><ele>229.28571428571425</ele><time>2026-05-05T09:34:41Z</time></trkpt><trkpt lat="38.74526551290492" lon="16.223432238958836"><ele>229.99999999999997</ele><time>2026-05-05T09:34:48Z</time></trkpt><trkpt lat="38.745253836952585" lon="16.223348313338978"><ele>229.99999999999997</ele><time>2026-05-05T09:34:55Z</time></trkpt><trkpt lat="38.74523683539225" lon="16.223259882388813"><ele>230.0</ele><time>2026-05-05T09:35:03Z</time></trkpt><trkpt lat="38.745219861983884" lon="16.22317215445529"><ele>229.99999999999997</ele><time>2026-05-05T09:35:10Z</time></trkpt><trkpt lat="38.74520866278115" lon="16.223077679989196"><ele>229.99999999999997</ele><time>2026-05-05T09:35:18Z</time></trkpt><trkpt lat="38.745202877729646" lon="16.2229897617952"><ele>230.0</ele><time>2026-05-05T09:35:26Z</time></trkpt><trkpt lat="38.74520613375433" lon="16.222905569023553"><ele>229.99999999999997</ele><time>2026-05-05T09:35:34Z</time></trkpt><trkpt lat="38.74520574432317" lon="16.222813712369042"><ele>229.99999999999997</ele><time>2026-05-05T09:35:42Z</time></trkpt><trkpt lat="38.745234095620674" lon="16.22273907919859"><ele>229.85714285714283</ele><time>2026-05-05T09:35:50Z</time></trkpt><trkpt lat="38.74527412585748" lon="16.222676691806964"><ele>229.71428571428572</ele><time>2026-05-05T09:36:00Z</time></trkpt><trkpt lat="38.74532600358023" lon="16.222616270300772"><ele>229.57142857142856</ele><time>2026-05-05T09:36:06Z</time></trkpt><trkpt lat="38.745379768668194" lon="16.222563073510695"><ele>229.42857142857142</ele><time>2026-05-05T09:36:13Z</time></trkpt><trkpt lat="38.74543617081334" lon="16.2225262786691"><ele>229.28571428571428</ele><time>2026-05-05T09:36:19Z</time></trkpt><trkpt lat="38.74550146926083" lon="16.22249307193775"><ele>229.14285714285714</ele><time>2026-05-05T09:36:27Z</time></trkpt><trkpt lat="38.74556060795872" lon="16.222451032097588"><ele>229.0</ele><time>2026-05-05T09:36:34Z</time></trkpt><trkpt lat="38.74561326380415" lon="16.222402760395532"><ele>229.0</ele><time>2026-05-05T09:36:40Z</time></trkpt><trkpt lat="38.74566243848797" lon="16.22234106865153"><ele>229.0</ele><time>2026-05-05T09:36:45Z</time></trkpt><trkpt lat="38.745702528539624" lon="16.222272939376282"><ele>229.0</ele><time>2026-05-05T09:36:52Z</time></trkpt><trkpt lat="38.7457436749494" lon="16.222211383847572"><ele>229.0</ele><time>2026-05-05T09:36:58Z</time></trkpt><trkpt lat="38.74578131656172" lon="16.22213842449168"><ele>229.0</ele><time>2026-05-05T09:37:04Z</time></trkpt><trkpt lat="38.7458064005867" lon="16.222050433107896"><ele>229.0</ele><time>2026-05-05T09:37:10Z</time></trkpt><trkpt lat="38.74582796058177" lon="16.221969420870696"><ele>229.0</ele><time>2026-05-05T09:37:16Z</time></trkpt><trkpt lat="38.74579584468275" lon="16.22188563018562"><ele>229.57142857142856</ele><time>2026-05-05T09:37:22Z</time></trkpt><trkpt lat="38.74579118697685" lon="16.2218041840572"><ele>230.14285714285717</ele><time>2026-05-05T09:37:29Z</time></trkpt><trkpt lat="38.745765912093674" lon="16.22172659047757"><ele>230.71428571428572</ele><time>2026-05-05T09:37:35Z</time></trkpt><trkpt lat="38.745736142786065" lon="16.22165302150911"><ele>231.28571428571428</ele><time>2026-05-05T09:37:42Z</time></trkpt><trkpt lat="38.7457208400642" lon="16.22157195608376"><ele>231.85714285714283</ele><time>2026-05-05T09:37:49Z</time></trkpt><trkpt lat="38.7457192521371" lon="16.221477495079835"><ele>232.42857142857144</ele><time>2026-05-05T09:37:56Z</time></trkpt><trkpt lat="38.74569080262537" lon="16.221403282615587"><ele>233.0</ele><time>2026-05-05T09:38:02Z</time></trkpt><trkpt lat="38.74570700197715" lon="16.221313217161104"><ele>233.0</ele><time>2026-05-05T09:38:10Z</time></trkpt><trkpt lat="38.74573167753381" lon="16.22123766302219"><ele>233.0</ele><time>2026-05-05T09:38:16Z</time></trkpt><trkpt lat="38.745734327568364" lon="16.221149795706065"><ele>233.0</ele><time>2026-05-05T09:38:23Z</time></trkpt><trkpt lat="38.74570160343308" lon="16.221077475851992"><ele>233.0</ele><time>2026-05-05T09:38:29Z</time></trkpt><trkpt lat="38.74566307369935" lon="16.221002850192523"><ele>233.0</ele><time>2026-05-05T09:38:34Z</time></trkpt><trkpt lat="38.74560819399193" lon="16.22094655374968"><ele>233.0</ele><time>2026-05-05T09:38:44Z</time></trkpt><trkpt lat="38.74556663343632" lon="16.220874993677622"><ele>233.0</ele><time>2026-05-05T09:38:51Z</time></trkpt><trkpt lat="38.745536619707856" lon="16.2207947559951"><ele>233.0</ele><time>2026-05-05T09:38:58Z</time></trkpt><trkpt lat="38.745513241567195" lon="16.220719247979876"><ele>233.0</ele><time>2026-05-05T09:39:04Z</time></trkpt><trkpt lat="38.74546957358731" lon="16.220651259539963"><ele>233.0</ele><time>2026-05-05T09:39:10Z</time></trkpt><trkpt lat="38.74544360936285" lon="16.22057302492156"><ele>233.0</ele><time>2026-05-05T09:39:17Z</time></trkpt><trkpt lat="38.74542414334642" lon="16.220489163866603"><ele>233.0</ele><time>2026-05-05T09:39:24Z</time></trkpt><trkpt lat="38.745399975557575" lon="16.220407060783508"><ele>233.0</ele><time>2026-05-05T09:39:30Z</time></trkpt><trkpt lat="38.74538034452428" lon="16.220323933769876"><ele>233.0</ele><time>2026-05-05T09:39:38Z</time></trkpt><trkpt lat="38.74535631068803" lon="16.220244845651003"><ele>234.71428571428572</ele><time>2026-05-05T09:39:44Z</time></trkpt><trkpt lat="38.74532475714226" lon="16.220174921235813"><ele>236.42857142857142</ele><time>2026-05-05T09:39:50Z</time></trkpt><trkpt lat="38.74529721392207" lon="16.22009597192224"><ele>238.14285714285714</ele><time>2026-05-05T09:39:57Z</time></trkpt><trkpt lat="38.74530943952274" lon="16.220000592130727"><ele>239.85714285714286</ele><time>2026-05-05T09:40:05Z</time></trkpt><trkpt lat="38.74531133504767" lon="16.219919082703278"><ele>241.57142857142856</ele><time>2026-05-05T09:40:11Z</time></trkpt><trkpt lat="38.74530726095645" lon="16.219828686426098"><ele>243.28571428571428</ele><time>2026-05-05T09:40:19Z</time></trkpt><trkpt lat="38.74531187588671" lon="16.21974360860429"><ele>245.0</ele><time>2026-05-05T09:40:27Z</time></trkpt><trkpt lat="38.745301494204924" lon="16.219661681267585"><ele>245.57142857142856</ele><time>2026-05-05T09:40:36Z</time></trkpt><trkpt lat="38.74529400267425" lon="16.219572379344257"><ele>246.14285714285714</ele><time>2026-05-05T09:40:43Z</time></trkpt><trkpt lat="38.7453050601003" lon="16.219484245645926"><ele>246.71428571428572</ele><time>2026-05-05T09:40:51Z</time></trkpt><trkpt lat="38.74535199139503" lon="16.21942202343463"><ele>247.28571428571428</ele><time>2026-05-05T09:41:00Z</time></trkpt><trkpt lat="38.74542168428795" lon="16.219383799307877"><ele>247.85714285714283</ele><time>2026-05-05T09:41:09Z</time></trkpt><trkpt lat="38.74547269843245" lon="16.219333885010535"><ele>248.42857142857142</ele><time>2026-05-05T09:41:16Z</time></trkpt><trkpt lat="38.745519045590314" lon="16.21927424217108"><ele>249.0</ele><time>2026-05-05T09:41:25Z</time></trkpt><trkpt lat="38.745576966372" lon="16.219224283012895"><ele>249.0</ele><time>2026-05-05T09:41:33Z</time></trkpt><trkpt lat="38.74563224406063" lon="16.2191717284576"><ele>248.99999999999997</ele><time>2026-05-05T09:41:40Z</time></trkpt><trkpt lat="38.74568915201137" lon="16.21912482792766"><ele>249.0</ele><time>2026-05-05T09:42:03Z</time></trkpt><trkpt lat="38.74574304927065" lon="16.21908295614738"><ele>249.0</ele><time>2026-05-05T09:42:21Z</time></trkpt><trkpt lat="38.74580592701591" lon="16.219050025986583"><ele>248.99999999999997</ele><time>2026-05-05T09:42:28Z</time></trkpt><trkpt lat="38.74587160661573" lon="16.218996166704496"><ele>249.0</ele><time>2026-05-05T09:42:35Z</time></trkpt><trkpt lat="38.745924136084156" lon="16.21895112639911"><ele>249.0</ele><time>2026-05-05T09:42:41Z</time></trkpt><trkpt lat="38.74598318500736" lon="16.218893478659705"><ele>248.57142857142856</ele><time>2026-05-05T09:42:47Z</time></trkpt><trkpt lat="38.74603622782639" lon="16.218824867593217"><ele>248.1428571428571</ele><time>2026-05-05T09:42:54Z</time></trkpt><trkpt lat="38.74609086708703" lon="16.218763157214056"><ele>247.71428571428572</ele><time>2026-05-05T09:43:00Z</time></trkpt><trkpt lat="38.746144592230934" lon="16.218695709444756"><ele>247.28571428571428</ele><time>2026-05-05T09:43:07Z</time></trkpt><trkpt lat="38.74618760822646" lon="16.21862707286794"><ele>246.85714285714286</ele><time>2026-05-05T09:43:14Z</time></trkpt><trkpt lat="38.7462129210544" lon="16.218550185007203"><ele>246.42857142857144</ele><time>2026-05-05T09:43:45Z</time></trkpt><trkpt lat="38.746222927152886" lon="16.21846720722503"><ele>246.00000000000003</ele><time>2026-05-05T09:43:51Z</time></trkpt><trkpt lat="38.746222748776866" lon="16.21838548098663"><ele>246.00000000000003</ele><time>2026-05-05T09:43:57Z</time></trkpt><trkpt lat="38.74618289799454" lon="16.21831623047125"><ele>246.0</ele><time>2026-05-05T09:44:03Z</time></trkpt><trkpt lat="38.746131470334056" lon="16.21825784774293"><ele>246.00000000000003</ele><time>2026-05-05T09:44:09Z</time></trkpt><trkpt lat="38.74605731053855" lon="16.21821151213558"><ele>246.00000000000003</ele><time>2026-05-05T09:44:16Z</time></trkpt><trkpt lat="38.746003625292644" lon="16.21816759907956"><ele>246.0</ele><time>2026-05-05T09:44:22Z</time></trkpt><trkpt lat="38.74594371213175" lon="16.21811983645495"><ele>246.00000000000003</ele><time>2026-05-05T09:44:29Z</time></trkpt><trkpt lat="38.7458928238509" lon="16.2180714285374"><ele>246.00000000000003</ele><time>2026-05-05T09:44:35Z</time></trkpt><trkpt lat="38.74584283898759" lon="16.218012453897767"><ele>247.71428571428575</ele><time>2026-05-05T09:44:41Z</time></trkpt><trkpt lat="38.74579571271002" lon="16.217955658350878"><ele>249.42857142857144</ele><time>2026-05-05T09:44:47Z</time></trkpt><trkpt lat="38.745749802409655" lon="16.217894163878142"><ele>251.14285714285714</ele><time>2026-05-05T09:44:53Z</time></trkpt><trkpt lat="38.74570334213765" lon="16.21783297211458"><ele>252.85714285714286</ele><time>2026-05-05T09:44:59Z</time></trkpt><trkpt lat="38.745672798057804" lon="16.21775114899854"><ele>254.57142857142856</ele><time>2026-05-05T09:45:05Z</time></trkpt><trkpt lat="38.74563857145774" lon="16.21767741283177"><ele>256.2857142857143</ele><time>2026-05-05T09:45:11Z</time></trkpt><trkpt lat="38.74562381530152" lon="16.21758698470161"><ele>258.0</ele><time>2026-05-05T09:45:18Z</time></trkpt><trkpt lat="38.74560965820147" lon="16.217503514415473"><ele>257.99999999999994</ele><time>2026-05-05T09:45:24Z</time></trkpt><trkpt lat="38.745602448868425" lon="16.21741976719751"><ele>258.0</ele><time>2026-05-05T09:45:30Z</time></trkpt><trkpt lat="38.74558951945378" lon="16.217336745881557"><ele>258.0</ele><time>2026-05-05T09:45:37Z</time></trkpt><trkpt lat="38.7455749576821" lon="16.21725714378407"><ele>258.0</ele><time>2026-05-05T09:45:43Z</time></trkpt><trkpt lat="38.745565748328865" lon="16.21717091933332"><ele>258.0</ele><time>2026-05-05T09:45:49Z</time></trkpt><trkpt lat="38.745552569079365" lon="16.217091779786156"><ele>257.99999999999994</ele><time>2026-05-05T09:45:58Z</time></trkpt><trkpt lat="38.74553051274929" lon="16.217005136727625"><ele>258.0</ele><time>2026-05-05T09:46:05Z</time></trkpt><trkpt lat="38.745509764848855" lon="16.21692579013225"><ele>258.57142857142856</ele><time>2026-05-05T09:46:11Z</time></trkpt><trkpt lat="38.74548695593399" lon="16.216844565365214"><ele>259.1428571428571</ele><time>2026-05-05T09:46:17Z</time></trkpt><trkpt lat="38.745462392822134" lon="16.216751462355347"><ele>259.7142857142857</ele><time>2026-05-05T09:46:26Z</time></trkpt><trkpt lat="38.74542864567819" lon="16.21667728982355"><ele>260.2857142857143</ele><time>2026-05-05T09:46:32Z</time></trkpt><trkpt lat="38.74539220984119" lon="16.216606509603015"><ele>260.8571428571429</ele><time>2026-05-05T09:46:40Z</time></trkpt><trkpt lat="38.74535388873502" lon="16.216528094496848"><ele>261.42857142857144</ele><time>2026-05-05T09:46:47Z</time></trkpt><trkpt lat="38.745317926546804" lon="16.21644868303491"><ele>262.0</ele><time>2026-05-05T09:46:54Z</time></trkpt><trkpt lat="38.7452914012429" lon="16.216368654230642"><ele>262.57142857142856</ele><time>2026-05-05T09:47:01Z</time></trkpt><trkpt lat="38.74526842579623" lon="16.21628006199903"><ele>263.14285714285717</ele><time>2026-05-05T09:47:08Z</time></trkpt><trkpt lat="38.745241582953575" lon="16.216202929024128"><ele>263.7142857142857</ele><time>2026-05-05T09:47:15Z</time></trkpt><trkpt lat="38.74522997502599" lon="16.216118948292646"><ele>264.2857142857143</ele><time>2026-05-05T09:47:22Z</time></trkpt><trkpt lat="38.74522369779715" lon="16.216036969730087"><ele>264.8571428571429</ele><time>2026-05-05T09:47:28Z</time></trkpt><trkpt lat="38.74520334430479" lon="16.215954644623096"><ele>265.42857142857144</ele><time>2026-05-05T09:47:34Z</time></trkpt><trkpt lat="38.74517009815658" lon="16.215884862733667"><ele>266.0</ele><time>2026-05-05T09:47:41Z</time></trkpt><trkpt lat="38.745131549294385" lon="16.21581907907986"><ele>268.42857142857144</ele><time>2026-05-05T09:47:48Z</time></trkpt><trkpt lat="38.74508764587382" lon="16.21575089368557"><ele>270.8571428571429</ele><time>2026-05-05T09:47:55Z</time></trkpt><trkpt lat="38.745066630050474" lon="16.215673567884025"><ele>273.2857142857143</ele><time>2026-05-05T09:48:01Z</time></trkpt><trkpt lat="38.745034373193484" lon="16.215591315832626"><ele>275.7142857142857</ele><time>2026-05-05T09:48:07Z</time></trkpt><trkpt lat="38.74500577946358" lon="16.215506003188864"><ele>278.14285714285717</ele><time>2026-05-05T09:48:13Z</time></trkpt><trkpt lat="38.74497608884124" lon="16.215428849580753"><ele>280.57142857142856</ele><time>2026-05-05T09:48:19Z</time></trkpt><trkpt lat="38.744950774327926" lon="16.215349208142143"><ele>283.0</ele><time>2026-05-05T09:48:26Z</time></trkpt><trkpt lat="38.744931384072395" lon="16.215264910209026"><ele>283.2857142857143</ele><time>2026-05-05T09:48:32Z</time></trkpt><trkpt lat="38.74490930941866" lon="16.215172843996303"><ele>283.5714285714286</ele><time>2026-05-05T09:48:39Z</time></trkpt><trkpt lat="38.74488493251337" lon="16.215087723933777"><ele>283.8571428571429</ele><time>2026-05-05T09:48:45Z</time></trkpt><trkpt lat="38.74485923011139" lon="16.215008398869188"><ele>284.14285714285717</ele><time>2026-05-05T09:48:51Z</time></trkpt><trkpt lat="38.74482381832671" lon="16.21492359311295"><ele>284.42857142857144</ele><time>2026-05-05T09:48:58Z</time></trkpt><trkpt lat="38.744802437764626" lon="16.21484157361588"><ele>284.7142857142857</ele><time>2026-05-05T09:49:04Z</time></trkpt><trkpt lat="38.74478421357114" lon="16.214755992410986"><ele>285.0</ele><time>2026-05-05T09:49:10Z</time></trkpt><trkpt lat="38.74477050703381" lon="16.2146619277169"><ele>285.1428571428571</ele><time>2026-05-05T09:49:17Z</time></trkpt><trkpt lat="38.744741830433135" lon="16.21458943470826"><ele>285.2857142857143</ele><time>2026-05-05T09:49:22Z</time></trkpt><trkpt lat="38.744730509750546" lon="16.21450844061892"><ele>285.42857142857144</ele><time>2026-05-05T09:49:28Z</time></trkpt><trkpt lat="38.744726569949705" lon="16.2144214049878"><ele>285.57142857142856</ele><time>2026-05-05T09:49:34Z</time></trkpt><trkpt lat="38.74470189664945" lon="16.214327108797693"><ele>285.7142857142857</ele><time>2026-05-05T09:49:40Z</time></trkpt><trkpt lat="38.74468769655656" lon="16.214247374742467"><ele>285.85714285714283</ele><time>2026-05-05T09:49:46Z</time></trkpt><trkpt lat="38.744662276314195" lon="16.214168582219248"><ele>286.0</ele><time>2026-05-05T09:49:52Z</time></trkpt><trkpt lat="38.744624922870905" lon="16.214097785869885"><ele>285.99999999999994</ele><time>2026-05-05T09:49:59Z</time></trkpt><trkpt lat="38.74458126573121" lon="16.21403670837618"><ele>286.0</ele><time>2026-05-05T09:50:07Z</time></trkpt><trkpt lat="38.744544696593444" lon="16.21396649207816"><ele>286.0</ele><time>2026-05-05T09:50:14Z</time></trkpt><trkpt lat="38.74449056947833" lon="16.213915844489065"><ele>286.0</ele><time>2026-05-05T09:50:18Z</time></trkpt><trkpt lat="38.7444363074362" lon="16.213865978296585"><ele>286.0</ele><time>2026-05-05T09:50:24Z</time></trkpt><trkpt lat="38.744385253870874" lon="16.213805496326263"><ele>285.99999999999994</ele><time>2026-05-05T09:50:29Z</time></trkpt><trkpt lat="38.7443417097702" lon="16.21373800111905"><ele>286.0</ele><time>2026-05-05T09:50:35Z</time></trkpt><trkpt lat="38.744305310112274" lon="16.21366511252565"><ele>286.99999999999994</ele><time>2026-05-05T09:50:41Z</time></trkpt><trkpt lat="38.74428469532493" lon="16.21358307025082"><ele>288.0</ele><time>2026-05-05T09:50:46Z</time></trkpt><trkpt lat="38.7442721097789" lon="16.213496017452847"><ele>289.0</ele><time>2026-05-05T09:50:52Z</time></trkpt><trkpt lat="38.74426863663541" lon="16.21341367937955"><ele>290.0</ele><time>2026-05-05T09:50:58Z</time></trkpt><trkpt lat="38.744288757032876" lon="16.213335711093453"><ele>291.0</ele><time>2026-05-05T09:51:04Z</time></trkpt><trkpt lat="38.74427138295969" lon="16.213244449342472"><ele>291.99999999999994</ele><time>2026-05-05T09:51:14Z</time></trkpt><trkpt lat="38.744284617895794" lon="16.213160186338225"><ele>293.0</ele><time>2026-05-05T09:51:21Z</time></trkpt><trkpt lat="38.7442879385609" lon="16.213079150180757"><ele>294.1428571428571</ele><time>2026-05-05T09:51:27Z</time></trkpt><trkpt lat="38.74429156958411" lon="16.212987730096337"><ele>295.2857142857143</ele><time>2026-05-05T09:51:34Z</time></trkpt><trkpt lat="38.7442956712747" lon="16.212900596881198"><ele>296.42857142857144</ele><time>2026-05-05T09:51:40Z</time></trkpt><trkpt lat="38.74430381089186" lon="16.21280987692895"><ele>297.57142857142856</ele><time>2026-05-05T09:51:46Z</time></trkpt><trkpt lat="38.74431943294502" lon="16.212720003162264"><ele>298.7142857142857</ele><time>2026-05-05T09:51:55Z</time></trkpt><trkpt lat="38.744331044682845" lon="16.2126286054685"><ele>299.85714285714283</ele><time>2026-05-05T09:52:01Z</time></trkpt><trkpt lat="38.744329367033714" lon="16.212546911089447"><ele>301.0</ele><time>2026-05-05T09:52:10Z</time></trkpt><trkpt lat="38.74432650459462" lon="16.212457397489384"><ele>301.0</ele><time>2026-05-05T09:52:16Z</time></trkpt><trkpt lat="38.7443293422445" lon="16.212367719079747"><ele>301.0</ele><time>2026-05-05T09:52:23Z</time></trkpt><trkpt lat="38.74435006766328" lon="16.212279086954535"><ele>301.0</ele><time>2026-05-05T09:53:13Z</time></trkpt><trkpt lat="38.74435182205881" lon="16.212197727963755"><ele>301.0</ele><time>2026-05-05T09:53:18Z</time></trkpt><trkpt lat="38.74435817061233" lon="16.212112494006227"><ele>301.0</ele><time>2026-05-05T09:53:25Z</time></trkpt><trkpt lat="38.74435475569834" lon="16.212022245415593"><ele>301.0</ele><time>2026-05-05T09:53:32Z</time></trkpt><trkpt lat="38.74435397187183" lon="16.211936061170135"><ele>301.0</ele><time>2026-05-05T09:53:38Z</time></trkpt><trkpt lat="38.74435487194994" lon="16.211845955627503"><ele>302.0</ele><time>2026-05-05T09:53:44Z</time></trkpt><trkpt lat="38.74435377109796" lon="16.21175795780185"><ele>303.0</ele><time>2026-05-05T09:53:57Z</time></trkpt><trkpt lat="38.74436116081175" lon="16.211661562213386"><ele>304.0</ele><time>2026-05-05T09:54:03Z</time></trkpt><trkpt lat="38.744363682760444" lon="16.211568970481125"><ele>305.0</ele><time>2026-05-05T09:54:10Z</time></trkpt><trkpt lat="38.744364627304755" lon="16.211487828749654"><ele>306.0</ele><time>2026-05-05T09:54:16Z</time></trkpt><trkpt lat="38.744360336705334" lon="16.21139634666069"><ele>307.0</ele><time>2026-05-05T09:54:31Z</time></trkpt><trkpt lat="38.74435450457302" lon="16.211303262768794"><ele>308.0</ele><time>2026-05-05T09:54:38Z</time></trkpt><trkpt lat="38.74434639121912" lon="16.21121028196991"><ele>309.0</ele><time>2026-05-05T09:54:47Z</time></trkpt><trkpt lat="38.74433792603794" lon="16.211121199101015"><ele>310.0</ele><time>2026-05-05T09:54:53Z</time></trkpt><trkpt lat="38.74432046408508" lon="16.21103734166054"><ele>311.0</ele><time>2026-05-05T09:54:59Z</time></trkpt><trkpt lat="38.74430062622326" lon="16.210948965138634"><ele>312.0</ele><time>2026-05-05T09:55:05Z</time></trkpt><trkpt lat="38.744283475099095" lon="16.21086851273642"><ele>313.0</ele><time>2026-05-05T09:55:12Z</time></trkpt><trkpt lat="38.74424782607129" lon="16.21078378021446"><ele>314.0</ele><time>2026-05-05T09:55:17Z</time></trkpt><trkpt lat="38.74422431935161" lon="16.210699861054646"><ele>315.0</ele><time>2026-05-05T09:55:25Z</time></trkpt><trkpt lat="38.744200556597335" lon="16.21062323481112"><ele>316.0</ele><time>2026-05-05T09:55:32Z</time></trkpt><trkpt lat="38.74417899620725" lon="16.210540563450166"><ele>317.0</ele><time>2026-05-05T09:55:38Z</time></trkpt><trkpt lat="38.744138244535016" lon="16.210455848013385"><ele>318.0</ele><time>2026-05-05T09:56:45Z</time></trkpt><trkpt lat="38.744122377954014" lon="16.210365273322953"><ele>319.0</ele><time>2026-05-05T09:56:51Z</time></trkpt><trkpt lat="38.74409392445684" lon="16.210281298964592"><ele>320.0</ele><time>2026-05-05T09:56:57Z</time></trkpt><trkpt lat="38.74407285892276" lon="16.210200743907407"><ele>321.0</ele><time>2026-05-05T09:57:02Z</time></trkpt><trkpt lat="38.74404943143277" lon="16.210118610295936"><ele>322.0</ele><time>2026-05-05T09:57:08Z</time></trkpt><trkpt lat="38.744029955578455" lon="16.210034137341854"><ele>322.0</ele><time>2026-05-05T09:57:14Z</time></trkpt><trkpt lat="38.744000483392526" lon="16.209949069669324"><ele>322.0</ele><time>2026-05-05T09:57:20Z</time></trkpt><trkpt lat="38.74399639240198" lon="16.20985892699996"><ele>322.0</ele><time>2026-05-05T09:57:30Z</time></trkpt><trkpt lat="38.744005647399135" lon="16.209767083245655"><ele>322.0</ele><time>2026-05-05T09:57:36Z</time></trkpt><trkpt lat="38.744005513289146" lon="16.20967997678589"><ele>322.0</ele><time>2026-05-05T09:57:41Z</time></trkpt><trkpt lat="38.74398379143438" lon="16.20959619129842"><ele>322.0</ele><time>2026-05-05T09:57:48Z</time></trkpt><trkpt lat="38.74397694963075" lon="16.20951290345125"><ele>322.0</ele><time>2026-05-05T09:57:55Z</time></trkpt><trkpt lat="38.743982959982205" lon="16.20942459619719"><ele>322.57142857142856</ele><time>2026-05-05T09:58:03Z</time></trkpt><trkpt lat="38.743968176539035" lon="16.209344534183654"><ele>323.1428571428571</ele><time>2026-05-05T09:58:08Z</time></trkpt><trkpt lat="38.74396204246729" lon="16.209257738294937"><ele>323.7142857142857</ele><time>2026-05-05T09:58:14Z</time></trkpt><trkpt lat="38.74392910990499" lon="16.20918556175997"><ele>324.2857142857143</ele><time>2026-05-05T09:58:20Z</time></trkpt><trkpt lat="38.74392603584455" lon="16.209102824744967"><ele>324.85714285714283</ele><time>2026-05-05T09:58:26Z</time></trkpt><trkpt lat="38.74392662363148" lon="16.20901177497234"><ele>325.42857142857144</ele><time>2026-05-05T09:58:34Z</time></trkpt><trkpt lat="38.743908408070126" lon="16.20892618072465"><ele>326.0</ele><time>2026-05-05T09:58:43Z</time></trkpt><trkpt lat="38.74389516596579" lon="16.208843488338836"><ele>326.5714285714286</ele><time>2026-05-05T09:58:50Z</time></trkpt><trkpt lat="38.74387877554625" lon="16.208756795378346"><ele>327.1428571428571</ele><time>2026-05-05T09:58:56Z</time></trkpt><trkpt lat="38.74387194870402" lon="16.208675813479108"><ele>327.7142857142857</ele><time>2026-05-05T09:59:01Z</time></trkpt><trkpt lat="38.74388049659111" lon="16.20859000109287"><ele>328.28571428571433</ele><time>2026-05-05T09:59:08Z</time></trkpt><trkpt lat="38.74386665000519" lon="16.20850837722434"><ele>328.8571428571429</ele><time>2026-05-05T09:59:13Z</time></trkpt><trkpt lat="38.74386857530894" lon="16.208413649358146"><ele>329.42857142857144</ele><time>2026-05-05T09:59:19Z</time></trkpt><trkpt lat="38.74385106879749" lon="16.208311830502627"><ele>330.0</ele><time>2026-05-05T09:59:26Z</time></trkpt><trkpt lat="38.74383546380526" lon="16.208227556587218"><ele>330.5714285714286</ele><time>2026-05-05T09:59:32Z</time></trkpt><trkpt lat="38.74382809500372" lon="16.20814348062797"><ele>331.14285714285717</ele><time>2026-05-05T09:59:37Z</time></trkpt><trkpt lat="38.7438166247239" lon="16.208052564920568"><ele>331.7142857142857</ele><time>2026-05-05T09:59:43Z</time></trkpt><trkpt lat="38.7438143613396" lon="16.207958916590094"><ele>332.28571428571433</ele><time>2026-05-05T09:59:49Z</time></trkpt><trkpt lat="38.743783892456236" lon="16.20788087854519"><ele>332.8571428571429</ele><time>2026-05-05T09:59:55Z</time></trkpt><trkpt lat="38.74376246782874" lon="16.20779575683918"><ele>333.42857142857144</ele><time>2026-05-05T10:00:02Z</time></trkpt><trkpt lat="38.74373031665246" lon="16.207714996698957"><ele>334.0</ele><time>2026-05-05T10:00:07Z</time></trkpt><trkpt lat="38.743715849688435" lon="16.207623171712715"><ele>334.0</ele><time>2026-05-05T10:00:13Z</time></trkpt><trkpt lat="38.74369695735769" lon="16.207542238044624"><ele>334.0</ele><time>2026-05-05T10:00:18Z</time></trkpt><trkpt lat="38.743670050502026" lon="16.207460092819623"><ele>334.0</ele><time>2026-05-05T10:00:23Z</time></trkpt><trkpt lat="38.74364711958627" lon="16.20738271053467"><ele>334.0</ele><time>2026-05-05T10:00:29Z</time></trkpt><trkpt lat="38.743641928818555" lon="16.207293093738816"><ele>334.0</ele><time>2026-05-05T10:00:34Z</time></trkpt><trkpt lat="38.74361606868371" lon="16.207215441507113"><ele>334.0</ele><time>2026-05-05T10:00:39Z</time></trkpt><trkpt lat="38.74359612067552" lon="16.207138471030223"><ele>334.0</ele><time>2026-05-05T10:00:44Z</time></trkpt><trkpt lat="38.74357932619643" lon="16.20704869932871"><ele>333.85714285714283</ele><time>2026-05-05T10:00:50Z</time></trkpt><trkpt lat="38.74356096205304" lon="16.206971276805966"><ele>333.7142857142857</ele><time>2026-05-05T10:00:55Z</time></trkpt><trkpt lat="38.743549122286346" lon="16.2068910312618"><ele>333.57142857142856</ele><time>2026-05-05T10:01:00Z</time></trkpt><trkpt lat="38.743533198764666" lon="16.20681068726934"><ele>333.42857142857144</ele><time>2026-05-05T10:01:06Z</time></trkpt><trkpt lat="38.74352351275235" lon="16.206720326364618"><ele>333.2857142857143</ele><time>2026-05-05T10:01:11Z</time></trkpt><trkpt lat="38.74350995671093" lon="16.206628061003723"><ele>333.14285714285717</ele><time>2026-05-05T10:01:18Z</time></trkpt><trkpt lat="38.74349625866563" lon="16.20654139979985"><ele>333.0</ele><time>2026-05-05T10:01:23Z</time></trkpt><trkpt lat="38.74347871013679" lon="16.20645133021705"><ele>333.42857142857144</ele><time>2026-05-05T10:01:29Z</time></trkpt><trkpt lat="38.74345459333292" lon="16.20636629066103"><ele>333.85714285714283</ele><time>2026-05-05T10:01:34Z</time></trkpt><trkpt lat="38.743431989135416" lon="16.206267999393127"><ele>334.2857142857143</ele><time>2026-05-05T10:01:40Z</time></trkpt><trkpt lat="38.74341987883888" lon="16.206174484837522"><ele>334.7142857142857</ele><time>2026-05-05T10:01:47Z</time></trkpt><trkpt lat="38.74340543613773" lon="16.206094591515654"><ele>335.1428571428571</ele><time>2026-05-05T10:01:52Z</time></trkpt><trkpt lat="38.74337766182982" lon="16.20601299108705"><ele>335.57142857142856</ele><time>2026-05-05T10:01:58Z</time></trkpt><trkpt lat="38.74335139938974" lon="16.20592809174892"><ele>336.0</ele><time>2026-05-05T10:02:04Z</time></trkpt><trkpt lat="38.743321405101206" lon="16.205851760107432"><ele>336.0</ele><time>2026-05-05T10:02:09Z</time></trkpt><trkpt lat="38.74329290968671" lon="16.205765893558503"><ele>336.0</ele><time>2026-05-05T10:02:15Z</time></trkpt><trkpt lat="38.74325662949061" lon="16.20567883974757"><ele>336.0</ele><time>2026-05-05T10:02:22Z</time></trkpt><trkpt lat="38.743219320434285" lon="16.205600792442233"><ele>336.0</ele><time>2026-05-05T10:02:28Z</time></trkpt><trkpt lat="38.743183744236255" lon="16.205531867178838"><ele>336.0</ele><time>2026-05-05T10:02:33Z</time></trkpt><trkpt lat="38.7431525792682" lon="16.205458445776014"><ele>336.0</ele><time>2026-05-05T10:02:39Z</time></trkpt><trkpt lat="38.74312565594584" lon="16.20538002794235"><ele>336.0</ele><time>2026-05-05T10:02:44Z</time></trkpt><trkpt lat="38.74309395139395" lon="16.205302003277907"><ele>335.85714285714283</ele><time>2026-05-05T10:02:50Z</time></trkpt><trkpt lat="38.74307057185847" lon="16.205219209587757"><ele>335.7142857142857</ele><time>2026-05-05T10:02:55Z</time></trkpt><trkpt lat="38.743038598036925" lon="16.205140888154254"><ele>335.57142857142856</ele><time>2026-05-05T10:03:01Z</time></trkpt><trkpt lat="38.74300834753055" lon="16.205061180425343"><ele>335.42857142857144</ele><time>2026-05-05T10:03:06Z</time></trkpt><trkpt lat="38.74298829277519" lon="16.204978627350236"><ele>335.2857142857143</ele><time>2026-05-05T10:03:12Z</time></trkpt><trkpt lat="38.7429958340065" lon="16.204891516212776"><ele>335.1428571428571</ele><time>2026-05-05T10:03:17Z</time></trkpt><trkpt lat="38.74297967049643" lon="16.204802279316976"><ele>335.0</ele><time>2026-05-05T10:03:23Z</time></trkpt><trkpt lat="38.742957315970756" lon="16.204719037883127"><ele>334.85714285714283</ele><time>2026-05-05T10:03:28Z</time></trkpt><trkpt lat="38.7429365708927" lon="16.204628243382142"><ele>334.7142857142857</ele><time>2026-05-05T10:03:34Z</time></trkpt><trkpt lat="38.742910891082346" lon="16.204541436197843"><ele>334.57142857142856</ele><time>2026-05-05T10:03:39Z</time></trkpt><trkpt lat="38.74288958632699" lon="16.2044526720916"><ele>334.42857142857144</ele><time>2026-05-05T10:03:45Z</time></trkpt><trkpt lat="38.742866415161146" lon="16.204372687260925"><ele>334.2857142857143</ele><time>2026-05-05T10:03:50Z</time></trkpt><trkpt lat="38.74284696546344" lon="16.20429070155597"><ele>334.1428571428571</ele><time>2026-05-05T10:03:56Z</time></trkpt><trkpt lat="38.74282218865307" lon="16.204202610151548"><ele>334.0</ele><time>2026-05-05T10:04:01Z</time></trkpt><trkpt lat="38.74279788663671" lon="16.204120019949592"><ele>334.0</ele><time>2026-05-05T10:04:07Z</time></trkpt><trkpt lat="38.742764834883396" lon="16.204037374299524"><ele>334.0</ele><time>2026-05-05T10:04:12Z</time></trkpt><trkpt lat="38.742735327090436" lon="16.203954515183696"><ele>334.0</ele><time>2026-05-05T10:04:18Z</time></trkpt><trkpt lat="38.742706902504985" lon="16.20386889556014"><ele>334.0</ele><time>2026-05-05T10:04:23Z</time></trkpt><trkpt lat="38.74268271707324" lon="16.203787190359826"><ele>334.0</ele><time>2026-05-05T10:04:29Z</time></trkpt><trkpt lat="38.742652644298936" lon="16.203710752245893"><ele>334.0</ele><time>2026-05-05T10:04:34Z</time></trkpt><trkpt lat="38.74262742268629" lon="16.20363289534459"><ele>334.0</ele><time>2026-05-05T10:04:39Z</time></trkpt><trkpt lat="38.74259831754576" lon="16.203553997502922"><ele>334.42857142857144</ele><time>2026-05-05T10:04:44Z</time></trkpt><trkpt lat="38.74257010258918" lon="16.20345963130187"><ele>334.8571428571429</ele><time>2026-05-05T10:04:50Z</time></trkpt><trkpt lat="38.74254352736869" lon="16.20337824478882"><ele>335.28571428571433</ele><time>2026-05-05T10:04:56Z</time></trkpt><trkpt lat="38.74251306963844" lon="16.203291483913393"><ele>335.7142857142857</ele><time>2026-05-05T10:05:01Z</time></trkpt><trkpt lat="38.742492312250384" lon="16.203214144448104"><ele>336.14285714285717</ele><time>2026-05-05T10:05:07Z</time></trkpt><trkpt lat="38.74247521150689" lon="16.203127211849964"><ele>336.5714285714286</ele><time>2026-05-05T10:05:12Z</time></trkpt><trkpt lat="38.74245019859958" lon="16.20304789715663"><ele>337.0</ele><time>2026-05-05T10:05:17Z</time></trkpt><trkpt lat="38.742434313774915" lon="16.202953447262725"><ele>337.00000000000006</ele><time>2026-05-05T10:05:23Z</time></trkpt><trkpt lat="38.742420436396635" lon="16.20286578621251"><ele>337.0</ele><time>2026-05-05T10:05:29Z</time></trkpt><trkpt lat="38.742422591378414" lon="16.202780872803743"><ele>337.0</ele><time>2026-05-05T10:05:35Z</time></trkpt><trkpt lat="38.74242386643029" lon="16.20270010345434"><ele>337.0</ele><time>2026-05-05T10:05:40Z</time></trkpt><trkpt lat="38.74241420219507" lon="16.202611760719222"><ele>337.0</ele><time>2026-05-05T10:05:45Z</time></trkpt><trkpt lat="38.74239855121196" lon="16.202523452785492"><ele>337.00000000000006</ele><time>2026-05-05T10:05:51Z</time></trkpt><trkpt lat="38.7423892540386" lon="16.202427998702706"><ele>337.0</ele><time>2026-05-05T10:05:57Z</time></trkpt><trkpt lat="38.742371083850834" lon="16.20235014021458"><ele>336.5714285714286</ele><time>2026-05-05T10:06:03Z</time></trkpt><trkpt lat="38.74230566052438" lon="16.202327868493498"><ele>336.14285714285717</ele><time>2026-05-05T10:06:19Z</time></trkpt><trkpt lat="38.74223697985766" lon="16.202304758085095"><ele>335.7142857142857</ele><time>2026-05-05T10:06:25Z</time></trkpt><trkpt lat="38.74217322632611" lon="16.202291894543098"><ele>335.28571428571433</ele><time>2026-05-05T10:06:30Z</time></trkpt><trkpt lat="38.7421108387852" lon="16.20227502669261"><ele>334.8571428571429</ele><time>2026-05-05T10:06:36Z</time></trkpt><trkpt lat="38.74203875330236" lon="16.202254401239387"><ele>334.42857142857144</ele><time>2026-05-05T10:06:41Z</time></trkpt><trkpt lat="38.741973839856335" lon="16.202235326674938"><ele>334.0</ele><time>2026-05-05T10:06:47Z</time></trkpt><trkpt lat="38.74190206205992" lon="16.20221841392313"><ele>334.1428571428571</ele><time>2026-05-05T10:06:52Z</time></trkpt><trkpt lat="38.741838097890785" lon="16.202200868902814"><ele>334.2857142857143</ele><time>2026-05-05T10:06:58Z</time></trkpt><trkpt lat="38.741772304715326" lon="16.202185361844524"><ele>334.42857142857144</ele><time>2026-05-05T10:07:03Z</time></trkpt><trkpt lat="38.74169767333462" lon="16.20216777826784"><ele>334.57142857142856</ele><time>2026-05-05T10:07:09Z</time></trkpt><trkpt lat="38.741627675678636" lon="16.20214506591037"><ele>334.7142857142857</ele><time>2026-05-05T10:07:15Z</time></trkpt><trkpt lat="38.741561901828604" lon="16.202117427371217"><ele>334.85714285714283</ele><time>2026-05-05T10:07:21Z</time></trkpt><trkpt lat="38.741494584466786" lon="16.20210270822059"><ele>335.0</ele><time>2026-05-05T10:07:26Z</time></trkpt><trkpt lat="38.7414266725989" lon="16.202064295306904"><ele>334.99999999999994</ele><time>2026-05-05T10:07:33Z</time></trkpt><trkpt lat="38.7413541490777" lon="16.20203979850392"><ele>335.0</ele><time>2026-05-05T10:07:46Z</time></trkpt><trkpt lat="38.741287240075366" lon="16.202020309656934"><ele>335.0</ele><time>2026-05-05T10:07:52Z</time></trkpt><trkpt lat="38.741227610219056" lon="16.201990164407725"><ele>335.0</ele><time>2026-05-05T10:07:58Z</time></trkpt><trkpt lat="38.74116776666902" lon="16.201961622799786"><ele>335.0</ele><time>2026-05-05T10:08:03Z</time></trkpt><trkpt lat="38.74109904580439" lon="16.201932020752892"><ele>334.99999999999994</ele><time>2026-05-05T10:08:09Z</time></trkpt><trkpt lat="38.74103955980581" lon="16.20190388515424"><ele>335.0</ele><time>2026-05-05T10:08:15Z</time></trkpt><trkpt lat="38.74097775396127" lon="16.20188237684569"><ele>336.2857142857143</ele><time>2026-05-05T10:08:20Z</time></trkpt><trkpt lat="38.740913424908044" lon="16.20184314334432"><ele>337.57142857142856</ele><time>2026-05-05T10:08:26Z</time></trkpt><trkpt lat="38.74086115553667" lon="16.201792192173297"><ele>338.8571428571429</ele><time>2026-05-05T10:08:32Z</time></trkpt><trkpt lat="38.74079984937537" lon="16.201759340277587"><ele>340.1428571428571</ele><time>2026-05-05T10:08:37Z</time></trkpt><trkpt lat="38.74073499849088" lon="16.201714019130883"><ele>341.42857142857144</ele><time>2026-05-05T10:08:44Z</time></trkpt><trkpt lat="38.74067158526386" lon="16.201688977541284"><ele>342.7142857142857</ele><time>2026-05-05T10:08:52Z</time></trkpt><trkpt lat="38.74061458648716" lon="16.20165426986528"><ele>344.0</ele><time>2026-05-05T10:08:57Z</time></trkpt><trkpt lat="38.74055868793132" lon="16.201615193788232"><ele>344.00000000000006</ele><time>2026-05-05T10:09:03Z</time></trkpt><trkpt lat="38.74050439205285" lon="16.20156421227566"><ele>344.0</ele><time>2026-05-05T10:09:09Z</time></trkpt><trkpt lat="38.74043916595916" lon="16.201537378796043"><ele>344.0</ele><time>2026-05-05T10:09:16Z</time></trkpt><trkpt lat="38.740382330762145" lon="16.201492091854693"><ele>344.0</ele><time>2026-05-05T10:09:22Z</time></trkpt><trkpt lat="38.74031730484675" lon="16.20146108153795"><ele>344.0</ele><time>2026-05-05T10:09:30Z</time></trkpt><trkpt lat="38.74026555195059" lon="16.201410330917593"><ele>344.00000000000006</ele><time>2026-05-05T10:09:36Z</time></trkpt><trkpt lat="38.7402008045273" lon="16.201380497421685"><ele>344.0</ele><time>2026-05-05T10:09:41Z</time></trkpt><trkpt lat="38.740140417050796" lon="16.20133462270496"><ele>344.14285714285717</ele><time>2026-05-05T10:09:47Z</time></trkpt><trkpt lat="38.740077920997585" lon="16.20129852843374"><ele>344.2857142857143</ele><time>2026-05-05T10:09:54Z</time></trkpt><trkpt lat="38.74001998033438" lon="16.2012634462918"><ele>344.42857142857144</ele><time>2026-05-05T10:10:03Z</time></trkpt><trkpt lat="38.740035170982516" lon="16.20117797259693"><ele>344.57142857142856</ele><time>2026-05-05T10:10:16Z</time></trkpt><trkpt lat="38.74008563869934" lon="16.20112468933007"><ele>344.7142857142857</ele><time>2026-05-05T10:10:21Z</time></trkpt><trkpt lat="38.74012695904919" lon="16.201061692584915"><ele>344.8571428571429</ele><time>2026-05-05T10:10:27Z</time></trkpt><trkpt lat="38.74016899019586" lon="16.200991071272718"><ele>345.0</ele><time>2026-05-05T10:10:33Z</time></trkpt><trkpt lat="38.74021991555302" lon="16.20093207093611"><ele>345.0</ele><time>2026-05-05T10:10:39Z</time></trkpt><trkpt lat="38.74025762770669" lon="16.20085404679577"><ele>345.0</ele><time>2026-05-05T10:10:45Z</time></trkpt><trkpt lat="38.74029480290196" lon="16.20078726734618"><ele>345.0</ele><time>2026-05-05T10:10:50Z</time></trkpt><trkpt lat="38.74033355483036" lon="16.20070149300934"><ele>345.0</ele><time>2026-05-05T10:10:57Z</time></trkpt><trkpt lat="38.74036940957512" lon="16.200634109441385"><ele>345.0</ele><time>2026-05-05T10:11:02Z</time></trkpt><trkpt lat="38.740406126284704" lon="16.200560143072416"><ele>345.0</ele><time>2026-05-05T10:11:08Z</time></trkpt><trkpt lat="38.740435462155844" lon="16.20046475407239"><ele>345.0</ele><time>2026-05-05T10:11:13Z</time></trkpt><trkpt lat="38.740470818643" lon="16.20038194391788"><ele>345.42857142857144</ele><time>2026-05-05T10:11:20Z</time></trkpt><trkpt lat="38.74049204722582" lon="16.200299794599488"><ele>345.85714285714283</ele><time>2026-05-05T10:11:25Z</time></trkpt><trkpt lat="38.74051762819191" lon="16.200212886778576"><ele>346.2857142857143</ele><time>2026-05-05T10:11:31Z</time></trkpt><trkpt lat="38.74054538585147" lon="16.20012763996978"><ele>346.7142857142857</ele><time>2026-05-05T10:11:36Z</time></trkpt><trkpt lat="38.740567580126694" lon="16.20004578368733"><ele>347.14285714285717</ele><time>2026-05-05T10:11:43Z</time></trkpt><trkpt lat="38.74059880929647" lon="16.199969578509723"><ele>347.57142857142856</ele><time>2026-05-05T10:11:48Z</time></trkpt><trkpt lat="38.740653996384744" lon="16.199903052985086"><ele>348.0</ele><time>2026-05-05T10:11:55Z</time></trkpt><trkpt lat="38.74069407377903" lon="16.199837540003298"><ele>347.85714285714283</ele><time>2026-05-05T10:12:00Z</time></trkpt><trkpt lat="38.740743002798915" lon="16.199770271370795"><ele>347.7142857142857</ele><time>2026-05-05T10:12:06Z</time></trkpt><trkpt lat="38.74077339265604" lon="16.199680287960764"><ele>347.57142857142856</ele><time>2026-05-05T10:12:11Z</time></trkpt><trkpt lat="38.740773728363436" lon="16.199594313065692"><ele>347.42857142857144</ele><time>2026-05-05T10:12:16Z</time></trkpt><trkpt lat="38.74080625332051" lon="16.19951430766023"><ele>347.2857142857143</ele><time>2026-05-05T10:12:23Z</time></trkpt><trkpt lat="38.7408286703188" lon="16.199428240642302"><ele>347.14285714285717</ele><time>2026-05-05T10:12:31Z</time></trkpt><trkpt lat="38.74085352275212" lon="16.199351619989276"><ele>347.0</ele><time>2026-05-05T10:12:37Z</time></trkpt><trkpt lat="38.74088478331971" lon="16.199262887476156"><ele>347.0</ele><time>2026-05-05T10:12:42Z</time></trkpt><trkpt lat="38.7409159100462" lon="16.19918573824261"><ele>347.0</ele><time>2026-05-05T10:12:48Z</time></trkpt><trkpt lat="38.740942661820846" lon="16.199108854130998"><ele>347.0</ele><time>2026-05-05T10:12:53Z</time></trkpt><trkpt lat="38.74095102082409" lon="16.19901293866521"><ele>347.0</ele><time>2026-05-05T10:13:00Z</time></trkpt><trkpt lat="38.74098244502256" lon="16.198939201252035"><ele>347.0</ele><time>2026-05-05T10:13:05Z</time></trkpt><trkpt lat="38.741007506106754" lon="16.198860640753264"><ele>347.0</ele><time>2026-05-05T10:13:10Z</time></trkpt><trkpt lat="38.74104396688254" lon="16.19877236779879"><ele>347.0</ele><time>2026-05-05T10:13:16Z</time></trkpt><trkpt lat="38.74109074510806" lon="16.198704935685996"><ele>346.14285714285717</ele><time>2026-05-05T10:13:22Z</time></trkpt><trkpt lat="38.74113001019613" lon="16.19863014434911"><ele>345.2857142857143</ele><time>2026-05-05T10:13:27Z</time></trkpt><trkpt lat="38.74115836731333" lon="16.19853104787069"><ele>344.42857142857144</ele><time>2026-05-05T10:13:33Z</time></trkpt><trkpt lat="38.74120102724737" lon="16.198460921072957"><ele>343.57142857142856</ele><time>2026-05-05T10:13:38Z</time></trkpt><trkpt lat="38.741231784070486" lon="16.198381026290654"><ele>342.7142857142857</ele><time>2026-05-05T10:13:44Z</time></trkpt><trkpt lat="38.7412621863484" lon="16.19829744926997"><ele>341.85714285714283</ele><time>2026-05-05T10:13:49Z</time></trkpt><trkpt lat="38.74129425599104" lon="16.198212105090168"><ele>341.0</ele><time>2026-05-05T10:13:55Z</time></trkpt><trkpt lat="38.741325707375346" lon="16.198124039779948"><ele>340.7142857142857</ele><time>2026-05-05T10:14:01Z</time></trkpt><trkpt lat="38.741348133576764" lon="16.198032599460458"><ele>340.42857142857144</ele><time>2026-05-05T10:14:07Z</time></trkpt><trkpt lat="38.74136495590461" lon="16.197937045081016"><ele>340.1428571428571</ele><time>2026-05-05T10:14:13Z</time></trkpt><trkpt lat="38.741357909716626" lon="16.197846537844026"><ele>339.8571428571429</ele><time>2026-05-05T10:14:18Z</time></trkpt><trkpt lat="38.741336076253745" lon="16.197762657556453"><ele>339.5714285714286</ele><time>2026-05-05T10:14:24Z</time></trkpt><trkpt lat="38.74130877028864" lon="16.197680819511604"><ele>339.2857142857143</ele><time>2026-05-05T10:14:29Z</time></trkpt><trkpt lat="38.74128293900512" lon="16.197595984478696"><ele>339.0</ele><time>2026-05-05T10:14:35Z</time></trkpt><trkpt lat="38.741259805245285" lon="16.197501919502095"><ele>339.0</ele><time>2026-05-05T10:14:40Z</time></trkpt><trkpt lat="38.74124300684005" lon="16.19741430126247"><ele>339.0</ele><time>2026-05-05T10:14:46Z</time></trkpt><trkpt lat="38.741227091884774" lon="16.197322999806303"><ele>339.0</ele><time>2026-05-05T10:14:51Z</time></trkpt><trkpt lat="38.74120462472946" lon="16.197233859056716"><ele>339.0</ele><time>2026-05-05T10:14:57Z</time></trkpt><trkpt lat="38.741178293048655" lon="16.19715393314151"><ele>339.0</ele><time>2026-05-05T10:15:01Z</time></trkpt><trkpt lat="38.741152278211494" lon="16.19707752612549"><ele>339.0</ele><time>2026-05-05T10:15:06Z</time></trkpt><trkpt lat="38.74113012954323" lon="16.19700189980514"><ele>339.0</ele><time>2026-05-05T10:15:11Z</time></trkpt><trkpt lat="38.74111007370475" lon="16.196920558483626"><ele>338.7142857142857</ele><time>2026-05-05T10:15:16Z</time></trkpt><trkpt lat="38.74107374862769" lon="16.196840312866634"><ele>338.42857142857144</ele><time>2026-05-05T10:15:23Z</time></trkpt><trkpt lat="38.74104000450224" lon="16.196758212312837"><ele>338.14285714285717</ele><time>2026-05-05T10:15:29Z</time></trkpt><trkpt lat="38.740999359593026" lon="16.196676394305136"><ele>337.8571428571429</ele><time>2026-05-05T10:15:35Z</time></trkpt><trkpt lat="38.740972952269935" lon="16.19659546482339"><ele>337.57142857142856</ele><time>2026-05-05T10:15:40Z</time></trkpt><trkpt lat="38.74093745302726" lon="16.196513702624863"><ele>337.28571428571433</ele><time>2026-05-05T10:15:45Z</time></trkpt><trkpt lat="38.74090848262345" lon="16.196434594491002"><ele>337.0</ele><time>2026-05-05T10:15:51Z</time></trkpt><trkpt lat="38.74087655141541" lon="16.196344510768423"><ele>337.7142857142857</ele><time>2026-05-05T10:15:56Z</time></trkpt><trkpt lat="38.74084409603629" lon="16.196269583610878"><ele>338.42857142857144</ele><time>2026-05-05T10:16:01Z</time></trkpt><trkpt lat="38.7408290926789" lon="16.196184660516405"><ele>339.1428571428571</ele><time>2026-05-05T10:16:07Z</time></trkpt><trkpt lat="38.740820549274716" lon="16.19609403863829"><ele>339.8571428571429</ele><time>2026-05-05T10:16:12Z</time></trkpt><trkpt lat="38.74079570083082" lon="16.196005059078438"><ele>340.57142857142856</ele><time>2026-05-05T10:16:18Z</time></trkpt><trkpt lat="38.74078923762259" lon="16.195924656022576"><ele>341.2857142857143</ele><time>2026-05-05T10:16:23Z</time></trkpt><trkpt lat="38.740770144138665" lon="16.19584111391541"><ele>342.0</ele><time>2026-05-05T10:16:28Z</time></trkpt><trkpt lat="38.74075097659675" lon="16.195751583470123"><ele>341.4285714285714</ele><time>2026-05-05T10:16:34Z</time></trkpt><trkpt lat="38.740736807257505" lon="16.195655302548218"><ele>340.85714285714283</ele><time>2026-05-05T10:16:39Z</time></trkpt><trkpt lat="38.740715258404684" lon="16.195577546664197"><ele>340.2857142857143</ele><time>2026-05-05T10:16:44Z</time></trkpt><trkpt lat="38.740720386443044" lon="16.195479575365148"><ele>339.71428571428567</ele><time>2026-05-05T10:16:51Z</time></trkpt><trkpt lat="38.74070950708693" lon="16.19539648109971"><ele>339.1428571428571</ele><time>2026-05-05T10:16:56Z</time></trkpt><trkpt lat="38.74070084512143" lon="16.19531370141633"><ele>338.57142857142856</ele><time>2026-05-05T10:17:02Z</time></trkpt><trkpt lat="38.740705054551576" lon="16.19523008585755"><ele>338.0</ele><time>2026-05-05T10:17:07Z</time></trkpt><trkpt lat="38.74070572925793" lon="16.195142794132234"><ele>338.0</ele><time>2026-05-05T10:17:13Z</time></trkpt><trkpt lat="38.74069905762203" lon="16.195052692353386"><ele>338.0</ele><time>2026-05-05T10:17:18Z</time></trkpt><trkpt lat="38.74069070912049" lon="16.194963933855874"><ele>338.0</ele><time>2026-05-05T10:17:24Z</time></trkpt><trkpt lat="38.74068137234544" lon="16.194883345269616"><ele>338.0</ele><time>2026-05-05T10:17:29Z</time></trkpt><trkpt lat="38.740683818734965" lon="16.19478611340404"><ele>338.0</ele><time>2026-05-05T10:17:35Z</time></trkpt><trkpt lat="38.7406787563423" lon="16.194703423736936"><ele>338.0</ele><time>2026-05-05T10:17:40Z</time></trkpt><trkpt lat="38.740676554366274" lon="16.194605081399516"><ele>338.0</ele><time>2026-05-05T10:17:46Z</time></trkpt><trkpt lat="38.74067214811731" lon="16.194505127660268"><ele>337.7142857142857</ele><time>2026-05-05T10:17:53Z</time></trkpt><trkpt lat="38.7406865762102" lon="16.194414759495746"><ele>337.42857142857144</ele><time>2026-05-05T10:17:59Z</time></trkpt><trkpt lat="38.740691541779356" lon="16.194317857309454"><ele>337.1428571428571</ele><time>2026-05-05T10:18:05Z</time></trkpt><trkpt lat="38.74068093091492" lon="16.19421249387621"><ele>336.8571428571429</ele><time>2026-05-05T10:18:08Z</time></trkpt><trkpt lat="38.7407011954932" lon="16.194127787876138"><ele>336.57142857142856</ele><time>2026-05-05T10:18:18Z</time></trkpt><trkpt lat="38.740713099346365" lon="16.19404402606397"><ele>336.2857142857143</ele><time>2026-05-05T10:18:24Z</time></trkpt><trkpt lat="38.740704753686025" lon="16.193958634823385"><ele>336.0</ele><time>2026-05-05T10:18:29Z</time></trkpt><trkpt lat="38.74069723389096" lon="16.19387157486047"><ele>335.42857142857144</ele><time>2026-05-05T10:18:35Z</time></trkpt><trkpt lat="38.74069602039221" lon="16.19378433737456"><ele>334.8571428571429</ele><time>2026-05-05T10:18:40Z</time></trkpt><trkpt lat="38.74068409828523" lon="16.193699545486393"><ele>334.2857142857143</ele><time>2026-05-05T10:18:46Z</time></trkpt><trkpt lat="38.740673017383635" lon="16.193600810290302"><ele>333.7142857142857</ele><time>2026-05-05T10:18:52Z</time></trkpt><trkpt lat="38.74065280260329" lon="16.193514934265835"><ele>333.14285714285717</ele><time>2026-05-05T10:18:57Z</time></trkpt><trkpt lat="38.740644659769885" lon="16.193425451209993"><ele>332.57142857142856</ele><time>2026-05-05T10:19:03Z</time></trkpt><trkpt lat="38.740627338715534" lon="16.193346669129497"><ele>332.0</ele><time>2026-05-05T10:19:08Z</time></trkpt><trkpt lat="38.740603500314734" lon="16.193260439594145"><ele>332.0</ele><time>2026-05-05T10:19:14Z</time></trkpt><trkpt lat="38.74058145892169" lon="16.193176506458038"><ele>332.0</ele><time>2026-05-05T10:19:20Z</time></trkpt><trkpt lat="38.740552998156964" lon="16.19309280620331"><ele>332.0</ele><time>2026-05-05T10:19:26Z</time></trkpt><trkpt lat="38.7405359278275" lon="16.19300438973759"><ele>332.0</ele><time>2026-05-05T10:19:32Z</time></trkpt><trkpt lat="38.740515531641876" lon="16.19291006467226"><ele>332.0</ele><time>2026-05-05T10:19:38Z</time></trkpt><trkpt lat="38.74048845476914" lon="16.192831238960185"><ele>332.0</ele><time>2026-05-05T10:19:44Z</time></trkpt><trkpt lat="38.74049228157051" lon="16.1927428722089"><ele>332.0</ele><time>2026-05-05T10:19:49Z</time></trkpt><trkpt lat="38.74049819835929" lon="16.192657307980397"><ele>331.1428571428571</ele><time>2026-05-05T10:19:56Z</time></trkpt><trkpt lat="38.74049890400247" lon="16.19257217105282"><ele>330.28571428571433</ele><time>2026-05-05T10:20:01Z</time></trkpt><trkpt lat="38.74048726414118" lon="16.1924858220109"><ele>329.42857142857144</ele><time>2026-05-05T10:20:06Z</time></trkpt><trkpt lat="38.74046536449376" lon="16.19237414086244"><ele>328.57142857142856</ele><time>2026-05-05T10:20:12Z</time></trkpt><trkpt lat="38.74045632996794" lon="16.19229317140249"><ele>327.71428571428567</ele><time>2026-05-05T10:20:17Z</time></trkpt><trkpt lat="38.74043200553023" lon="16.192200099434107"><ele>326.8571428571429</ele><time>2026-05-05T10:20:23Z</time></trkpt><trkpt lat="38.74040691843051" lon="16.192116286593617"><ele>326.0</ele><time>2026-05-05T10:20:29Z</time></trkpt><trkpt lat="38.74036609175664" lon="16.192052281878844"><ele>327.0</ele><time>2026-05-05T10:20:34Z</time></trkpt><trkpt lat="38.74033783933892" lon="16.191979421432833"><ele>328.0</ele><time>2026-05-05T10:20:39Z</time></trkpt><trkpt lat="38.740302779531554" lon="16.191908454210793"><ele>329.0</ele><time>2026-05-05T10:20:45Z</time></trkpt><trkpt lat="38.7402597051165" lon="16.19182439321503"><ele>330.0</ele><time>2026-05-05T10:20:51Z</time></trkpt><trkpt lat="38.74021174674239" lon="16.19176088523709"><ele>331.0</ele><time>2026-05-05T10:20:56Z</time></trkpt><trkpt lat="38.74016605252771" lon="16.191686572883672"><ele>332.0</ele><time>2026-05-05T10:21:02Z</time></trkpt><trkpt lat="38.74012882314372" lon="16.1916070845766"><ele>333.0</ele><time>2026-05-05T10:21:08Z</time></trkpt><trkpt lat="38.74010885980885" lon="16.19152271634312"><ele>331.42857142857144</ele><time>2026-05-05T10:21:13Z</time></trkpt><trkpt lat="38.74007975902767" lon="16.19144847671639"><ele>329.85714285714283</ele><time>2026-05-05T10:21:18Z</time></trkpt><trkpt lat="38.74004867656581" lon="16.191375689991105"><ele>328.2857142857143</ele><time>2026-05-05T10:21:24Z</time></trkpt><trkpt lat="38.7400331236362" lon="16.191289975649028"><ele>326.7142857142857</ele><time>2026-05-05T10:21:30Z</time></trkpt><trkpt lat="38.740015550036546" lon="16.191208162566973"><ele>325.1428571428571</ele><time>2026-05-05T10:21:35Z</time></trkpt><trkpt lat="38.739994104772826" lon="16.191127246744994"><ele>323.57142857142856</ele><time>2026-05-05T10:21:41Z</time></trkpt><trkpt lat="38.739979919161975" lon="16.19104031155001"><ele>322.0</ele><time>2026-05-05T10:21:46Z</time></trkpt><trkpt lat="38.73996191191608" lon="16.19095359631401"><ele>322.0</ele><time>2026-05-05T10:21:52Z</time></trkpt><trkpt lat="38.73993432414914" lon="16.190865455182006"><ele>322.0</ele><time>2026-05-05T10:21:58Z</time></trkpt><trkpt lat="38.739918157574394" lon="16.19077530824012"><ele>322.0</ele><time>2026-05-05T10:22:04Z</time></trkpt><trkpt lat="38.739878716061924" lon="16.190690857054935"><ele>322.0</ele><time>2026-05-05T10:22:10Z</time></trkpt><trkpt lat="38.73984944235483" lon="16.190609048305145"><ele>322.0</ele><time>2026-05-05T10:22:17Z</time></trkpt><trkpt lat="38.73981916850978" lon="16.190530906207055"><ele>322.0</ele><time>2026-05-05T10:22:22Z</time></trkpt><trkpt lat="38.73977504852199" lon="16.190467535757982"><ele>322.0</ele><time>2026-05-05T10:22:27Z</time></trkpt><trkpt lat="38.73972198357924" lon="16.190404068135777"><ele>319.57142857142856</ele><time>2026-05-05T10:22:32Z</time></trkpt><trkpt lat="38.73968093666751" lon="16.190335456582996"><ele>317.1428571428571</ele><time>2026-05-05T10:22:38Z</time></trkpt><trkpt lat="38.739625170285095" lon="16.19028115336636"><ele>314.7142857142857</ele><time>2026-05-05T10:22:43Z</time></trkpt><trkpt lat="38.7395706499116" lon="16.19023612906951"><ele>312.2857142857143</ele><time>2026-05-05T10:22:47Z</time></trkpt><trkpt lat="38.7395481290106" lon="16.190145734615186"><ele>309.85714285714283</ele><time>2026-05-05T10:22:54Z</time></trkpt><trkpt lat="38.73951736306898" lon="16.190066990428928"><ele>307.42857142857144</ele><time>2026-05-05T10:23:01Z</time></trkpt><trkpt lat="38.739488702314866" lon="16.189992412575215"><ele>305.0</ele><time>2026-05-05T10:23:07Z</time></trkpt><trkpt lat="38.73947257282797" lon="16.189900806132254"><ele>305.0</ele><time>2026-05-05T10:23:13Z</time></trkpt><trkpt lat="38.73944019063063" lon="16.189825264000977"><ele>305.0</ele><time>2026-05-05T10:23:19Z</time></trkpt><trkpt lat="38.739399466863674" lon="16.18974420587588"><ele>305.0</ele><time>2026-05-05T10:23:25Z</time></trkpt><trkpt lat="38.739338476252115" lon="16.18969003714177"><ele>305.0</ele><time>2026-05-05T10:23:31Z</time></trkpt><trkpt lat="38.73928326812937" lon="16.189643621561583"><ele>305.0</ele><time>2026-05-05T10:23:36Z</time></trkpt><trkpt lat="38.739218634639826" lon="16.189595923581493"><ele>305.0</ele><time>2026-05-05T10:23:42Z</time></trkpt><trkpt lat="38.73917441813983" lon="16.18953194571223"><ele>305.0</ele><time>2026-05-05T10:23:48Z</time></trkpt><trkpt lat="38.739127425315445" lon="16.189464849888434"><ele>305.0</ele><time>2026-05-05T10:23:55Z</time></trkpt><trkpt lat="38.739088039348765" lon="16.189380426236884"><ele>305.0</ele><time>2026-05-05T10:24:02Z</time></trkpt><trkpt lat="38.73904567696795" lon="16.189308753135332"><ele>305.0</ele><time>2026-05-05T10:24:09Z</time></trkpt><trkpt lat="38.738983296628895" lon="16.189265449646037"><ele>305.0</ele><time>2026-05-05T10:24:14Z</time></trkpt><trkpt lat="38.738933289607914" lon="16.189204260361368"><ele>305.0</ele><time>2026-05-05T10:24:19Z</time></trkpt><trkpt lat="38.738876303546135" lon="16.18914751374557"><ele>305.0</ele><time>2026-05-05T10:24:24Z</time></trkpt><trkpt lat="38.738829031396946" lon="16.189076721547174"><ele>305.0</ele><time>2026-05-05T10:24:29Z</time></trkpt><trkpt lat="38.73879077676354" lon="16.189004492035345"><ele>305.14285714285717</ele><time>2026-05-05T10:24:35Z</time></trkpt><trkpt lat="38.73875415745813" lon="16.188932426615516"><ele>305.2857142857143</ele><time>2026-05-05T10:24:41Z</time></trkpt><trkpt lat="38.738711022707086" lon="16.18887174717968"><ele>305.42857142857144</ele><time>2026-05-05T10:24:45Z</time></trkpt><trkpt lat="38.73867093420795" lon="16.18880350165082"><ele>305.57142857142856</ele><time>2026-05-05T10:24:51Z</time></trkpt><trkpt lat="38.738630727221754" lon="16.188725648851324"><ele>305.7142857142857</ele><time>2026-05-05T10:24:57Z</time></trkpt><trkpt lat="38.738605606729756" lon="16.188648797586943"><ele>305.85714285714283</ele><time>2026-05-05T10:25:03Z</time></trkpt><trkpt lat="38.738561459042245" lon="16.188565307073986"><ele>306.0</ele><time>2026-05-05T10:25:09Z</time></trkpt><trkpt lat="38.73853692162452" lon="16.188478392419462"><ele>306.0</ele><time>2026-05-05T10:25:15Z</time></trkpt><trkpt lat="38.73849580341368" lon="16.188399949671446"><ele>306.0</ele><time>2026-05-05T10:25:20Z</time></trkpt><trkpt lat="38.738441249092624" lon="16.188349600945365"><ele>306.0</ele><time>2026-05-05T10:25:24Z</time></trkpt><trkpt lat="38.73839563241873" lon="16.18828065333645"><ele>306.0</ele><time>2026-05-05T10:25:30Z</time></trkpt><trkpt lat="38.73837629830459" lon="16.188201755349247"><ele>306.0</ele><time>2026-05-05T10:25:35Z</time></trkpt><trkpt lat="38.738347658695425" lon="16.18811350947954"><ele>306.0</ele><time>2026-05-05T10:25:42Z</time></trkpt><trkpt lat="38.738335544387645" lon="16.188020218936924"><ele>306.0</ele><time>2026-05-05T10:25:48Z</time></trkpt><trkpt lat="38.73830510089791" lon="16.187946377581987"><ele>304.57142857142856</ele><time>2026-05-05T10:25:53Z</time></trkpt><trkpt lat="38.7382720821868" lon="16.187872792604402"><ele>303.14285714285717</ele><time>2026-05-05T10:25:59Z</time></trkpt><trkpt lat="38.73822796499545" lon="16.187811589088643"><ele>301.7142857142857</ele><time>2026-05-05T10:26:03Z</time></trkpt><trkpt lat="38.73820463279204" lon="16.187733968641002"><ele>300.2857142857143</ele><time>2026-05-05T10:26:08Z</time></trkpt><trkpt lat="38.738161654314595" lon="16.187657424424636"><ele>298.85714285714283</ele><time>2026-05-05T10:26:14Z</time></trkpt><trkpt lat="38.738129030141096" lon="16.187577054640407"><ele>297.42857142857144</ele><time>2026-05-05T10:26:20Z</time></trkpt><trkpt lat="38.73808941068385" lon="16.1874973901847"><ele>296.0</ele><time>2026-05-05T10:26:26Z</time></trkpt><trkpt lat="38.73806523107595" lon="16.187419968694723"><ele>296.0</ele><time>2026-05-05T10:26:32Z</time></trkpt><trkpt lat="38.738036404280415" lon="16.18734787213167"><ele>296.0</ele><time>2026-05-05T10:26:38Z</time></trkpt><trkpt lat="38.738004211461465" lon="16.187274595206237"><ele>296.0</ele><time>2026-05-05T10:26:44Z</time></trkpt><trkpt lat="38.7379766912714" lon="16.187181571076565"><ele>296.0</ele><time>2026-05-05T10:26:51Z</time></trkpt><trkpt lat="38.73794436200698" lon="16.18709324244938"><ele>296.0</ele><time>2026-05-05T10:26:57Z</time></trkpt><trkpt lat="38.73792609734784" lon="16.187015966837755"><ele>296.0</ele><time>2026-05-05T10:27:03Z</time></trkpt><trkpt lat="38.7379101821434" lon="16.186928727482407"><ele>296.0</ele><time>2026-05-05T10:27:08Z</time></trkpt><trkpt lat="38.73788396747016" lon="16.186847075749466"><ele>293.2857142857143</ele><time>2026-05-05T10:27:14Z</time></trkpt><trkpt lat="38.73788389408445" lon="16.18676634291841"><ele>290.57142857142856</ele><time>2026-05-05T10:27:19Z</time></trkpt><trkpt lat="38.73783666918653" lon="16.186700514544842"><ele>287.85714285714283</ele><time>2026-05-05T10:27:23Z</time></trkpt><trkpt lat="38.737805060039506" lon="16.186626265002154"><ele>285.1428571428571</ele><time>2026-05-05T10:27:28Z</time></trkpt><trkpt lat="38.737774844468035" lon="16.18655140185905"><ele>282.4285714285714</ele><time>2026-05-05T10:27:33Z</time></trkpt><trkpt lat="38.737740680159035" lon="16.186478622936658"><ele>279.7142857142857</ele><time>2026-05-05T10:27:38Z</time></trkpt><trkpt lat="38.73773155227784" lon="16.18639712367176"><ele>277.0</ele><time>2026-05-05T10:27:43Z</time></trkpt><trkpt lat="38.7377627491963" lon="16.186313198055018"><ele>273.85714285714283</ele><time>2026-05-05T10:27:49Z</time></trkpt><trkpt lat="38.737839631889656" lon="16.18629561796436"><ele>270.71428571428567</ele><time>2026-05-05T10:27:56Z</time></trkpt><trkpt lat="38.73790669039664" lon="16.18632652600534"><ele>267.57142857142856</ele><time>2026-05-05T10:28:02Z</time></trkpt><trkpt lat="38.73796876579063" lon="16.18636686120752"><ele>264.42857142857144</ele><time>2026-05-05T10:28:08Z</time></trkpt><trkpt lat="38.73801930778119" lon="16.186416483040208"><ele>261.28571428571433</ele><time>2026-05-05T10:28:14Z</time></trkpt><trkpt lat="38.73808217847246" lon="16.186438566009404"><ele>258.14285714285717</ele><time>2026-05-05T10:28:20Z</time></trkpt><trkpt lat="38.7381466651497" lon="16.186474138653292"><ele>255.0</ele><time>2026-05-05T10:28:27Z</time></trkpt><trkpt lat="38.73821295453817" lon="16.186508348340922"><ele>253.85714285714286</ele><time>2026-05-05T10:28:34Z</time></trkpt><trkpt lat="38.7382726094184" lon="16.1865368919234"><ele>252.71428571428572</ele><time>2026-05-05T10:28:40Z</time></trkpt><trkpt lat="38.73833056833073" lon="16.186590242655186"><ele>251.57142857142858</ele><time>2026-05-05T10:28:47Z</time></trkpt><trkpt lat="38.738395378275406" lon="16.186618414069432"><ele>250.42857142857144</ele><time>2026-05-05T10:28:54Z</time></trkpt><trkpt lat="38.738455821796755" lon="16.186646596440767"><ele>249.28571428571428</ele><time>2026-05-05T10:29:01Z</time></trkpt><trkpt lat="38.738503404473356" lon="16.186703580802387"><ele>248.14285714285717</ele><time>2026-05-05T10:29:08Z</time></trkpt><trkpt lat="38.738561230807925" lon="16.186736597980392"><ele>247.0</ele><time>2026-05-05T10:29:15Z</time></trkpt><trkpt lat="38.73862613117107" lon="16.186771789967526"><ele>247.0</ele><time>2026-05-05T10:29:23Z</time></trkpt><trkpt lat="38.7386890137992" lon="16.186816642296975"><ele>247.0</ele><time>2026-05-05T10:29:29Z</time></trkpt><trkpt lat="38.73875170446058" lon="16.18686680996813"><ele>247.0</ele><time>2026-05-05T10:29:37Z</time></trkpt><trkpt lat="38.738804903424644" lon="16.186915306240664"><ele>247.0</ele><time>2026-05-05T10:29:41Z</time></trkpt><trkpt lat="38.73885013653825" lon="16.186987078629457"><ele>247.0</ele><time>2026-05-05T10:29:49Z</time></trkpt><trkpt lat="38.73893561391457" lon="16.187022547825997"><ele>247.0</ele><time>2026-05-05T10:29:55Z</time></trkpt><trkpt lat="38.739000326065664" lon="16.187006267280534"><ele>247.0</ele><time>2026-05-05T10:30:03Z</time></trkpt><trkpt lat="38.738995498780554" lon="16.186923955280825"><ele>247.0</ele><time>2026-05-05T10:30:07Z</time></trkpt><trkpt lat="38.73896747975289" lon="16.186838970872156"><ele>247.0</ele><time>2026-05-05T10:30:12Z</time></trkpt><trkpt lat="38.73892540799498" lon="16.186767201514957"><ele>247.0</ele><time>2026-05-05T10:30:18Z</time></trkpt><trkpt lat="38.73888922455536" lon="16.18669784600264"><ele>247.0</ele><time>2026-05-05T10:30:23Z</time></trkpt><trkpt lat="38.738858898799904" lon="16.18661268327222"><ele>247.0</ele><time>2026-05-05T10:30:30Z</time></trkpt><trkpt lat="38.73884173469939" lon="16.18652775777979"><ele>247.0</ele><time>2026-05-05T10:30:37Z</time></trkpt><trkpt lat="38.73883814976174" lon="16.186444792388127"><ele>247.0</ele><time>2026-05-05T10:30:42Z</time></trkpt><trkpt lat="38.73882635383822" lon="16.18635972431452"><ele>243.57142857142858</ele><time>2026-05-05T10:30:49Z</time></trkpt><trkpt lat="38.738799768906794" lon="16.18628364162118"><ele>240.14285714285714</ele><time>2026-05-05T10:30:54Z</time></trkpt><trkpt lat="38.7387665370593" lon="16.186200375117313"><ele>236.71428571428572</ele><time>2026-05-05T10:31:01Z</time></trkpt><trkpt lat="38.73874574863635" lon="16.186114344477282"><ele>233.28571428571428</ele><time>2026-05-05T10:31:07Z</time></trkpt><trkpt lat="38.73873901665445" lon="16.186030450332066"><ele>229.85714285714283</ele><time>2026-05-05T10:31:14Z</time></trkpt><trkpt lat="38.7387097579734" lon="16.185941164396294"><ele>226.42857142857142</ele><time>2026-05-05T10:31:20Z</time></trkpt><trkpt lat="38.738679923944524" lon="16.18586212301552"><ele>223.0</ele><time>2026-05-05T10:31:27Z</time></trkpt><trkpt lat="38.73867238135111" lon="16.185778872543036"><ele>223.0</ele><time>2026-05-05T10:31:34Z</time></trkpt><trkpt lat="38.7386467490751" lon="16.18569804073613"><ele>223.0</ele><time>2026-05-05T10:31:40Z</time></trkpt><trkpt lat="38.73861311807901" lon="16.18561302927967"><ele>223.0</ele><time>2026-05-05T10:31:47Z</time></trkpt><trkpt lat="38.73859766928727" lon="16.185534036451003"><ele>223.0</ele><time>2026-05-05T10:31:53Z</time></trkpt><trkpt lat="38.73858086779409" lon="16.185449803888414"><ele>223.0</ele><time>2026-05-05T10:32:01Z</time></trkpt><trkpt lat="38.73855092632423" lon="16.185373330558974"><ele>223.0</ele><time>2026-05-05T10:32:07Z</time></trkpt><trkpt lat="38.73851723451695" lon="16.185298990472305"><ele>223.0</ele><time>2026-05-05T10:32:12Z</time></trkpt><trkpt lat="38.73848282555358" lon="16.185224002145613"><ele>224.28571428571428</ele><time>2026-05-05T10:32:18Z</time></trkpt><trkpt lat="38.738458354054686" lon="16.185139558851134"><ele>225.57142857142856</ele><time>2026-05-05T10:32:24Z</time></trkpt><trkpt lat="38.73842952131344" lon="16.185058914665426"><ele>226.8571428571429</ele><time>2026-05-05T10:32:31Z</time></trkpt><trkpt lat="38.73839439732568" lon="16.184977592526746"><ele>228.14285714285717</ele><time>2026-05-05T10:32:37Z</time></trkpt><trkpt lat="38.7383500869482" lon="16.184908577936355"><ele>229.42857142857144</ele><time>2026-05-05T10:32:42Z</time></trkpt><trkpt lat="38.73831512363534" lon="16.18483155907126"><ele>230.71428571428575</ele><time>2026-05-05T10:32:48Z</time></trkpt><trkpt lat="38.738270597525464" lon="16.184758425989937"><ele>232.00000000000003</ele><time>2026-05-05T10:32:53Z</time></trkpt><trkpt lat="38.738225623492184" lon="16.184699692803566"><ele>229.14285714285717</ele><time>2026-05-05T10:32:58Z</time></trkpt><trkpt lat="38.738154852141925" lon="16.18466211585381"><ele>226.28571428571428</ele><time>2026-05-05T10:33:03Z</time></trkpt><trkpt lat="38.73809346741945" lon="16.18462548169516"><ele>223.42857142857144</ele><time>2026-05-05T10:33:07Z</time></trkpt><trkpt lat="38.73803194660286" lon="16.18459909166767"><ele>220.57142857142858</ele><time>2026-05-05T10:33:12Z</time></trkpt><trkpt lat="38.73796371682322" lon="16.184550480892213"><ele>217.71428571428572</ele><time>2026-05-05T10:33:18Z</time></trkpt><trkpt lat="38.73789975290843" lon="16.184525825769114"><ele>214.85714285714286</ele><time>2026-05-05T10:33:23Z</time></trkpt><trkpt lat="38.73782681108263" lon="16.184503885356033"><ele>212.0</ele><time>2026-05-05T10:33:29Z</time></trkpt><trkpt lat="38.73776390353665" lon="16.184486353691035"><ele>214.14285714285717</ele><time>2026-05-05T10:33:33Z</time></trkpt><trkpt lat="38.737692247825834" lon="16.184466677760792"><ele>216.28571428571428</ele><time>2026-05-05T10:33:39Z</time></trkpt><trkpt lat="38.73762688056216" lon="16.18447245438596"><ele>218.42857142857144</ele><time>2026-05-05T10:33:44Z</time></trkpt><trkpt lat="38.73756289689217" lon="16.184459965274158"><ele>220.57142857142858</ele><time>2026-05-05T10:33:50Z</time></trkpt><trkpt lat="38.73749945018903" lon="16.184426619432422"><ele>222.71428571428572</ele><time>2026-05-05T10:33:55Z</time></trkpt><trkpt lat="38.73744862089156" lon="16.184358804952147"><ele>224.85714285714286</ele><time>2026-05-05T10:34:02Z</time></trkpt><trkpt lat="38.73739070468787" lon="16.184303441405348"><ele>227.0</ele><time>2026-05-05T10:34:07Z</time></trkpt><trkpt lat="38.737332910057454" lon="16.184261120445694"><ele>227.0</ele><time>2026-05-05T10:34:12Z</time></trkpt><trkpt lat="38.73726973928608" lon="16.184212021456748"><ele>227.00000000000003</ele><time>2026-05-05T10:34:17Z</time></trkpt><trkpt lat="38.73721158457475" lon="16.18415509675493"><ele>227.0</ele><time>2026-05-05T10:34:23Z</time></trkpt><trkpt lat="38.737160144316" lon="16.18410373921377"><ele>227.0</ele><time>2026-05-05T10:34:28Z</time></trkpt><trkpt lat="38.73709412347078" lon="16.184066051511575"><ele>227.00000000000003</ele><time>2026-05-05T10:34:34Z</time></trkpt><trkpt lat="38.73704094028513" lon="16.184019196210468"><ele>227.0</ele><time>2026-05-05T10:34:42Z</time></trkpt><trkpt lat="38.73698511620278" lon="16.18396683281902"><ele>227.0</ele><time>2026-05-05T10:35:04Z</time></trkpt><trkpt lat="38.73694613333843" lon="16.183900873547433"><ele>227.71428571428572</ele><time>2026-05-05T10:35:10Z</time></trkpt><trkpt lat="38.73689356350781" lon="16.183831298342366"><ele>228.42857142857144</ele><time>2026-05-05T10:35:16Z</time></trkpt><trkpt lat="38.73685364774037" lon="16.183763111357408"><ele>229.14285714285717</ele><time>2026-05-05T10:35:28Z</time></trkpt><trkpt lat="38.73681125449335" lon="16.18370222656349"><ele>229.8571428571429</ele><time>2026-05-05T10:35:35Z</time></trkpt><trkpt lat="38.736783972101684" lon="16.183615071320148"><ele>230.57142857142858</ele><time>2026-05-05T10:35:42Z</time></trkpt><trkpt lat="38.73673772900143" lon="16.18354587683649"><ele>231.28571428571433</ele><time>2026-05-05T10:35:48Z</time></trkpt><trkpt lat="38.73668301787285" lon="16.18348282578137"><ele>232.00000000000003</ele><time>2026-05-05T10:35:54Z</time></trkpt><trkpt lat="38.736633019230176" lon="16.18341966737515"><ele>232.00000000000003</ele><time>2026-05-05T10:36:01Z</time></trkpt><trkpt lat="38.73658625472606" lon="16.183354694468964"><ele>232.0</ele><time>2026-05-05T10:36:06Z</time></trkpt><trkpt lat="38.73652247678563" lon="16.183299614337848"><ele>232.00000000000003</ele><time>2026-05-05T10:36:12Z</time></trkpt><trkpt lat="38.73650469540695" lon="16.18320873480687"><ele>232.00000000000003</ele><time>2026-05-05T10:36:20Z</time></trkpt><trkpt lat="38.736514111421954" lon="16.18312290168566"><ele>232.0</ele><time>2026-05-05T10:36:26Z</time></trkpt><trkpt lat="38.73653130594756" lon="16.1830447324482"><ele>232.00000000000003</ele><time>2026-05-05T10:36:36Z</time></trkpt><trkpt lat="38.736565696578104" lon="16.182961006567922"><ele>232.00000000000003</ele><time>2026-05-05T10:36:42Z</time></trkpt><trkpt lat="38.736584846663455" lon="16.182882012490623"><ele>231.00000000000003</ele><time>2026-05-05T10:36:48Z</time></trkpt><trkpt lat="38.736613125978046" lon="16.182807714414444"><ele>230.0</ele><time>2026-05-05T10:36:55Z</time></trkpt><trkpt lat="38.73663188972938" lon="16.182729365040167"><ele>229.00000000000003</ele><time>2026-05-05T10:37:02Z</time></trkpt><trkpt lat="38.73665331040217" lon="16.182640247855595"><ele>228.00000000000003</ele><time>2026-05-05T10:37:09Z</time></trkpt><trkpt lat="38.736657348793344" lon="16.182555838089446"><ele>227.0</ele><time>2026-05-05T10:37:19Z</time></trkpt><trkpt lat="38.73668135754116" lon="16.182475715220622"><ele>226.00000000000003</ele><time>2026-05-05T10:37:27Z</time></trkpt><trkpt lat="38.73669625897566" lon="16.182385385999464"><ele>225.00000000000003</ele><time>2026-05-05T10:37:33Z</time></trkpt><trkpt lat="38.736700885012084" lon="16.182299156969194"><ele>223.14285714285717</ele><time>2026-05-05T10:37:39Z</time></trkpt><trkpt lat="38.73670604383855" lon="16.182206628783273"><ele>221.28571428571428</ele><time>2026-05-05T10:37:46Z</time></trkpt><trkpt lat="38.736713507214496" lon="16.18211634866108"><ele>219.42857142857144</ele><time>2026-05-05T10:37:52Z</time></trkpt><trkpt lat="38.73669399541122" lon="16.182026184764794"><ele>217.57142857142858</ele><time>2026-05-05T10:37:58Z</time></trkpt><trkpt lat="38.73668738318736" lon="16.181930566786356"><ele>215.71428571428572</ele><time>2026-05-05T10:38:05Z</time></trkpt><trkpt lat="38.73672679423791" lon="16.18186070124341"><ele>213.85714285714286</ele><time>2026-05-05T10:38:10Z</time></trkpt><trkpt lat="38.73673861316125" lon="16.181768140021767"><ele>212.0</ele><time>2026-05-05T10:38:16Z</time></trkpt><trkpt lat="38.73673257483095" lon="16.18167886046557"><ele>212.0</ele><time>2026-05-05T10:38:22Z</time></trkpt><trkpt lat="38.73673873912654" lon="16.18159521367527"><ele>212.0</ele><time>2026-05-05T10:38:28Z</time></trkpt><trkpt lat="38.736729762646206" lon="16.181511248123304"><ele>212.0</ele><time>2026-05-05T10:38:36Z</time></trkpt><trkpt lat="38.736678199761315" lon="16.181457164662216"><ele>212.0</ele><time>2026-05-05T10:38:42Z</time></trkpt><trkpt lat="38.73663078859606" lon="16.181403546491747"><ele>212.0</ele><time>2026-05-05T10:38:49Z</time></trkpt><trkpt lat="38.73661010025733" lon="16.181322114658666"><ele>212.0</ele><time>2026-05-05T10:38:57Z</time></trkpt><trkpt lat="38.736599367106884" lon="16.181229751622627"><ele>212.0</ele><time>2026-05-05T10:39:02Z</time></trkpt><trkpt lat="38.73660058260579" lon="16.18114386172053"><ele>209.42857142857144</ele><time>2026-05-05T10:39:08Z</time></trkpt><trkpt lat="38.73656404712377" lon="16.181060326400463"><ele>206.85714285714283</ele><time>2026-05-05T10:39:14Z</time></trkpt><trkpt lat="38.73656679362115" lon="16.18096918050138"><ele>204.28571428571428</ele><time>2026-05-05T10:39:21Z</time></trkpt><trkpt lat="38.73657883177299" lon="16.180884726490863"><ele>201.71428571428572</ele><time>2026-05-05T10:39:27Z</time></trkpt><trkpt lat="38.73659770757971" lon="16.18079948556506"><ele>199.14285714285717</ele><time>2026-05-05T10:39:33Z</time></trkpt><trkpt lat="38.73664141378201" lon="16.180739056412616"><ele>196.57142857142856</ele><time>2026-05-05T10:39:39Z</time></trkpt><trkpt lat="38.7366946596148" lon="16.180796479216138"><ele>194.0</ele><time>2026-05-05T10:39:48Z</time></trkpt><trkpt lat="38.736751715012765" lon="16.18083231212887"><ele>194.0</ele><time>2026-05-05T10:39:54Z</time></trkpt><trkpt lat="38.73680817774495" lon="16.180892547735716"><ele>194.0</ele><time>2026-05-05T10:40:00Z</time></trkpt><trkpt lat="38.73685694146373" lon="16.180952151122078"><ele>194.0</ele><time>2026-05-05T10:40:05Z</time></trkpt><trkpt lat="38.73691628240761" lon="16.1810046921668"><ele>194.0</ele><time>2026-05-05T10:40:11Z</time></trkpt><trkpt lat="38.73697057257152" lon="16.18095592536455"><ele>194.0</ele><time>2026-05-05T10:40:17Z</time></trkpt><trkpt lat="38.737033755018786" lon="16.18095911745018"><ele>194.0</ele><time>2026-05-05T10:40:22Z</time></trkpt><trkpt lat="38.737111574774964" lon="16.180946554173097"><ele>194.0</ele><time>2026-05-05T10:40:27Z</time></trkpt><trkpt lat="38.73695869713936" lon="16.180843029747855"><ele>182.33333333333334</ele><time>2026-05-05T10:40:31Z</time></trkpt><trkpt lat="38.73702743479233" lon="16.18059551443647"><ele>170.66666666666669</ele><time>2026-05-05T10:40:33Z</time></trkpt><trkpt lat="38.73720754887006" lon="16.180593541725436"><ele>159.0</ele><time>2026-05-05T10:40:41Z</time></trkpt><trkpt lat="38.7371925227571" lon="16.180511724424267"><ele>159.0</ele><time>2026-05-05T10:40:46Z</time></trkpt><trkpt lat="38.73717641540564" lon="16.180429590960653"><ele>159.0</ele><time>2026-05-05T10:40:51Z</time></trkpt><trkpt lat="38.73716306842134" lon="16.180340087196072"><ele>159.0</ele><time>2026-05-05T10:40:58Z</time></trkpt><trkpt lat="38.73715444451634" lon="16.180257271001345"><ele>159.0</ele><time>2026-05-05T10:41:04Z</time></trkpt><trkpt lat="38.737150532401614" lon="16.180168047109767"><ele>159.0</ele><time>2026-05-05T10:41:10Z</time></trkpt><trkpt lat="38.73715661769825" lon="16.180081731859353"><ele>159.0</ele><time>2026-05-05T10:41:18Z</time></trkpt><trkpt lat="38.73723867607931" lon="16.180069258318014"><ele>159.0</ele><time>2026-05-05T10:41:41Z</time></trkpt><trkpt lat="38.73731163126623" lon="16.180063215018436"><ele>159.0</ele><time>2026-05-05T10:41:53Z</time></trkpt><trkpt lat="38.73738063504449" lon="16.18006804861049"><ele>159.0</ele><time>2026-05-05T10:42:06Z</time></trkpt><trkpt lat="38.73744540443388" lon="16.180044370274103"><ele>159.0</ele><time>2026-05-05T10:42:14Z</time></trkpt><trkpt lat="38.73752098454944" lon="16.179995034867428"><ele>159.0</ele><time>2026-05-05T10:42:29Z</time></trkpt><trkpt lat="38.737587663207925" lon="16.179983197768635"><ele>159.0</ele><time>2026-05-05T10:42:41Z</time></trkpt><trkpt lat="38.73764964260925" lon="16.17993704183827"><ele>159.0</ele><time>2026-05-05T10:42:49Z</time></trkpt><trkpt lat="38.737703788171856" lon="16.179888063228827"><ele>159.0</ele><time>2026-05-05T10:42:56Z</time></trkpt><trkpt lat="38.73776819112188" lon="16.179846997638567"><ele>155.28571428571428</ele><time>2026-05-05T10:43:06Z</time></trkpt><trkpt lat="38.73782395342622" lon="16.17980653836259"><ele>151.57142857142858</ele><time>2026-05-05T10:43:13Z</time></trkpt><trkpt lat="38.737888977390945" lon="16.17975319334101"><ele>147.85714285714286</ele><time>2026-05-05T10:43:21Z</time></trkpt><trkpt lat="38.737939939910355" lon="16.179703653044147"><ele>144.14285714285714</ele><time>2026-05-05T10:43:28Z</time></trkpt><trkpt lat="38.737969873084786" lon="16.179629147587953"><ele>140.42857142857144</ele><time>2026-05-05T10:43:35Z</time></trkpt><trkpt lat="38.73800108229092" lon="16.179558266540457"><ele>136.71428571428572</ele><time>2026-05-05T10:43:41Z</time></trkpt><trkpt lat="38.737984398416714" lon="16.179474606246014"><ele>133.0</ele><time>2026-05-05T10:43:47Z</time></trkpt><trkpt lat="38.73796047979906" lon="16.179391367425946"><ele>133.0</ele><time>2026-05-05T10:43:53Z</time></trkpt><trkpt lat="38.73793819821687" lon="16.17930640882544"><ele>133.0</ele><time>2026-05-05T10:43:58Z</time></trkpt><trkpt lat="38.73792046048437" lon="16.179224209825346"><ele>133.0</ele><time>2026-05-05T10:44:04Z</time></trkpt><trkpt lat="38.7378951888043" lon="16.179131183553643"><ele>133.0</ele><time>2026-05-05T10:44:10Z</time></trkpt><trkpt lat="38.73786942855814" lon="16.17904734419835"><ele>133.0</ele><time>2026-05-05T10:44:15Z</time></trkpt><trkpt lat="38.73784754696798" lon="16.178957987054073"><ele>133.0</ele><time>2026-05-05T10:44:21Z</time></trkpt><trkpt lat="38.737805508577345" lon="16.17888914260113"><ele>133.0</ele><time>2026-05-05T10:44:26Z</time></trkpt><trkpt lat="38.737778003946104" lon="16.178805351991397"><ele>132.42857142857142</ele><time>2026-05-05T10:44:32Z</time></trkpt><trkpt lat="38.737752802224406" lon="16.1787261478418"><ele>131.85714285714286</ele><time>2026-05-05T10:44:37Z</time></trkpt><trkpt lat="38.737719620814204" lon="16.17864224178015"><ele>131.28571428571428</ele><time>2026-05-05T10:44:49Z</time></trkpt><trkpt lat="38.73768388484867" lon="16.178535583060146"><ele>130.71428571428572</ele><time>2026-05-05T10:44:55Z</time></trkpt><trkpt lat="38.73765787532619" lon="16.178455471772757"><ele>130.14285714285714</ele><time>2026-05-05T10:45:01Z</time></trkpt><trkpt lat="38.73761422442407" lon="16.178367389881977"><ele>129.57142857142856</ele><time>2026-05-05T10:45:07Z</time></trkpt><trkpt lat="38.73759976915188" lon="16.178288759410115"><ele>129.0</ele><time>2026-05-05T10:45:12Z</time></trkpt><trkpt lat="38.73757198307117" lon="16.178204259172198"><ele>130.42857142857142</ele><time>2026-05-05T10:45:17Z</time></trkpt><trkpt lat="38.73754898834313" lon="16.178123775207485"><ele>131.85714285714286</ele><time>2026-05-05T10:45:23Z</time></trkpt><trkpt lat="38.737518436598364" lon="16.1780509634275"><ele>133.28571428571428</ele><time>2026-05-05T10:45:28Z</time></trkpt><trkpt lat="38.737498896826175" lon="16.177971286842123"><ele>134.71428571428572</ele><time>2026-05-05T10:45:33Z</time></trkpt><trkpt lat="38.73746948548361" lon="16.177884820627515"><ele>136.14285714285714</ele><time>2026-05-05T10:45:38Z</time></trkpt><trkpt lat="38.73744279458481" lon="16.177804711074547"><ele>137.57142857142856</ele><time>2026-05-05T10:45:44Z</time></trkpt><trkpt lat="38.73740938269853" lon="16.17772740939865"><ele>139.0</ele><time>2026-05-05T10:45:50Z</time></trkpt><trkpt lat="38.73738126313959" lon="16.177650579348892"><ele>139.0</ele><time>2026-05-05T10:45:55Z</time></trkpt><trkpt lat="38.73735090778819" lon="16.177562420488943"><ele>139.0</ele><time>2026-05-05T10:46:02Z</time></trkpt><trkpt lat="38.73730926606477" lon="16.177484906156966"><ele>139.0</ele><time>2026-05-05T10:46:07Z</time></trkpt><trkpt lat="38.73726893693936" lon="16.17741378126765"><ele>139.0</ele><time>2026-05-05T10:46:13Z</time></trkpt><trkpt lat="38.737235548339065" lon="16.177333105546243"><ele>139.0</ele><time>2026-05-05T10:46:18Z</time></trkpt><trkpt lat="38.73720439032196" lon="16.177257268362116"><ele>139.0</ele><time>2026-05-05T10:46:24Z</time></trkpt><trkpt lat="38.73716785047642" lon="16.177189742827554"><ele>139.0</ele><time>2026-05-05T10:46:29Z</time></trkpt><trkpt lat="38.73712727247265" lon="16.177118337064442"><ele>139.42857142857142</ele><time>2026-05-05T10:46:35Z</time></trkpt><trkpt lat="38.73708605035001" lon="16.177053414714056"><ele>139.85714285714286</ele><time>2026-05-05T10:46:40Z</time></trkpt><trkpt lat="38.73704656524189" lon="16.176987700479813"><ele>140.28571428571428</ele><time>2026-05-05T10:46:46Z</time></trkpt><trkpt lat="38.7370059705662" lon="16.176906039871533"><ele>140.71428571428572</ele><time>2026-05-05T10:46:52Z</time></trkpt><trkpt lat="38.73696484580191" lon="16.17684208566391"><ele>141.14285714285714</ele><time>2026-05-05T10:46:57Z</time></trkpt><trkpt lat="38.73692243155934" lon="16.176769229306"><ele>141.57142857142856</ele><time>2026-05-05T10:47:02Z</time></trkpt><trkpt lat="38.73687184661376" lon="16.176708135693858"><ele>142.0</ele><time>2026-05-05T10:47:08Z</time></trkpt><trkpt lat="38.736832053159226" lon="16.176645138066792"><ele>142.0</ele><time>2026-05-05T10:47:14Z</time></trkpt><trkpt lat="38.73679167736649" lon="16.176578496392008"><ele>142.0</ele><time>2026-05-05T10:47:20Z</time></trkpt><trkpt lat="38.73673780342846" lon="16.176521522133772"><ele>142.0</ele><time>2026-05-05T10:47:27Z</time></trkpt><trkpt lat="38.736697489016" lon="16.176439440602547"><ele>142.0</ele><time>2026-05-05T10:47:33Z</time></trkpt><trkpt lat="38.73666767540486" lon="16.176366394190115"><ele>142.0</ele><time>2026-05-05T10:47:38Z</time></trkpt><trkpt lat="38.73660863093211" lon="16.17630683325137"><ele>142.0</ele><time>2026-05-05T10:47:44Z</time></trkpt><trkpt lat="38.73658372697362" lon="16.17622569764992"><ele>142.0</ele><time>2026-05-05T10:47:49Z</time></trkpt><trkpt lat="38.73656300610976" lon="16.176133896994894"><ele>141.71428571428572</ele><time>2026-05-05T10:47:54Z</time></trkpt><trkpt lat="38.736529575707664" lon="16.176054795073018"><ele>141.42857142857142</ele><time>2026-05-05T10:48:00Z</time></trkpt><trkpt lat="38.7365164496406" lon="16.17596587520973"><ele>141.14285714285714</ele><time>2026-05-05T10:48:06Z</time></trkpt><trkpt lat="38.7365015495076" lon="16.1758754267906"><ele>140.85714285714286</ele><time>2026-05-05T10:48:11Z</time></trkpt><trkpt lat="38.73651410471553" lon="16.175781748906385"><ele>140.57142857142856</ele><time>2026-05-05T10:48:18Z</time></trkpt><trkpt lat="38.73650745205145" lon="16.175695303575612"><ele>140.28571428571428</ele><time>2026-05-05T10:48:23Z</time></trkpt><trkpt lat="38.7364957631815" lon="16.175615753283797"><ele>140.0</ele><time>2026-05-05T10:48:28Z</time></trkpt><trkpt lat="38.73648495654635" lon="16.175528529190853"><ele>139.71428571428572</ele><time>2026-05-05T10:48:33Z</time></trkpt><trkpt lat="38.73645201940726" lon="16.175452619878918"><ele>139.42857142857144</ele><time>2026-05-05T10:48:38Z</time></trkpt><trkpt lat="38.73642768909188" lon="16.175368690630712"><ele>139.14285714285714</ele><time>2026-05-05T10:48:43Z</time></trkpt><trkpt lat="38.736392198129245" lon="16.17528644427905"><ele>138.85714285714286</ele><time>2026-05-05T10:48:49Z</time></trkpt><trkpt lat="38.736359167405496" lon="16.17521294227484"><ele>138.57142857142858</ele><time>2026-05-05T10:48:54Z</time></trkpt><trkpt lat="38.73631618879535" lon="16.17514694447019"><ele>138.28571428571428</ele><time>2026-05-05T10:48:59Z</time></trkpt><trkpt lat="38.736286026240656" lon="16.17506345401643"><ele>138.0</ele><time>2026-05-05T10:49:05Z</time></trkpt><trkpt lat="38.736254879183875" lon="16.17497212337159"><ele>138.0</ele><time>2026-05-05T10:49:10Z</time></trkpt><trkpt lat="38.736212448413646" lon="16.17490094435942"><ele>138.0</ele><time>2026-05-05T10:49:16Z</time></trkpt><trkpt lat="38.73619580636447" lon="16.17481180841166"><ele>138.0</ele><time>2026-05-05T10:49:22Z</time></trkpt><trkpt lat="38.73617935920879" lon="16.174721174744136"><ele>138.0</ele><time>2026-05-05T10:49:28Z</time></trkpt><trkpt lat="38.736148446573885" lon="16.17463761475485"><ele>138.0</ele><time>2026-05-05T10:49:33Z</time></trkpt><trkpt lat="38.73611091800195" lon="16.174572218917458"><ele>138.0</ele><time>2026-05-05T10:49:39Z</time></trkpt><trkpt lat="38.736097545537355" lon="16.174485700169484"><ele>138.0</ele><time>2026-05-05T10:49:45Z</time></trkpt><trkpt lat="38.73607010610615" lon="16.17440871227774"><ele>138.85714285714286</ele><time>2026-05-05T10:49:51Z</time></trkpt><trkpt lat="38.73605327893548" lon="16.17432439063626"><ele>139.71428571428572</ele><time>2026-05-05T10:49:56Z</time></trkpt><trkpt lat="38.73604035062271" lon="16.17423400021049"><ele>140.57142857142858</ele><time>2026-05-05T10:50:02Z</time></trkpt><trkpt lat="38.73601010817087" lon="16.174153721051386"><ele>141.42857142857144</ele><time>2026-05-05T10:50:07Z</time></trkpt><trkpt lat="38.735988173552194" lon="16.174066062598225"><ele>142.28571428571428</ele><time>2026-05-05T10:50:12Z</time></trkpt><trkpt lat="38.73595899779393" lon="16.173983299699096"><ele>143.14285714285717</ele><time>2026-05-05T10:50:18Z</time></trkpt><trkpt lat="38.73593207709419" lon="16.173900763163445"><ele>144.0</ele><time>2026-05-05T10:50:24Z</time></trkpt><trkpt lat="38.73590974292514" lon="16.173806005832304"><ele>144.00000000000003</ele><time>2026-05-05T10:50:30Z</time></trkpt><trkpt lat="38.73589449874723" lon="16.173723647060395"><ele>144.0</ele><time>2026-05-05T10:50:36Z</time></trkpt><trkpt lat="38.73587146322685" lon="16.173639756651234"><ele>144.0</ele><time>2026-05-05T10:50:41Z</time></trkpt><trkpt lat="38.735857731551" lon="16.173549146735567"><ele>144.0</ele><time>2026-05-05T10:50:47Z</time></trkpt><trkpt lat="38.73582776202249" lon="16.173458615726943"><ele>144.0</ele><time>2026-05-05T10:50:53Z</time></trkpt><trkpt lat="38.73579454842621" lon="16.173375571700504"><ele>144.00000000000003</ele><time>2026-05-05T10:50:58Z</time></trkpt><trkpt lat="38.73576833452353" lon="16.17329597112872"><ele>144.0</ele><time>2026-05-05T10:51:02Z</time></trkpt><trkpt lat="38.73572579956714" lon="16.17321711375362"><ele>143.71428571428572</ele><time>2026-05-05T10:51:09Z</time></trkpt><trkpt lat="38.73574892255298" lon="16.173139929260422"><ele>143.42857142857144</ele><time>2026-05-05T10:51:14Z</time></trkpt><trkpt lat="38.73573204347397" lon="16.17306178078606"><ele>143.14285714285714</ele><time>2026-05-05T10:51:19Z</time></trkpt><trkpt lat="38.735718507575754" lon="16.17297551620188"><ele>142.85714285714286</ele><time>2026-05-05T10:51:25Z</time></trkpt><trkpt lat="38.735722749896446" lon="16.17289111968827"><ele>142.57142857142856</ele><time>2026-05-05T10:51:31Z</time></trkpt><trkpt lat="38.73569940898855" lon="16.172808396574492"><ele>142.28571428571428</ele><time>2026-05-05T10:51:37Z</time></trkpt><trkpt lat="38.73566563921936" lon="16.172727719442516"><ele>142.0</ele><time>2026-05-05T10:51:43Z</time></trkpt><trkpt lat="38.73564584866187" lon="16.17263608042483"><ele>142.0</ele><time>2026-05-05T10:51:50Z</time></trkpt><trkpt lat="38.73562950519044" lon="16.172554602161217"><ele>142.0</ele><time>2026-05-05T10:51:55Z</time></trkpt><trkpt lat="38.73561794255554" lon="16.172462759996474"><ele>142.0</ele><time>2026-05-05T10:52:00Z</time></trkpt><trkpt lat="38.73560087037771" lon="16.17237658805632"><ele>142.0</ele><time>2026-05-05T10:52:05Z</time></trkpt><trkpt lat="38.73555467553682" lon="16.17229992378678"><ele>142.0</ele><time>2026-05-05T10:52:09Z</time></trkpt><trkpt lat="38.73550904944398" lon="16.172229270240436"><ele>142.0</ele><time>2026-05-05T10:52:15Z</time></trkpt><trkpt lat="38.735476278790564" lon="16.172150697716138"><ele>142.0</ele><time>2026-05-05T10:52:21Z</time></trkpt><trkpt lat="38.735448073029715" lon="16.172061821721975"><ele>141.28571428571428</ele><time>2026-05-05T10:52:28Z</time></trkpt><trkpt lat="38.73543450620048" lon="16.17197134627649"><ele>140.57142857142856</ele><time>2026-05-05T10:52:34Z</time></trkpt><trkpt lat="38.73541483705407" lon="16.171890381626152"><ele>139.85714285714286</ele><time>2026-05-05T10:52:39Z</time></trkpt><trkpt lat="38.73539856279323" lon="16.171798582768044"><ele>139.14285714285714</ele><time>2026-05-05T10:52:44Z</time></trkpt><trkpt lat="38.73538680736663" lon="16.171710106082138"><ele>138.42857142857144</ele><time>2026-05-05T10:52:49Z</time></trkpt><trkpt lat="38.735380064453054" lon="16.171625396148656"><ele>137.71428571428572</ele><time>2026-05-05T10:52:55Z</time></trkpt><trkpt lat="38.73537492613245" lon="16.171527048834463"><ele>137.0</ele><time>2026-05-05T10:53:01Z</time></trkpt><trkpt lat="38.735374354643305" lon="16.17144351852701"><ele>136.00000000000003</ele><time>2026-05-05T10:53:06Z</time></trkpt><trkpt lat="38.73539477638903" lon="16.17135072081145"><ele>135.0</ele><time>2026-05-05T10:53:12Z</time></trkpt><trkpt lat="38.73540351373525" lon="16.171267084247827"><ele>134.0</ele><time>2026-05-05T10:53:17Z</time></trkpt><trkpt lat="38.735423730728385" lon="16.17118724529971"><ele>133.0</ele><time>2026-05-05T10:53:22Z</time></trkpt><trkpt lat="38.735450819182496" lon="16.17110519836271"><ele>132.0</ele><time>2026-05-05T10:53:29Z</time></trkpt><trkpt lat="38.735462205458894" lon="16.17100870245488"><ele>131.00000000000003</ele><time>2026-05-05T10:53:35Z</time></trkpt><trkpt lat="38.735473226031736" lon="16.170923304322145"><ele>130.0</ele><time>2026-05-05T10:53:40Z</time></trkpt><trkpt lat="38.73547532766192" lon="16.17082723749396"><ele>130.00000000000003</ele><time>2026-05-05T10:53:46Z</time></trkpt><trkpt lat="38.735471957448006" lon="16.170734853197114"><ele>130.0</ele><time>2026-05-05T10:53:52Z</time></trkpt><trkpt lat="38.735460894264335" lon="16.1706362152018"><ele>130.0</ele><time>2026-05-05T10:53:58Z</time></trkpt><trkpt lat="38.73544967049703" lon="16.170555185599547"><ele>130.0</ele><time>2026-05-05T10:54:04Z</time></trkpt><trkpt lat="38.73543684839065" lon="16.17045793609398"><ele>130.0</ele><time>2026-05-05T10:54:10Z</time></trkpt><trkpt lat="38.73540700247793" lon="16.17037487835484"><ele>130.00000000000003</ele><time>2026-05-05T10:54:15Z</time></trkpt><trkpt lat="38.735373849423915" lon="16.17028945265981"><ele>130.0</ele><time>2026-05-05T10:54:21Z</time></trkpt><trkpt lat="38.735341615000515" lon="16.170217982980358"><ele>130.2857142857143</ele><time>2026-05-05T10:54:27Z</time></trkpt><trkpt lat="38.73529791334128" lon="16.170150098774936"><ele>130.57142857142858</ele><time>2026-05-05T10:54:32Z</time></trkpt><trkpt lat="38.73525606653843" lon="16.170080984076204"><ele>130.85714285714286</ele><time>2026-05-05T10:54:38Z</time></trkpt><trkpt lat="38.73520540523366" lon="16.170012181694727"><ele>131.14285714285717</ele><time>2026-05-05T10:54:44Z</time></trkpt><trkpt lat="38.73515245210139" lon="16.16994477313461"><ele>131.42857142857144</ele><time>2026-05-05T10:54:50Z</time></trkpt><trkpt lat="38.73510124684847" lon="16.169895898898066"><ele>131.71428571428572</ele><time>2026-05-05T10:54:55Z</time></trkpt><trkpt lat="38.735050496914255" lon="16.169836818149307"><ele>132.0</ele><time>2026-05-05T10:55:02Z</time></trkpt><trkpt lat="38.73499610328559" lon="16.16978877418891"><ele>132.0</ele><time>2026-05-05T10:55:08Z</time></trkpt><trkpt lat="38.73493580832555" lon="16.169740370200326"><ele>132.0</ele><time>2026-05-05T10:55:13Z</time></trkpt><trkpt lat="38.734873850959936" lon="16.169695801315527"><ele>132.0</ele><time>2026-05-05T10:55:19Z</time></trkpt><trkpt lat="38.73482627925184" lon="16.169640788429337"><ele>132.0</ele><time>2026-05-05T10:55:24Z</time></trkpt><trkpt lat="38.7347645441835" lon="16.169604619007586"><ele>132.0</ele><time>2026-05-05T10:55:29Z</time></trkpt><trkpt lat="38.73471038294021" lon="16.169557220026118"><ele>132.0</ele><time>2026-05-05T10:55:34Z</time></trkpt><trkpt lat="38.73465517031755" lon="16.169498456676486"><ele>132.0</ele><time>2026-05-05T10:55:40Z</time></trkpt><trkpt lat="38.73459019209283" lon="16.169449311130364"><ele>132.0</ele><time>2026-05-05T10:55:46Z</time></trkpt><trkpt lat="38.73453390422671" lon="16.169393343331194"><ele>132.0</ele><time>2026-05-05T10:55:51Z</time></trkpt><trkpt lat="38.734481396076184" lon="16.1693318216245"><ele>132.0</ele><time>2026-05-05T10:55:58Z</time></trkpt><trkpt lat="38.73443989644449" lon="16.16925154007152"><ele>132.0</ele><time>2026-05-05T10:56:04Z</time></trkpt><trkpt lat="38.73438847289837" lon="16.169174417083035"><ele>132.0</ele><time>2026-05-05T10:56:10Z</time></trkpt><trkpt lat="38.73435228520041" lon="16.169096768032198"><ele>132.0</ele><time>2026-05-05T10:56:16Z</time></trkpt><trkpt lat="38.734315978237426" lon="16.169014863232604"><ele>132.0</ele><time>2026-05-05T10:56:23Z</time></trkpt><trkpt lat="38.73428307305412" lon="16.168942918586797"><ele>132.0</ele><time>2026-05-05T10:56:29Z</time></trkpt><trkpt lat="38.73425926087647" lon="16.168864307984425"><ele>132.0</ele><time>2026-05-05T10:56:35Z</time></trkpt><trkpt lat="38.73427921033174" lon="16.16877319786828"><ele>132.0</ele><time>2026-05-05T10:56:39Z</time></trkpt><trkpt lat="38.73426682660616" lon="16.168692014153823"><ele>132.0</ele><time>2026-05-05T10:56:44Z</time></trkpt><trkpt lat="38.73424966140264" lon="16.168611731437185"><ele>132.0</ele><time>2026-05-05T10:56:49Z</time></trkpt><trkpt lat="38.73425396118859" lon="16.16852338585514"><ele>132.0</ele><time>2026-05-05T10:56:55Z</time></trkpt><trkpt lat="38.73423216036852" lon="16.168435806573502"><ele>132.0</ele><time>2026-05-05T10:57:00Z</time></trkpt><trkpt lat="38.73419758867403" lon="16.168366109179498"><ele>132.0</ele><time>2026-05-05T10:57:06Z</time></trkpt><trkpt lat="38.7341990582437" lon="16.16826715955166"><ele>132.0</ele><time>2026-05-05T10:57:11Z</time></trkpt><trkpt lat="38.73419695758876" lon="16.168179028916974"><ele>132.0</ele><time>2026-05-05T10:57:16Z</time></trkpt><trkpt lat="38.734201383792964" lon="16.168083064650215"><ele>132.0</ele><time>2026-05-05T10:57:22Z</time></trkpt><trkpt lat="38.73420569885368" lon="16.167999164767796"><ele>132.0</ele><time>2026-05-05T10:57:27Z</time></trkpt><trkpt lat="38.734190993907944" lon="16.16790286439023"><ele>132.0</ele><time>2026-05-05T10:57:34Z</time></trkpt><trkpt lat="38.73417807170969" lon="16.167800598594752"><ele>132.0</ele><time>2026-05-05T10:57:38Z</time></trkpt><trkpt lat="38.73417045711785" lon="16.167719999795164"><ele>131.85714285714286</ele><time>2026-05-05T10:57:44Z</time></trkpt><trkpt lat="38.73415538380923" lon="16.167626491830493"><ele>131.71428571428572</ele><time>2026-05-05T10:57:51Z</time></trkpt><trkpt lat="38.73414379362161" lon="16.167540486003976"><ele>131.57142857142858</ele><time>2026-05-05T10:57:56Z</time></trkpt><trkpt lat="38.73413298075827" lon="16.167451099810496"><ele>131.42857142857144</ele><time>2026-05-05T10:58:01Z</time></trkpt><trkpt lat="38.73412828443619" lon="16.16736429464189"><ele>131.2857142857143</ele><time>2026-05-05T10:58:06Z</time></trkpt><trkpt lat="38.73412825314154" lon="16.167276848320213"><ele>131.14285714285714</ele><time>2026-05-05T10:58:11Z</time></trkpt><trkpt lat="38.73412725124787" lon="16.167188705919305"><ele>131.0</ele><time>2026-05-05T10:58:18Z</time></trkpt><trkpt lat="38.73409593428301" lon="16.167113926766188"><ele>130.28571428571428</ele><time>2026-05-05T10:58:25Z</time></trkpt><trkpt lat="38.734095960326734" lon="16.1670323311679"><ele>129.57142857142858</ele><time>2026-05-05T10:58:30Z</time></trkpt><trkpt lat="38.734101526824" lon="16.166943587142224"><ele>128.85714285714286</ele><time>2026-05-05T10:58:35Z</time></trkpt><trkpt lat="38.73410599706137" lon="16.16684606437398"><ele>128.14285714285714</ele><time>2026-05-05T10:58:42Z</time></trkpt><trkpt lat="38.734120742495286" lon="16.166764954715312"><ele>127.42857142857143</ele><time>2026-05-05T10:58:47Z</time></trkpt><trkpt lat="38.73413140399879" lon="16.166675560604784"><ele>126.71428571428572</ele><time>2026-05-05T10:58:52Z</time></trkpt><trkpt lat="38.734119915569835" lon="16.166585815555777"><ele>126.0</ele><time>2026-05-05T10:58:58Z</time></trkpt><trkpt lat="38.73408808291087" lon="16.166501204553395"><ele>125.83333333333333</ele><time>2026-05-05T10:59:08Z</time></trkpt><trkpt lat="38.73416523169235" lon="16.166431195668224"><ele>125.66666666666666</ele><time>2026-05-05T10:59:22Z</time></trkpt><trkpt lat="38.73423308947066" lon="16.16641920820693"><ele>125.5</ele><time>2026-05-05T10:59:27Z</time></trkpt><trkpt lat="38.7342933673344" lon="16.166383400636434"><ele>125.33333333333333</ele><time>2026-05-05T10:59:32Z</time></trkpt><trkpt lat="38.73436723179955" lon="16.166351712540166"><ele>125.16666666666666</ele><time>2026-05-05T10:59:37Z</time></trkpt><trkpt lat="38.73445001428106" lon="16.166318982852747"><ele>125.0</ele><time>2026-05-05T10:59:42Z</time></trkpt><trkpt lat="38.73453157928889" lon="16.16629697455164"><ele>124.6</ele><time>2026-05-05T10:59:52Z</time></trkpt><trkpt lat="38.734586119972946" lon="16.166232645353986"><ele>124.2</ele><time>2026-05-05T11:00:03Z</time></trkpt><trkpt lat="38.734655885188864" lon="16.1661901071673"><ele>123.80000000000001</ele><time>2026-05-05T11:00:08Z</time></trkpt><trkpt lat="38.73472558266519" lon="16.166160627667832"><ele>123.4</ele><time>2026-05-05T11:00:13Z</time></trkpt><trkpt lat="38.73479795169036" lon="16.16613872760574"><ele>123.0</ele><time>2026-05-05T11:00:18Z</time></trkpt><trkpt lat="38.73502354527994" lon="16.16614161619756"><ele>123.00000000000001</ele><time>2026-05-05T11:00:38Z</time></trkpt><trkpt lat="38.735083057439695" lon="16.166101540593633"><ele>123.0</ele><time>2026-05-05T11:00:44Z</time></trkpt><trkpt lat="38.73514971414777" lon="16.166066530840666"><ele>123.00000000000001</ele><time>2026-05-05T11:00:49Z</time></trkpt><trkpt lat="38.73521489959707" lon="16.16602584095244"><ele>123.00000000000001</ele><time>2026-05-05T11:00:54Z</time></trkpt><trkpt lat="38.73529538045984" lon="16.165981295958368"><ele>123.0</ele><time>2026-05-05T11:01:02Z</time></trkpt><trkpt lat="38.73535621291449" lon="16.16594684978534"><ele>123.00000000000001</ele><time>2026-05-05T11:01:08Z</time></trkpt><trkpt lat="38.73542385219266" lon="16.165923916049174"><ele>123.00000000000001</ele><time>2026-05-05T11:01:13Z</time></trkpt><trkpt lat="38.735485075837225" lon="16.165904083517084"><ele>121.85714285714288</ele><time>2026-05-05T11:01:17Z</time></trkpt><trkpt lat="38.73554706807275" lon="16.16587930785207"><ele>120.71428571428572</ele><time>2026-05-05T11:01:23Z</time></trkpt><trkpt lat="38.73562076674284" lon="16.1658335369921"><ele>119.57142857142857</ele><time>2026-05-05T11:01:30Z</time></trkpt><trkpt lat="38.735684355585306" lon="16.16579939510684"><ele>118.42857142857143</ele><time>2026-05-05T11:01:36Z</time></trkpt><trkpt lat="38.73572276628586" lon="16.165734929603648"><ele>117.28571428571428</ele><time>2026-05-05T11:01:41Z</time></trkpt><trkpt lat="38.73578147733816" lon="16.16570049133315"><ele>116.14285714285712</ele><time>2026-05-05T11:01:46Z</time></trkpt><trkpt lat="38.73583588573636" lon="16.165657758260487"><ele>114.99999999999999</ele><time>2026-05-05T11:01:52Z</time></trkpt><trkpt lat="38.73587933003807" lon="16.16558407999751"><ele>113.85714285714285</ele><time>2026-05-05T11:01:58Z</time></trkpt><trkpt lat="38.735922521382506" lon="16.165522940343056"><ele>112.71428571428571</ele><time>2026-05-05T11:02:04Z</time></trkpt><trkpt lat="38.73596903271822" lon="16.1654589643757"><ele>111.57142857142857</ele><time>2026-05-05T11:02:10Z</time></trkpt><trkpt lat="38.7359911801617" lon="16.165376231661256"><ele>110.42857142857142</ele><time>2026-05-05T11:02:18Z</time></trkpt><trkpt lat="38.736019058871285" lon="16.165299743322382"><ele>109.28571428571428</ele><time>2026-05-05T11:02:29Z</time></trkpt><trkpt lat="38.73601715337921" lon="16.165212416606145"><ele>108.14285714285715</ele><time>2026-05-05T11:02:37Z</time></trkpt><trkpt lat="38.73600615489007" lon="16.165114939509202"><ele>107.0</ele><time>2026-05-05T11:02:44Z</time></trkpt><trkpt lat="38.73601924039219" lon="16.165023600948853"><ele>102.66666666666666</ele><time>2026-05-05T11:02:49Z</time></trkpt><trkpt lat="38.73617633863141" lon="16.165118981041424"><ele>98.33333333333333</ele><time>2026-05-05T11:03:05Z</time></trkpt><trkpt lat="38.736237209347465" lon="16.165154218289047"><ele>94.0</ele><time>2026-05-05T11:03:10Z</time></trkpt><trkpt lat="38.73621925439107" lon="16.16507228463307"><ele>89.66666666666666</ele><time>2026-05-05T11:03:19Z</time></trkpt><trkpt lat="38.736205341625954" lon="16.164990528193847"><ele>85.33333333333333</ele><time>2026-05-05T11:03:24Z</time></trkpt><trkpt lat="38.736176177483166" lon="16.164914006761002"><ele>81.0</ele><time>2026-05-05T11:03:30Z</time></trkpt><trkpt lat="38.736139943149226" lon="16.164847519916304"><ele>81.57142857142857</ele><time>2026-05-05T11:03:41Z</time></trkpt><trkpt lat="38.73607886627079" lon="16.16480513568442"><ele>82.14285714285714</ele><time>2026-05-05T11:03:47Z</time></trkpt><trkpt lat="38.73607425786737" lon="16.164716139431984"><ele>82.71428571428572</ele><time>2026-05-05T11:03:59Z</time></trkpt><trkpt lat="38.736060242575576" lon="16.164637252065752"><ele>83.28571428571428</ele><time>2026-05-05T11:04:12Z</time></trkpt><trkpt lat="38.735992550546676" lon="16.164619574658037"><ele>83.85714285714285</ele><time>2026-05-05T11:04:21Z</time></trkpt><trkpt lat="38.73596296495157" lon="16.164540562583348"><ele>84.42857142857143</ele><time>2026-05-05T11:04:28Z</time></trkpt><trkpt lat="38.735927835703095" lon="16.164462533456867"><ele>85.0</ele><time>2026-05-05T11:04:36Z</time></trkpt><trkpt lat="38.73588806028148" lon="16.16439626808405"><ele>85.0</ele><time>2026-05-05T11:04:42Z</time></trkpt><trkpt lat="38.735849905473394" lon="16.164323617205437"><ele>85.0</ele><time>2026-05-05T11:04:52Z</time></trkpt><trkpt lat="38.735836017986394" lon="16.164228362578616"><ele>85.0</ele><time>2026-05-05T11:05:06Z</time></trkpt><trkpt lat="38.7358093565961" lon="16.164149074045362"><ele>85.0</ele><time>2026-05-05T11:05:13Z</time></trkpt><trkpt lat="38.73579310929216" lon="16.164068327595377"><ele>85.0</ele><time>2026-05-05T11:05:20Z</time></trkpt><trkpt lat="38.73578018290475" lon="16.163978942569248"><ele>85.0</ele><time>2026-05-05T11:05:26Z</time></trkpt><trkpt lat="38.735767301103266" lon="16.1638938523895"><ele>85.0</ele><time>2026-05-05T11:05:34Z</time></trkpt><trkpt lat="38.73573624483704" lon="16.163815716651843"><ele>83.0</ele><time>2026-05-05T11:05:40Z</time></trkpt><trkpt lat="38.73573296087752" lon="16.16373282676913"><ele>81.0</ele><time>2026-05-05T11:05:48Z</time></trkpt><trkpt lat="38.73571513036" lon="16.16363673759454"><ele>79.0</ele><time>2026-05-05T11:05:55Z</time></trkpt><trkpt lat="38.735777502774354" lon="16.163671014320816"><ele>77.0</ele><time>2026-05-05T11:06:02Z</time></trkpt><trkpt lat="38.73570963870131" lon="16.163650927392364"><ele>75.0</ele><time>2026-05-05T11:06:33Z</time></trkpt><trkpt lat="38.73567335307922" lon="16.163573229326516"><ele>73.0</ele><time>2026-05-05T11:06:37Z</time></trkpt><trkpt lat="38.735628030112" lon="16.16349445890251"><ele>71.0</ele><time>2026-05-05T11:06:43Z</time></trkpt><trkpt lat="38.73562266975202" lon="16.163397686454925"><ele>71.0</ele><time>2026-05-05T11:06:50Z</time></trkpt><trkpt lat="38.73567424444822" lon="16.163317120774856"><ele>71.0</ele><time>2026-05-05T11:06:53Z</time></trkpt><trkpt lat="38.73573437117921" lon="16.163253611647058"><ele>71.0</ele><time>2026-05-05T11:06:58Z</time></trkpt><trkpt lat="38.73575867302555" lon="16.163169214822297"><ele>71.0</ele><time>2026-05-05T11:07:02Z</time></trkpt><trkpt lat="38.73574642365172" lon="16.16308201203073"><ele>71.0</ele><time>2026-05-05T11:07:07Z</time></trkpt><trkpt lat="38.73576372481827" lon="16.163162108646482"><ele>71.0</ele><time>2026-05-05T11:07:25Z</time></trkpt><trkpt lat="38.73574306101992" lon="16.163244969847614"><ele>71.0</ele><time>2026-05-05T11:07:32Z</time></trkpt><trkpt lat="38.735718327482374" lon="16.163340173381386"><ele>71.0</ele><time>2026-05-05T11:07:37Z</time></trkpt><trkpt lat="38.735717777648574" lon="16.163425373584044"><ele>71.0</ele><time>2026-05-05T11:07:42Z</time></trkpt><trkpt lat="38.735724339879326" lon="16.163510031295512"><ele>71.0</ele><time>2026-05-05T11:07:46Z</time></trkpt></trkseg><trkseg><trkpt lat="38.736085981072044" lon="16.16404276173374"><ele>67.57142857142857</ele><time>2026-05-05T12:54:50Z</time></trkpt><trkpt lat="38.73603095984959" lon="16.16398433238391"><ele>68.14285714285714</ele><time>2026-05-05T12:54:59Z</time></trkpt><trkpt lat="38.735983525762514" lon="16.163889130418244"><ele>68.71428571428571</ele><time>2026-05-05T12:55:07Z</time></trkpt><trkpt lat="38.73593960739133" lon="16.163822155498394"><ele>69.28571428571428</ele><time>2026-05-05T12:55:14Z</time></trkpt><trkpt lat="38.735899833131995" lon="16.163758360023934"><ele>69.85714285714285</ele><time>2026-05-05T12:55:20Z</time></trkpt><trkpt lat="38.73581376637115" lon="16.163760053442846"><ele>70.42857142857143</ele><time>2026-05-05T12:55:25Z</time></trkpt><trkpt lat="38.735753960383285" lon="16.16372876698877"><ele>71.0</ele><time>2026-05-05T12:55:30Z</time></trkpt><trkpt lat="38.7357096668857" lon="16.16365920123645"><ele>71.0</ele><time>2026-05-05T12:55:34Z</time></trkpt><trkpt lat="38.73569085979462" lon="16.16357347497951"><ele>71.0</ele><time>2026-05-05T12:55:42Z</time></trkpt><trkpt lat="38.73566040080736" lon="16.163484448685722"><ele>71.0</ele><time>2026-05-05T12:55:49Z</time></trkpt><trkpt lat="38.735654922549664" lon="16.16338460847923"><ele>71.0</ele><time>2026-05-05T12:55:58Z</time></trkpt><trkpt lat="38.73569533499422" lon="16.163312651207953"><ele>71.0</ele><time>2026-05-05T12:56:02Z</time></trkpt><trkpt lat="38.735742615077136" lon="16.163258383583454"><ele>71.0</ele><time>2026-05-05T12:56:06Z</time></trkpt><trkpt lat="38.73579471503411" lon="16.163193449131132"><ele>71.0</ele><time>2026-05-05T12:56:13Z</time></trkpt><trkpt lat="38.7357884278649" lon="16.16311272887281"><ele>70.42857142857143</ele><time>2026-05-05T12:56:20Z</time></trkpt><trkpt lat="38.73579363114409" lon="16.163027567266788"><ele>69.85714285714285</ele><time>2026-05-05T12:56:26Z</time></trkpt><trkpt lat="38.73580016212358" lon="16.16294049506912"><ele>69.28571428571428</ele><time>2026-05-05T12:56:31Z</time></trkpt><trkpt lat="38.735790086058124" lon="16.162853253944764"><ele>68.71428571428571</ele><time>2026-05-05T12:56:37Z</time></trkpt><trkpt lat="38.73578970883311" lon="16.16277025000334"><ele>68.14285714285714</ele><time>2026-05-05T12:56:44Z</time></trkpt><trkpt lat="38.73580422504486" lon="16.162690058354244"><ele>67.57142857142857</ele><time>2026-05-05T12:56:50Z</time></trkpt><trkpt lat="38.73582894558559" lon="16.162608746718934"><ele>67.0</ele><time>2026-05-05T12:56:57Z</time></trkpt><trkpt lat="38.735851042629555" lon="16.162532118618433"><ele>67.0</ele><time>2026-05-05T12:57:03Z</time></trkpt><trkpt lat="38.735833469718216" lon="16.162438757903832"><ele>67.0</ele><time>2026-05-05T12:57:12Z</time></trkpt><trkpt lat="38.73583486576985" lon="16.162348717081663"><ele>67.0</ele><time>2026-05-05T12:57:18Z</time></trkpt><trkpt lat="38.735821407129755" lon="16.162267049515467"><ele>67.0</ele><time>2026-05-05T12:57:24Z</time></trkpt><trkpt lat="38.735830499275274" lon="16.16218216438047"><ele>67.0</ele><time>2026-05-05T12:57:29Z</time></trkpt><trkpt lat="38.73581562638223" lon="16.16210226166594"><ele>67.0</ele><time>2026-05-05T12:57:36Z</time></trkpt><trkpt lat="38.73586057503373" lon="16.162010058147757"><ele>67.0</ele><time>2026-05-05T12:57:45Z</time></trkpt><trkpt lat="38.735868161466755" lon="16.16191422841169"><ele>66.57142857142857</ele><time>2026-05-05T12:57:51Z</time></trkpt><trkpt lat="38.73585138176899" lon="16.161827338217865"><ele>66.14285714285714</ele><time>2026-05-05T12:58:00Z</time></trkpt><trkpt lat="38.73581425179544" lon="16.16174765858959"><ele>65.71428571428571</ele><time>2026-05-05T12:58:06Z</time></trkpt><trkpt lat="38.73577517501328" lon="16.161678450941615"><ele>65.28571428571428</ele><time>2026-05-05T12:58:13Z</time></trkpt><trkpt lat="38.73573682641011" lon="16.161612241172758"><ele>64.85714285714285</ele><time>2026-05-05T12:58:20Z</time></trkpt><trkpt lat="38.73575991401109" lon="16.16151406832882"><ele>64.42857142857143</ele><time>2026-05-05T12:58:25Z</time></trkpt><trkpt lat="38.73577996629446" lon="16.161432080094706"><ele>64.0</ele><time>2026-05-05T12:58:29Z</time></trkpt><trkpt lat="38.73589923399401" lon="16.16136658012294"><ele>63.49999999999999</ele><time>2026-05-05T12:58:40Z</time></trkpt><trkpt lat="38.73592660229945" lon="16.16128591600763"><ele>63.0</ele><time>2026-05-05T12:58:46Z</time></trkpt><trkpt lat="38.73603818413695" lon="16.161226311519645"><ele>62.5</ele><time>2026-05-05T12:58:57Z</time></trkpt><trkpt lat="38.73612903255706" lon="16.161216133946386"><ele>62.0</ele><time>2026-05-05T12:59:12Z</time></trkpt><trkpt lat="38.73615328398467" lon="16.16113547393392"><ele>61.49999999999999</ele><time>2026-05-05T13:00:00Z</time></trkpt><trkpt lat="38.73619673785967" lon="16.161076336204275"><ele>61.0</ele><time>2026-05-05T13:00:08Z</time></trkpt><trkpt lat="38.736169520505314" lon="16.161001798014706"><ele>60.99999999999999</ele><time>2026-05-05T13:00:13Z</time></trkpt><trkpt lat="38.7361197747634" lon="16.160938196647216"><ele>61.0</ele><time>2026-05-05T13:00:21Z</time></trkpt><trkpt lat="38.736068730068475" lon="16.160887609125652"><ele>60.99999999999999</ele><time>2026-05-05T13:00:28Z</time></trkpt><trkpt lat="38.736034572587265" lon="16.160814932246648"><ele>60.99999999999999</ele><time>2026-05-05T13:00:35Z</time></trkpt><trkpt lat="38.7359733841823" lon="16.16077265669893"><ele>61.0</ele><time>2026-05-05T13:00:41Z</time></trkpt><trkpt lat="38.7359514519719" lon="16.16069267608809"><ele>60.99999999999999</ele><time>2026-05-05T13:00:48Z</time></trkpt><trkpt lat="38.735908659601385" lon="16.160633127571977"><ele>60.99999999999999</ele><time>2026-05-05T13:00:54Z</time></trkpt><trkpt lat="38.73588807797786" lon="16.160548185730182"><ele>58.42857142857142</ele><time>2026-05-05T13:01:00Z</time></trkpt><trkpt lat="38.73585602312084" lon="16.160462785720995"><ele>55.857142857142854</ele><time>2026-05-05T13:01:07Z</time></trkpt><trkpt lat="38.73581351340332" lon="16.16039567697462"><ele>53.285714285714285</ele><time>2026-05-05T13:01:13Z</time></trkpt><trkpt lat="38.73574999273586" lon="16.16037125515895"><ele>50.71428571428571</ele><time>2026-05-05T13:01:21Z</time></trkpt><trkpt lat="38.735761915094145" lon="16.16028813710439"><ele>48.14285714285714</ele><time>2026-05-05T13:01:35Z</time></trkpt><trkpt lat="38.73577516670629" lon="16.160203705781893"><ele>45.57142857142858</ele><time>2026-05-05T13:01:41Z</time></trkpt><trkpt lat="38.73574571501057" lon="16.1601221045769"><ele>43.0</ele><time>2026-05-05T13:01:47Z</time></trkpt><trkpt lat="38.73567497492982" lon="16.16012201450949"><ele>43.00000000000001</ele><time>2026-05-05T13:01:54Z</time></trkpt><trkpt lat="38.73561156540075" lon="16.16014040233126"><ele>43.0</ele><time>2026-05-05T13:02:02Z</time></trkpt><trkpt lat="38.73568028262862" lon="16.160156632235726"><ele>43.0</ele><time>2026-05-05T13:07:37Z</time></trkpt><trkpt lat="38.73561908236691" lon="16.160190825989858"><ele>43.0</ele><time>2026-05-05T13:08:00Z</time></trkpt><trkpt lat="38.735624470195944" lon="16.160108557719642"><ele>43.0</ele><time>2026-05-05T13:16:01Z</time></trkpt><trkpt lat="38.73570391822731" lon="16.160098278805297"><ele>43.00000000000001</ele><time>2026-05-05T13:16:14Z</time></trkpt><trkpt lat="38.73576713517911" lon="16.160151511441246"><ele>43.0</ele><time>2026-05-05T13:16:28Z</time></trkpt><trkpt lat="38.735797500569426" lon="16.160235862112756"><ele>43.00000000000001</ele><time>2026-05-05T13:16:34Z</time></trkpt><trkpt lat="38.73579562923685" lon="16.160320834322253"><ele>43.0</ele><time>2026-05-05T13:16:40Z</time></trkpt><trkpt lat="38.73575976649096" lon="16.160388929290395"><ele>43.0</ele><time>2026-05-05T13:16:48Z</time></trkpt><trkpt lat="38.73572937098819" lon="16.160467603578436"><ele>43.0</ele><time>2026-05-05T13:16:53Z</time></trkpt><trkpt lat="38.73568596135415" lon="16.160528778851297"><ele>43.0</ele><time>2026-05-05T13:16:59Z</time></trkpt><trkpt lat="38.73563710999266" lon="16.160579888920214"><ele>43.00000000000001</ele><time>2026-05-05T13:17:06Z</time></trkpt><trkpt lat="38.735570958449934" lon="16.16061517609289"><ele>43.0</ele><time>2026-05-05T13:17:13Z</time></trkpt><trkpt lat="38.735478053249096" lon="16.1606406934854"><ele>45.57142857142858</ele><time>2026-05-05T13:18:25Z</time></trkpt><trkpt lat="38.735430373658964" lon="16.160699757464776"><ele>48.14285714285714</ele><time>2026-05-05T13:18:31Z</time></trkpt><trkpt lat="38.735400672950654" lon="16.160773616101935"><ele>50.71428571428571</ele><time>2026-05-05T13:18:59Z</time></trkpt><trkpt lat="38.73539773286215" lon="16.16085480694458"><ele>53.285714285714285</ele><time>2026-05-05T13:19:05Z</time></trkpt><trkpt lat="38.73540508545537" lon="16.160948661063706"><ele>55.857142857142854</ele><time>2026-05-05T13:19:13.001Z</time></trkpt><trkpt lat="38.73545179343737" lon="16.16101108266946"><ele>58.42857142857142</ele><time>2026-05-05T13:19:20.001Z</time></trkpt><trkpt lat="38.73548260861527" lon="16.161095680200432"><ele>60.99999999999999</ele><time>2026-05-05T13:19:28.999Z</time></trkpt><trkpt lat="38.735508066054905" lon="16.16117276589005"><ele>60.99999999999999</ele><time>2026-05-05T13:19:36.999Z</time></trkpt><trkpt lat="38.73556149524978" lon="16.161233867272387"><ele>61.0</ele><time>2026-05-05T13:19:44.999Z</time></trkpt><trkpt lat="38.73561399686276" lon="16.16129781177154"><ele>61.0</ele><time>2026-05-05T13:19:52Z</time></trkpt><trkpt lat="38.73566182934556" lon="16.16142761394211"><ele>61.0</ele><time>2026-05-05T13:20:05Z</time></trkpt><trkpt lat="38.73559491345727" lon="16.16141365314613"><ele>60.99999999999999</ele><time>2026-05-05T13:20:19Z</time></trkpt><trkpt lat="38.73553079327768" lon="16.161425581835093"><ele>61.0</ele><time>2026-05-05T13:20:28Z</time></trkpt><trkpt lat="38.73553340634195" lon="16.16133549181229"><ele>60.99999999999999</ele><time>2026-05-05T13:32:16.001Z</time></trkpt><trkpt lat="38.73554356794147" lon="16.16125226041372"><ele>61.0</ele><time>2026-05-05T13:32:22.001Z</time></trkpt><trkpt lat="38.73552913399746" lon="16.16116655157031"><ele>60.99999999999999</ele><time>2026-05-05T13:32:30.001Z</time></trkpt><trkpt lat="38.735481494476765" lon="16.16110888900341"><ele>60.99999999999999</ele><time>2026-05-05T13:32:39.001Z</time></trkpt><trkpt lat="38.73543265125254" lon="16.161048907358573"><ele>61.0</ele><time>2026-05-05T13:33:07.001Z</time></trkpt><trkpt lat="38.73538384451535" lon="16.16099723155214"><ele>60.99999999999999</ele><time>2026-05-05T13:33:15.001Z</time></trkpt><trkpt lat="38.73532473471133" lon="16.16095028550921"><ele>60.99999999999999</ele><time>2026-05-05T13:33:24.001Z</time></trkpt><trkpt lat="38.73527332988452" lon="16.160900518094884"><ele>61.0</ele><time>2026-05-05T13:33:31.001Z</time></trkpt><trkpt lat="38.73522206564362" lon="16.160833006289256"><ele>61.0</ele><time>2026-05-05T13:33:41.001Z</time></trkpt></trkseg></trk></gpx>